<?xml version="1.0" encoding="UTF-8" standalone="no" ?>
<gpx xmlns="http://www.topografix.com/GPX/1/1" xmlns:xsi="http://www.w3.org/2001/XMLSchema-instance" xsi:schemaLocation="http://www.topografix.com/GPX/1/1 http://www.topografix.com/GPX/1/1/gpx.xsd" version="1.1" creator="VisuGPX - https://www.visugpx.com">
  <metadata>
    <name>Thuy Petit Bo Les Glières Thorens Villaz</name>
    <desc><![CDATA[Thuy Petit Bo Les Glières Thorens Villaz]]></desc>
  </metadata>
  <wpt lat="45.89815" lon="6.30249">
    <ele>618.4</ele>
    <name><![CDATA[Start]]></name>
    <desc><![CDATA[2013-07-17 05:26:32]]></desc>
  </wpt>
  <wpt lat="45.98756" lon="6.39046">
    <ele>715.8</ele>
    <name><![CDATA[Lap 1]]></name>
    <desc><![CDATA[20.60km, 49:12, 25.1kph]]></desc>
  </wpt>
  <wpt lat="45.8981" lon="6.30259">
    <ele>617</ele>
    <name><![CDATA[Lap 2]]></name>
    <desc><![CDATA[44.83km, 116:59, 23.0kph]]></desc>
  </wpt>
  <trk>
    <name><![CDATA[17_07_2013 07_26_32_history]]></name>
    <desc><![CDATA[166:11 - 65.4km]]></desc>
    <trkseg>
      <trkpt lat="45.89815" lon="6.30249">
        <ele>625.06</ele>
        <time>2013-07-17T05:26:34Z</time>
      </trkpt>
      <trkpt lat="45.89811" lon="6.30264">
        <ele>624.812</ele>
        <time>2013-07-17T05:26:39Z</time>
      </trkpt>
      <trkpt lat="45.89808" lon="6.30269">
        <ele>624.621</ele>
        <time>2013-07-17T05:26:40Z</time>
      </trkpt>
      <trkpt lat="45.89796" lon="6.30305">
        <ele>623.161</ele>
        <time>2013-07-17T05:26:45Z</time>
      </trkpt>
      <trkpt lat="45.89776" lon="6.30332">
        <ele>623.871</ele>
        <time>2013-07-17T05:26:50Z</time>
      </trkpt>
      <trkpt lat="45.89751" lon="6.30361">
        <ele>625.449</ele>
        <time>2013-07-17T05:26:57Z</time>
      </trkpt>
      <trkpt lat="45.89735" lon="6.30384">
        <ele>626.946</ele>
        <time>2013-07-17T05:27:03Z</time>
      </trkpt>
      <trkpt lat="45.89734" lon="6.30405">
        <ele>628.076</ele>
        <time>2013-07-17T05:27:07Z</time>
      </trkpt>
      <trkpt lat="45.89734" lon="6.30434">
        <ele>629.928</ele>
        <time>2013-07-17T05:27:12Z</time>
      </trkpt>
      <trkpt lat="45.89736" lon="6.30468">
        <ele>630.9</ele>
        <time>2013-07-17T05:27:18Z</time>
      </trkpt>
      <trkpt lat="45.89737" lon="6.30509">
        <ele>631.608</ele>
        <time>2013-07-17T05:27:25Z</time>
      </trkpt>
      <trkpt lat="45.89734" lon="6.30557">
        <ele>631.647</ele>
        <time>2013-07-17T05:27:32Z</time>
      </trkpt>
      <trkpt lat="45.89726" lon="6.30585">
        <ele>631.532</ele>
        <time>2013-07-17T05:27:36Z</time>
      </trkpt>
      <trkpt lat="45.89701" lon="6.30628">
        <ele>629.376</ele>
        <time>2013-07-17T05:27:41Z</time>
      </trkpt>
      <trkpt lat="45.89694" lon="6.30638">
        <ele>628.739</ele>
        <time>2013-07-17T05:27:42Z</time>
      </trkpt>
      <trkpt lat="45.8964" lon="6.30682">
        <ele>624.766</ele>
        <time>2013-07-17T05:27:48Z</time>
      </trkpt>
      <trkpt lat="45.89604" lon="6.30713">
        <ele>622.727</ele>
        <time>2013-07-17T05:27:52Z</time>
      </trkpt>
      <trkpt lat="45.89598" lon="6.30724">
        <ele>622.233</ele>
        <time>2013-07-17T05:27:53Z</time>
      </trkpt>
      <trkpt lat="45.89571" lon="6.30772">
        <ele>620.389</ele>
        <time>2013-07-17T05:27:57Z</time>
      </trkpt>
      <trkpt lat="45.8954" lon="6.30814">
        <ele>618.545</ele>
        <time>2013-07-17T05:28:01Z</time>
      </trkpt>
      <trkpt lat="45.8949" lon="6.30856">
        <ele>616.534</ele>
        <time>2013-07-17T05:28:07Z</time>
      </trkpt>
      <trkpt lat="45.89482" lon="6.30862">
        <ele>616.126</ele>
        <time>2013-07-17T05:28:08Z</time>
      </trkpt>
      <trkpt lat="45.8946" lon="6.30863">
        <ele>614.852</ele>
        <time>2013-07-17T05:28:11Z</time>
      </trkpt>
      <trkpt lat="45.89453" lon="6.30855">
        <ele>614.283</ele>
        <time>2013-07-17T05:28:12Z</time>
      </trkpt>
      <trkpt lat="45.89433" lon="6.30829">
        <ele>613.213</ele>
        <time>2013-07-17T05:28:15Z</time>
      </trkpt>
      <trkpt lat="45.89416" lon="6.30793">
        <ele>611.742</ele>
        <time>2013-07-17T05:28:18Z</time>
      </trkpt>
      <trkpt lat="45.89416" lon="6.30763">
        <ele>610.588</ele>
        <time>2013-07-17T05:28:20Z</time>
      </trkpt>
      <trkpt lat="45.89419" lon="6.30749">
        <ele>610.153</ele>
        <time>2013-07-17T05:28:21Z</time>
      </trkpt>
      <trkpt lat="45.8944" lon="6.30669">
        <ele>608.752</ele>
        <time>2013-07-17T05:28:27Z</time>
      </trkpt>
      <trkpt lat="45.89439" lon="6.30617">
        <ele>608.195</ele>
        <time>2013-07-17T05:28:31Z</time>
      </trkpt>
      <trkpt lat="45.89431" lon="6.30594">
        <ele>607.896</ele>
        <time>2013-07-17T05:28:33Z</time>
      </trkpt>
      <trkpt lat="45.89405" lon="6.30539">
        <ele>607.135</ele>
        <time>2013-07-17T05:28:39Z</time>
      </trkpt>
      <trkpt lat="45.89401" lon="6.30528">
        <ele>606.977</ele>
        <time>2013-07-17T05:28:42Z</time>
      </trkpt>
      <trkpt lat="45.89399" lon="6.30516">
        <ele>606.761</ele>
        <time>2013-07-17T05:28:45Z</time>
      </trkpt>
      <trkpt lat="45.89384" lon="6.30501">
        <ele>606.556</ele>
        <time>2013-07-17T05:28:49Z</time>
      </trkpt>
      <trkpt lat="45.89375" lon="6.30509">
        <ele>606.509</ele>
        <time>2013-07-17T05:28:51Z</time>
      </trkpt>
      <trkpt lat="45.89372" lon="6.30524">
        <ele>606.615</ele>
        <time>2013-07-17T05:28:53Z</time>
      </trkpt>
      <trkpt lat="45.89352" lon="6.30579">
        <ele>607.706</ele>
        <time>2013-07-17T05:29:01Z</time>
      </trkpt>
      <trkpt lat="45.89324" lon="6.30642">
        <ele>608.961</ele>
        <time>2013-07-17T05:29:10Z</time>
      </trkpt>
      <trkpt lat="45.89289" lon="6.30722">
        <ele>609.743</ele>
        <time>2013-07-17T05:29:21Z</time>
      </trkpt>
      <trkpt lat="45.89254" lon="6.30795">
        <ele>610.615</ele>
        <time>2013-07-17T05:29:31Z</time>
      </trkpt>
      <trkpt lat="45.89217" lon="6.30863">
        <ele>610.914</ele>
        <time>2013-07-17T05:29:40Z</time>
      </trkpt>
      <trkpt lat="45.89178" lon="6.30924">
        <ele>611.158</ele>
        <time>2013-07-17T05:29:48Z</time>
      </trkpt>
      <trkpt lat="45.89124" lon="6.30994">
        <ele>611.632</ele>
        <time>2013-07-17T05:29:58Z</time>
      </trkpt>
      <trkpt lat="45.89071" lon="6.31055">
        <ele>612.341</ele>
        <time>2013-07-17T05:30:07Z</time>
      </trkpt>
      <trkpt lat="45.89005" lon="6.31129">
        <ele>613.235</ele>
        <time>2013-07-17T05:30:18Z</time>
      </trkpt>
      <trkpt lat="45.88952" lon="6.31188">
        <ele>613.972</ele>
        <time>2013-07-17T05:30:27Z</time>
      </trkpt>
      <trkpt lat="45.88896" lon="6.31251">
        <ele>614.581</ele>
        <time>2013-07-17T05:30:37Z</time>
      </trkpt>
      <trkpt lat="45.88839" lon="6.31313">
        <ele>615.865</ele>
        <time>2013-07-17T05:30:47Z</time>
      </trkpt>
      <trkpt lat="45.88785" lon="6.31373">
        <ele>617.154</ele>
        <time>2013-07-17T05:30:57Z</time>
      </trkpt>
      <trkpt lat="45.88728" lon="6.31437">
        <ele>618.036</ele>
        <time>2013-07-17T05:31:08Z</time>
      </trkpt>
      <trkpt lat="45.88666" lon="6.31505">
        <ele>619.324</ele>
        <time>2013-07-17T05:31:20Z</time>
      </trkpt>
      <trkpt lat="45.88636" lon="6.31551">
        <ele>620.546</ele>
        <time>2013-07-17T05:31:27Z</time>
      </trkpt>
      <trkpt lat="45.88614" lon="6.31597">
        <ele>621.211</ele>
        <time>2013-07-17T05:31:34Z</time>
      </trkpt>
      <trkpt lat="45.88602" lon="6.31618">
        <ele>621.091</ele>
        <time>2013-07-17T05:31:39Z</time>
      </trkpt>
      <trkpt lat="45.88601" lon="6.3162">
        <ele>621.118</ele>
        <time>2013-07-17T05:31:42Z</time>
      </trkpt>
      <trkpt lat="45.88597" lon="6.31628">
        <ele>621.266</ele>
        <time>2013-07-17T05:34:17Z</time>
      </trkpt>
      <trkpt lat="45.88589" lon="6.31649">
        <ele>621.679</ele>
        <time>2013-07-17T05:34:22Z</time>
      </trkpt>
      <trkpt lat="45.88575" lon="6.31692">
        <ele>622.678</ele>
        <time>2013-07-17T05:34:28Z</time>
      </trkpt>
      <trkpt lat="45.88572" lon="6.31699">
        <ele>622.787</ele>
        <time>2013-07-17T05:34:29Z</time>
      </trkpt>
      <trkpt lat="45.88555" lon="6.31721">
        <ele>623.348</ele>
        <time>2013-07-17T05:34:33Z</time>
      </trkpt>
      <trkpt lat="45.88539" lon="6.31756">
        <ele>623.664</ele>
        <time>2013-07-17T05:34:38Z</time>
      </trkpt>
      <trkpt lat="45.88534" lon="6.31771">
        <ele>623.857</ele>
        <time>2013-07-17T05:34:40Z</time>
      </trkpt>
      <trkpt lat="45.88503" lon="6.31842">
        <ele>624.34</ele>
        <time>2013-07-17T05:34:50Z</time>
      </trkpt>
      <trkpt lat="45.88478" lon="6.31898">
        <ele>624.886</ele>
        <time>2013-07-17T05:34:58Z</time>
      </trkpt>
      <trkpt lat="45.88452" lon="6.31946">
        <ele>625.08</ele>
        <time>2013-07-17T05:35:05Z</time>
      </trkpt>
      <trkpt lat="45.88425" lon="6.31991">
        <ele>625.506</ele>
        <time>2013-07-17T05:35:12Z</time>
      </trkpt>
      <trkpt lat="45.88401" lon="6.32034">
        <ele>626.074</ele>
        <time>2013-07-17T05:35:19Z</time>
      </trkpt>
      <trkpt lat="45.88373" lon="6.32074">
        <ele>626.119</ele>
        <time>2013-07-17T05:35:26Z</time>
      </trkpt>
      <trkpt lat="45.88369" lon="6.32079">
        <ele>626.175</ele>
        <time>2013-07-17T05:35:27Z</time>
      </trkpt>
      <trkpt lat="45.88341" lon="6.32127">
        <ele>626.857</ele>
        <time>2013-07-17T05:35:35Z</time>
      </trkpt>
      <trkpt lat="45.88317" lon="6.32168">
        <ele>627.543</ele>
        <time>2013-07-17T05:35:42Z</time>
      </trkpt>
      <trkpt lat="45.8831" lon="6.32179">
        <ele>627.71</ele>
        <time>2013-07-17T05:35:44Z</time>
      </trkpt>
      <trkpt lat="45.88298" lon="6.32208">
        <ele>627.835</ele>
        <time>2013-07-17T05:35:49Z</time>
      </trkpt>
      <trkpt lat="45.88296" lon="6.32214">
        <ele>627.873</ele>
        <time>2013-07-17T05:35:50Z</time>
      </trkpt>
      <trkpt lat="45.88289" lon="6.32225">
        <ele>628.058</ele>
        <time>2013-07-17T05:35:52Z</time>
      </trkpt>
      <trkpt lat="45.8827" lon="6.32252">
        <ele>628.826</ele>
        <time>2013-07-17T05:35:57Z</time>
      </trkpt>
      <trkpt lat="45.88275" lon="6.32273">
        <ele>629.365</ele>
        <time>2013-07-17T05:36:00Z</time>
      </trkpt>
      <trkpt lat="45.88282" lon="6.32298">
        <ele>629.141</ele>
        <time>2013-07-17T05:36:03Z</time>
      </trkpt>
      <trkpt lat="45.88288" lon="6.32366">
        <ele>629.908</ele>
        <time>2013-07-17T05:36:11Z</time>
      </trkpt>
      <trkpt lat="45.883" lon="6.32403">
        <ele>630.83</ele>
        <time>2013-07-17T05:36:16Z</time>
      </trkpt>
      <trkpt lat="45.88307" lon="6.32415">
        <ele>630.985</ele>
        <time>2013-07-17T05:36:18Z</time>
      </trkpt>
      <trkpt lat="45.88341" lon="6.32448">
        <ele>631.696</ele>
        <time>2013-07-17T05:36:25Z</time>
      </trkpt>
      <trkpt lat="45.88384" lon="6.32485">
        <ele>631.966</ele>
        <time>2013-07-17T05:36:33Z</time>
      </trkpt>
      <trkpt lat="45.88414" lon="6.32518">
        <ele>632.254</ele>
        <time>2013-07-17T05:36:39Z</time>
      </trkpt>
      <trkpt lat="45.88449" lon="6.32571">
        <ele>632.622</ele>
        <time>2013-07-17T05:36:47Z</time>
      </trkpt>
      <trkpt lat="45.88491" lon="6.32641">
        <ele>633.148</ele>
        <time>2013-07-17T05:36:57Z</time>
      </trkpt>
      <trkpt lat="45.88528" lon="6.32692">
        <ele>633.716</ele>
        <time>2013-07-17T05:37:05Z</time>
      </trkpt>
      <trkpt lat="45.88576" lon="6.32739">
        <ele>634.453</ele>
        <time>2013-07-17T05:37:14Z</time>
      </trkpt>
      <trkpt lat="45.88628" lon="6.32788">
        <ele>635.463</ele>
        <time>2013-07-17T05:37:24Z</time>
      </trkpt>
      <trkpt lat="45.88672" lon="6.32832">
        <ele>636.026</ele>
        <time>2013-07-17T05:37:33Z</time>
      </trkpt>
      <trkpt lat="45.88722" lon="6.32881">
        <ele>636.994</ele>
        <time>2013-07-17T05:37:43Z</time>
      </trkpt>
      <trkpt lat="45.88772" lon="6.32922">
        <ele>638.068</ele>
        <time>2013-07-17T05:37:52Z</time>
      </trkpt>
      <trkpt lat="45.88809" lon="6.32936">
        <ele>638.886</ele>
        <time>2013-07-17T05:37:58Z</time>
      </trkpt>
      <trkpt lat="45.88864" lon="6.32955">
        <ele>639.472</ele>
        <time>2013-07-17T05:38:07Z</time>
      </trkpt>
      <trkpt lat="45.88897" lon="6.32979">
        <ele>640.055</ele>
        <time>2013-07-17T05:38:13Z</time>
      </trkpt>
      <trkpt lat="45.8893" lon="6.33018">
        <ele>640.737</ele>
        <time>2013-07-17T05:38:20Z</time>
      </trkpt>
      <trkpt lat="45.88963" lon="6.33077">
        <ele>641.741</ele>
        <time>2013-07-17T05:38:29Z</time>
      </trkpt>
      <trkpt lat="45.88992" lon="6.33114">
        <ele>641.803</ele>
        <time>2013-07-17T05:38:36Z</time>
      </trkpt>
      <trkpt lat="45.89011" lon="6.33133">
        <ele>642.209</ele>
        <time>2013-07-17T05:38:40Z</time>
      </trkpt>
      <trkpt lat="45.89024" lon="6.33149">
        <ele>643.112</ele>
        <time>2013-07-17T05:38:43Z</time>
      </trkpt>
      <trkpt lat="45.89056" lon="6.33185">
        <ele>644.191</ele>
        <time>2013-07-17T05:38:50Z</time>
      </trkpt>
      <trkpt lat="45.89073" lon="6.3321">
        <ele>644.539</ele>
        <time>2013-07-17T05:38:54Z</time>
      </trkpt>
      <trkpt lat="45.89093" lon="6.33251">
        <ele>646.05</ele>
        <time>2013-07-17T05:39:01Z</time>
      </trkpt>
      <trkpt lat="45.89103" lon="6.33274">
        <ele>646.546</ele>
        <time>2013-07-17T05:39:06Z</time>
      </trkpt>
      <trkpt lat="45.89115" lon="6.33296">
        <ele>646.97</ele>
        <time>2013-07-17T05:39:10Z</time>
      </trkpt>
      <trkpt lat="45.89147" lon="6.33348">
        <ele>648.2</ele>
        <time>2013-07-17T05:39:19Z</time>
      </trkpt>
      <trkpt lat="45.8918" lon="6.33388">
        <ele>648.088</ele>
        <time>2013-07-17T05:39:26Z</time>
      </trkpt>
      <trkpt lat="45.8921" lon="6.33437">
        <ele>648.416</ele>
        <time>2013-07-17T05:39:33Z</time>
      </trkpt>
      <trkpt lat="45.89246" lon="6.33501">
        <ele>648.783</ele>
        <time>2013-07-17T05:39:42Z</time>
      </trkpt>
      <trkpt lat="45.89299" lon="6.33601">
        <ele>650.845</ele>
        <time>2013-07-17T05:39:56Z</time>
      </trkpt>
      <trkpt lat="45.8935" lon="6.33698">
        <ele>652.586</ele>
        <time>2013-07-17T05:40:10Z</time>
      </trkpt>
      <trkpt lat="45.89392" lon="6.33779">
        <ele>654.186</ele>
        <time>2013-07-17T05:40:22Z</time>
      </trkpt>
      <trkpt lat="45.89441" lon="6.33874">
        <ele>655.66</ele>
        <time>2013-07-17T05:40:36Z</time>
      </trkpt>
      <trkpt lat="45.89477" lon="6.33944">
        <ele>656.825</ele>
        <time>2013-07-17T05:40:46Z</time>
      </trkpt>
      <trkpt lat="45.8952" lon="6.34027">
        <ele>658.899</ele>
        <time>2013-07-17T05:40:58Z</time>
      </trkpt>
      <trkpt lat="45.89557" lon="6.34099">
        <ele>660.14</ele>
        <time>2013-07-17T05:41:09Z</time>
      </trkpt>
      <trkpt lat="45.89605" lon="6.34191">
        <ele>662.478</ele>
        <time>2013-07-17T05:41:23Z</time>
      </trkpt>
      <trkpt lat="45.89652" lon="6.3428">
        <ele>664.286</ele>
        <time>2013-07-17T05:41:36Z</time>
      </trkpt>
      <trkpt lat="45.89687" lon="6.34349">
        <ele>665.84</ele>
        <time>2013-07-17T05:41:46Z</time>
      </trkpt>
      <trkpt lat="45.89726" lon="6.34425">
        <ele>667.445</ele>
        <time>2013-07-17T05:41:57Z</time>
      </trkpt>
      <trkpt lat="45.89751" lon="6.34473">
        <ele>668.307</ele>
        <time>2013-07-17T05:42:04Z</time>
      </trkpt>
      <trkpt lat="45.89786" lon="6.34541">
        <ele>670.088</ele>
        <time>2013-07-17T05:42:14Z</time>
      </trkpt>
      <trkpt lat="45.89806" lon="6.34584">
        <ele>672.164</ele>
        <time>2013-07-17T05:42:21Z</time>
      </trkpt>
      <trkpt lat="45.89827" lon="6.34637">
        <ele>675.463</ele>
        <time>2013-07-17T05:42:31Z</time>
      </trkpt>
      <trkpt lat="45.89847" lon="6.3469">
        <ele>678.484</ele>
        <time>2013-07-17T05:42:42Z</time>
      </trkpt>
      <trkpt lat="45.89868" lon="6.3475">
        <ele>682.204</ele>
        <time>2013-07-17T05:42:55Z</time>
      </trkpt>
      <trkpt lat="45.89886" lon="6.34795">
        <ele>684.914</ele>
        <time>2013-07-17T05:43:05Z</time>
      </trkpt>
      <trkpt lat="45.89903" lon="6.34844">
        <ele>687.825</ele>
        <time>2013-07-17T05:43:16Z</time>
      </trkpt>
      <trkpt lat="45.89922" lon="6.34897">
        <ele>691</ele>
        <time>2013-07-17T05:43:29Z</time>
      </trkpt>
      <trkpt lat="45.89941" lon="6.34944">
        <ele>694.066</ele>
        <time>2013-07-17T05:43:41Z</time>
      </trkpt>
      <trkpt lat="45.89961" lon="6.34987">
        <ele>696.84</ele>
        <time>2013-07-17T05:43:52Z</time>
      </trkpt>
      <trkpt lat="45.89988" lon="6.35039">
        <ele>700.138</ele>
        <time>2013-07-17T05:44:06Z</time>
      </trkpt>
      <trkpt lat="45.90012" lon="6.35083">
        <ele>702.999</ele>
        <time>2013-07-17T05:44:18Z</time>
      </trkpt>
      <trkpt lat="45.90035" lon="6.35127">
        <ele>705.761</ele>
        <time>2013-07-17T05:44:30Z</time>
      </trkpt>
      <trkpt lat="45.90064" lon="6.35182">
        <ele>709.469</ele>
        <time>2013-07-17T05:44:45Z</time>
      </trkpt>
      <trkpt lat="45.9009" lon="6.35231">
        <ele>712.358</ele>
        <time>2013-07-17T05:44:58Z</time>
      </trkpt>
      <trkpt lat="45.90118" lon="6.35284">
        <ele>715.869</ele>
        <time>2013-07-17T05:45:12Z</time>
      </trkpt>
      <trkpt lat="45.90142" lon="6.3533">
        <ele>718.739</ele>
        <time>2013-07-17T05:45:24Z</time>
      </trkpt>
      <trkpt lat="45.90164" lon="6.35374">
        <ele>721.818</ele>
        <time>2013-07-17T05:45:35Z</time>
      </trkpt>
      <trkpt lat="45.90191" lon="6.35424">
        <ele>724.862</ele>
        <time>2013-07-17T05:45:48Z</time>
      </trkpt>
      <trkpt lat="45.90212" lon="6.35463">
        <ele>727.658</ele>
        <time>2013-07-17T05:45:58Z</time>
      </trkpt>
      <trkpt lat="45.90236" lon="6.35509">
        <ele>730.65</ele>
        <time>2013-07-17T05:46:10Z</time>
      </trkpt>
      <trkpt lat="45.90262" lon="6.35559">
        <ele>733.556</ele>
        <time>2013-07-17T05:46:23Z</time>
      </trkpt>
      <trkpt lat="45.90287" lon="6.3561">
        <ele>736.622</ele>
        <time>2013-07-17T05:46:36Z</time>
      </trkpt>
      <trkpt lat="45.90307" lon="6.35654">
        <ele>739.626</ele>
        <time>2013-07-17T05:46:47Z</time>
      </trkpt>
      <trkpt lat="45.90331" lon="6.35709">
        <ele>742.366</ele>
        <time>2013-07-17T05:47:00Z</time>
      </trkpt>
      <trkpt lat="45.90343" lon="6.35735">
        <ele>743.729</ele>
        <time>2013-07-17T05:47:06Z</time>
      </trkpt>
      <trkpt lat="45.90364" lon="6.35783">
        <ele>745.813</ele>
        <time>2013-07-17T05:47:17Z</time>
      </trkpt>
      <trkpt lat="45.90383" lon="6.35822">
        <ele>746.456</ele>
        <time>2013-07-17T05:47:25Z</time>
      </trkpt>
      <trkpt lat="45.9039" lon="6.35837">
        <ele>747.03</ele>
        <time>2013-07-17T05:47:28Z</time>
      </trkpt>
      <trkpt lat="45.90415" lon="6.35894">
        <ele>747.88</ele>
        <time>2013-07-17T05:47:38Z</time>
      </trkpt>
      <trkpt lat="45.90439" lon="6.35952">
        <ele>748.666</ele>
        <time>2013-07-17T05:47:47Z</time>
      </trkpt>
      <trkpt lat="45.90461" lon="6.36004">
        <ele>749.646</ele>
        <time>2013-07-17T05:47:55Z</time>
      </trkpt>
      <trkpt lat="45.90486" lon="6.36044">
        <ele>751.324</ele>
        <time>2013-07-17T05:48:03Z</time>
      </trkpt>
      <trkpt lat="45.90502" lon="6.36078">
        <ele>752.009</ele>
        <time>2013-07-17T05:48:09Z</time>
      </trkpt>
      <trkpt lat="45.90524" lon="6.36123">
        <ele>752.968</ele>
        <time>2013-07-17T05:48:17Z</time>
      </trkpt>
      <trkpt lat="45.90549" lon="6.36159">
        <ele>754.56</ele>
        <time>2013-07-17T05:48:25Z</time>
      </trkpt>
      <trkpt lat="45.90575" lon="6.36187">
        <ele>756.41</ele>
        <time>2013-07-17T05:48:32Z</time>
      </trkpt>
      <trkpt lat="45.90608" lon="6.36219">
        <ele>759.088</ele>
        <time>2013-07-17T05:48:41Z</time>
      </trkpt>
      <trkpt lat="45.90642" lon="6.36251">
        <ele>761.418</ele>
        <time>2013-07-17T05:48:51Z</time>
      </trkpt>
      <trkpt lat="45.90679" lon="6.36288">
        <ele>764.072</ele>
        <time>2013-07-17T05:49:02Z</time>
      </trkpt>
      <trkpt lat="45.9072" lon="6.3633">
        <ele>766.862</ele>
        <time>2013-07-17T05:49:14Z</time>
      </trkpt>
      <trkpt lat="45.90735" lon="6.36359">
        <ele>768.224</ele>
        <time>2013-07-17T05:49:20Z</time>
      </trkpt>
      <trkpt lat="45.90754" lon="6.36417">
        <ele>770.847</ele>
        <time>2013-07-17T05:49:31Z</time>
      </trkpt>
      <trkpt lat="45.90772" lon="6.36454">
        <ele>772.576</ele>
        <time>2013-07-17T05:49:39Z</time>
      </trkpt>
      <trkpt lat="45.90797" lon="6.36492">
        <ele>775.12</ele>
        <time>2013-07-17T05:49:48Z</time>
      </trkpt>
      <trkpt lat="45.90806" lon="6.36523">
        <ele>776.261</ele>
        <time>2013-07-17T05:49:54Z</time>
      </trkpt>
      <trkpt lat="45.90817" lon="6.3654">
        <ele>776.978</ele>
        <time>2013-07-17T05:49:58Z</time>
      </trkpt>
      <trkpt lat="45.90821" lon="6.36543">
        <ele>777.215</ele>
        <time>2013-07-17T05:49:59Z</time>
      </trkpt>
      <trkpt lat="45.90829" lon="6.36547">
        <ele>777.421</ele>
        <time>2013-07-17T05:50:01Z</time>
      </trkpt>
      <trkpt lat="45.90842" lon="6.36563">
        <ele>778.047</ele>
        <time>2013-07-17T05:50:05Z</time>
      </trkpt>
      <trkpt lat="45.90861" lon="6.36603">
        <ele>779.016</ele>
        <time>2013-07-17T05:50:13Z</time>
      </trkpt>
      <trkpt lat="45.90883" lon="6.36656">
        <ele>782.465</ele>
        <time>2013-07-17T05:50:23Z</time>
      </trkpt>
      <trkpt lat="45.90901" lon="6.36696">
        <ele>785.258</ele>
        <time>2013-07-17T05:50:31Z</time>
      </trkpt>
      <trkpt lat="45.90924" lon="6.36748">
        <ele>787.865</ele>
        <time>2013-07-17T05:50:43Z</time>
      </trkpt>
      <trkpt lat="45.9094" lon="6.36788">
        <ele>789.613</ele>
        <time>2013-07-17T05:50:52Z</time>
      </trkpt>
      <trkpt lat="45.9096" lon="6.36832">
        <ele>791.118</ele>
        <time>2013-07-17T05:51:02Z</time>
      </trkpt>
      <trkpt lat="45.90975" lon="6.3688">
        <ele>792.946</ele>
        <time>2013-07-17T05:51:12Z</time>
      </trkpt>
      <trkpt lat="45.90989" lon="6.36943">
        <ele>795.839</ele>
        <time>2013-07-17T05:51:25Z</time>
      </trkpt>
      <trkpt lat="45.91004" lon="6.36998">
        <ele>798.423</ele>
        <time>2013-07-17T05:51:37Z</time>
      </trkpt>
      <trkpt lat="45.91029" lon="6.37067">
        <ele>801.379</ele>
        <time>2013-07-17T05:51:52Z</time>
      </trkpt>
      <trkpt lat="45.91051" lon="6.37123">
        <ele>804.285</ele>
        <time>2013-07-17T05:52:04Z</time>
      </trkpt>
      <trkpt lat="45.91078" lon="6.37171">
        <ele>806.775</ele>
        <time>2013-07-17T05:52:15Z</time>
      </trkpt>
      <trkpt lat="45.91111" lon="6.37214">
        <ele>809.545</ele>
        <time>2013-07-17T05:52:26Z</time>
      </trkpt>
      <trkpt lat="45.91141" lon="6.3725">
        <ele>812.272</ele>
        <time>2013-07-17T05:52:36Z</time>
      </trkpt>
      <trkpt lat="45.91175" lon="6.37286">
        <ele>814.629</ele>
        <time>2013-07-17T05:52:47Z</time>
      </trkpt>
      <trkpt lat="45.91207" lon="6.37317">
        <ele>816.924</ele>
        <time>2013-07-17T05:52:57Z</time>
      </trkpt>
      <trkpt lat="45.91243" lon="6.37342">
        <ele>819.662</ele>
        <time>2013-07-17T05:53:07Z</time>
      </trkpt>
      <trkpt lat="45.91281" lon="6.37361">
        <ele>821.772</ele>
        <time>2013-07-17T05:53:17Z</time>
      </trkpt>
      <trkpt lat="45.91322" lon="6.37381">
        <ele>824.231</ele>
        <time>2013-07-17T05:53:28Z</time>
      </trkpt>
      <trkpt lat="45.91353" lon="6.37406">
        <ele>826.275</ele>
        <time>2013-07-17T05:53:37Z</time>
      </trkpt>
      <trkpt lat="45.91372" lon="6.37435">
        <ele>827.904</ele>
        <time>2013-07-17T05:53:44Z</time>
      </trkpt>
      <trkpt lat="45.91402" lon="6.37494">
        <ele>831.247</ele>
        <time>2013-07-17T05:53:57Z</time>
      </trkpt>
      <trkpt lat="45.91425" lon="6.3754">
        <ele>833.772</ele>
        <time>2013-07-17T05:54:07Z</time>
      </trkpt>
      <trkpt lat="45.9145" lon="6.37582">
        <ele>835.896</ele>
        <time>2013-07-17T05:54:16Z</time>
      </trkpt>
      <trkpt lat="45.91486" lon="6.37621">
        <ele>838.969</ele>
        <time>2013-07-17T05:54:27Z</time>
      </trkpt>
      <trkpt lat="45.91507" lon="6.37656">
        <ele>841.12</ele>
        <time>2013-07-17T05:54:35Z</time>
      </trkpt>
      <trkpt lat="45.91534" lon="6.37707">
        <ele>843.793</ele>
        <time>2013-07-17T05:54:46Z</time>
      </trkpt>
      <trkpt lat="45.9156" lon="6.37742">
        <ele>846.2</ele>
        <time>2013-07-17T05:54:54Z</time>
      </trkpt>
      <trkpt lat="45.91588" lon="6.37777">
        <ele>848.225</ele>
        <time>2013-07-17T05:55:03Z</time>
      </trkpt>
      <trkpt lat="45.9162" lon="6.37817">
        <ele>850.649</ele>
        <time>2013-07-17T05:55:14Z</time>
      </trkpt>
      <trkpt lat="45.91662" lon="6.37867">
        <ele>853.858</ele>
        <time>2013-07-17T05:55:28Z</time>
      </trkpt>
      <trkpt lat="45.91684" lon="6.37899">
        <ele>855.809</ele>
        <time>2013-07-17T05:55:36Z</time>
      </trkpt>
      <trkpt lat="45.9171" lon="6.37949">
        <ele>858.445</ele>
        <time>2013-07-17T05:55:47Z</time>
      </trkpt>
      <trkpt lat="45.9174" lon="6.38004">
        <ele>861.872</ele>
        <time>2013-07-17T05:56:00Z</time>
      </trkpt>
      <trkpt lat="45.91758" lon="6.38039">
        <ele>863.84</ele>
        <time>2013-07-17T05:56:08Z</time>
      </trkpt>
      <trkpt lat="45.91776" lon="6.38084">
        <ele>865.719</ele>
        <time>2013-07-17T05:56:17Z</time>
      </trkpt>
      <trkpt lat="45.91795" lon="6.38143">
        <ele>868.707</ele>
        <time>2013-07-17T05:56:28Z</time>
      </trkpt>
      <trkpt lat="45.91815" lon="6.38183">
        <ele>871.063</ele>
        <time>2013-07-17T05:56:37Z</time>
      </trkpt>
      <trkpt lat="45.91842" lon="6.38224">
        <ele>873.239</ele>
        <time>2013-07-17T05:56:47Z</time>
      </trkpt>
      <trkpt lat="45.91854" lon="6.3826">
        <ele>874.829</ele>
        <time>2013-07-17T05:56:54Z</time>
      </trkpt>
      <trkpt lat="45.91861" lon="6.3831">
        <ele>876.924</ele>
        <time>2013-07-17T05:57:03Z</time>
      </trkpt>
      <trkpt lat="45.91871" lon="6.38377">
        <ele>879.905</ele>
        <time>2013-07-17T05:57:15Z</time>
      </trkpt>
      <trkpt lat="45.91884" lon="6.38414">
        <ele>881.645</ele>
        <time>2013-07-17T05:57:22Z</time>
      </trkpt>
      <trkpt lat="45.91913" lon="6.3847">
        <ele>883.954</ele>
        <time>2013-07-17T05:57:34Z</time>
      </trkpt>
      <trkpt lat="45.91938" lon="6.38515">
        <ele>886.409</ele>
        <time>2013-07-17T05:57:44Z</time>
      </trkpt>
      <trkpt lat="45.91963" lon="6.38566">
        <ele>888.789</ele>
        <time>2013-07-17T05:57:55Z</time>
      </trkpt>
      <trkpt lat="45.91977" lon="6.38616">
        <ele>891.075</ele>
        <time>2013-07-17T05:58:04Z</time>
      </trkpt>
      <trkpt lat="45.91983" lon="6.3867">
        <ele>893.454</ele>
        <time>2013-07-17T05:58:13Z</time>
      </trkpt>
      <trkpt lat="45.91983" lon="6.38717">
        <ele>895.382</ele>
        <time>2013-07-17T05:58:21Z</time>
      </trkpt>
      <trkpt lat="45.91989" lon="6.38759">
        <ele>897.468</ele>
        <time>2013-07-17T05:58:28Z</time>
      </trkpt>
      <trkpt lat="45.92004" lon="6.38795">
        <ele>898.964</ele>
        <time>2013-07-17T05:58:35Z</time>
      </trkpt>
      <trkpt lat="45.92017" lon="6.38825">
        <ele>900.13</ele>
        <time>2013-07-17T05:58:41Z</time>
      </trkpt>
      <trkpt lat="45.92026" lon="6.38865">
        <ele>901.696</ele>
        <time>2013-07-17T05:58:48Z</time>
      </trkpt>
      <trkpt lat="45.92028" lon="6.38915">
        <ele>903.755</ele>
        <time>2013-07-17T05:58:57Z</time>
      </trkpt>
      <trkpt lat="45.92031" lon="6.38972">
        <ele>905.146</ele>
        <time>2013-07-17T05:59:06Z</time>
      </trkpt>
      <trkpt lat="45.92041" lon="6.39045">
        <ele>908.192</ele>
        <time>2013-07-17T05:59:18Z</time>
      </trkpt>
      <trkpt lat="45.92057" lon="6.39122">
        <ele>911.321</ele>
        <time>2013-07-17T05:59:31Z</time>
      </trkpt>
      <trkpt lat="45.92064" lon="6.39177">
        <ele>913.381</ele>
        <time>2013-07-17T05:59:40Z</time>
      </trkpt>
      <trkpt lat="45.9207" lon="6.39211">
        <ele>915.069</ele>
        <time>2013-07-17T05:59:46Z</time>
      </trkpt>
      <trkpt lat="45.92086" lon="6.39268">
        <ele>916.646</ele>
        <time>2013-07-17T05:59:56Z</time>
      </trkpt>
      <trkpt lat="45.921" lon="6.39329">
        <ele>918.472</ele>
        <time>2013-07-17T06:00:06Z</time>
      </trkpt>
      <trkpt lat="45.92108" lon="6.39377">
        <ele>920.248</ele>
        <time>2013-07-17T06:00:14Z</time>
      </trkpt>
      <trkpt lat="45.92119" lon="6.39431">
        <ele>922.832</ele>
        <time>2013-07-17T06:00:23Z</time>
      </trkpt>
      <trkpt lat="45.92121" lon="6.39485">
        <ele>925.251</ele>
        <time>2013-07-17T06:00:32Z</time>
      </trkpt>
      <trkpt lat="45.9213" lon="6.3953">
        <ele>926.961</ele>
        <time>2013-07-17T06:00:40Z</time>
      </trkpt>
      <trkpt lat="45.92131" lon="6.39543">
        <ele>927.272</ele>
        <time>2013-07-17T06:00:42Z</time>
      </trkpt>
      <trkpt lat="45.9213" lon="6.39573">
        <ele>928.321</ele>
        <time>2013-07-17T06:00:47Z</time>
      </trkpt>
      <trkpt lat="45.92127" lon="6.39585">
        <ele>928.883</ele>
        <time>2013-07-17T06:00:49Z</time>
      </trkpt>
      <trkpt lat="45.92115" lon="6.39651">
        <ele>930.932</ele>
        <time>2013-07-17T06:01:00Z</time>
      </trkpt>
      <trkpt lat="45.92104" lon="6.39726">
        <ele>932.709</ele>
        <time>2013-07-17T06:01:11Z</time>
      </trkpt>
      <trkpt lat="45.92105" lon="6.39786">
        <ele>933.736</ele>
        <time>2013-07-17T06:01:19Z</time>
      </trkpt>
      <trkpt lat="45.92114" lon="6.39844">
        <ele>934.842</ele>
        <time>2013-07-17T06:01:27Z</time>
      </trkpt>
      <trkpt lat="45.92129" lon="6.39917">
        <ele>935.998</ele>
        <time>2013-07-17T06:01:37Z</time>
      </trkpt>
      <trkpt lat="45.92139" lon="6.39974">
        <ele>936.784</ele>
        <time>2013-07-17T06:01:45Z</time>
      </trkpt>
      <trkpt lat="45.92143" lon="6.40021">
        <ele>937.633</ele>
        <time>2013-07-17T06:01:51Z</time>
      </trkpt>
      <trkpt lat="45.92137" lon="6.40068">
        <ele>938.283</ele>
        <time>2013-07-17T06:01:57Z</time>
      </trkpt>
      <trkpt lat="45.92128" lon="6.40111">
        <ele>939.111</ele>
        <time>2013-07-17T06:02:03Z</time>
      </trkpt>
      <trkpt lat="45.92122" lon="6.40161">
        <ele>940.503</ele>
        <time>2013-07-17T06:02:10Z</time>
      </trkpt>
      <trkpt lat="45.92126" lon="6.40221">
        <ele>941.241</ele>
        <time>2013-07-17T06:02:18Z</time>
      </trkpt>
      <trkpt lat="45.92128" lon="6.40293">
        <ele>942.572</ele>
        <time>2013-07-17T06:02:27Z</time>
      </trkpt>
      <trkpt lat="45.92131" lon="6.40357">
        <ele>943.212</ele>
        <time>2013-07-17T06:02:35Z</time>
      </trkpt>
      <trkpt lat="45.92143" lon="6.40416">
        <ele>944.736</ele>
        <time>2013-07-17T06:02:43Z</time>
      </trkpt>
      <trkpt lat="45.92158" lon="6.40493">
        <ele>946.45</ele>
        <time>2013-07-17T06:02:54Z</time>
      </trkpt>
      <trkpt lat="45.92169" lon="6.40561">
        <ele>947.449</ele>
        <time>2013-07-17T06:03:04Z</time>
      </trkpt>
      <trkpt lat="45.92173" lon="6.40612">
        <ele>948.903</ele>
        <time>2013-07-17T06:03:11Z</time>
      </trkpt>
      <trkpt lat="45.92178" lon="6.40677">
        <ele>951.055</ele>
        <time>2013-07-17T06:03:20Z</time>
      </trkpt>
      <trkpt lat="45.92187" lon="6.40738">
        <ele>952.791</ele>
        <time>2013-07-17T06:03:29Z</time>
      </trkpt>
      <trkpt lat="45.92192" lon="6.40765">
        <ele>953.325</ele>
        <time>2013-07-17T06:03:33Z</time>
      </trkpt>
      <trkpt lat="45.92207" lon="6.40833">
        <ele>953.749</ele>
        <time>2013-07-17T06:03:42Z</time>
      </trkpt>
      <trkpt lat="45.9222" lon="6.40898">
        <ele>954.067</ele>
        <time>2013-07-17T06:03:50Z</time>
      </trkpt>
      <trkpt lat="45.92238" lon="6.40983">
        <ele>954.843</ele>
        <time>2013-07-17T06:04:00Z</time>
      </trkpt>
      <trkpt lat="45.92248" lon="6.41029">
        <ele>954.8</ele>
        <time>2013-07-17T06:04:06Z</time>
      </trkpt>
      <trkpt lat="45.92248" lon="6.41044">
        <ele>955.194</ele>
        <time>2013-07-17T06:04:08Z</time>
      </trkpt>
      <trkpt lat="45.92257" lon="6.41066">
        <ele>956.416</ele>
        <time>2013-07-17T06:04:12Z</time>
      </trkpt>
      <trkpt lat="45.92271" lon="6.41058">
        <ele>957.149</ele>
        <time>2013-07-17T06:04:15Z</time>
      </trkpt>
      <trkpt lat="45.92281" lon="6.4105">
        <ele>957.019</ele>
        <time>2013-07-17T06:04:17Z</time>
      </trkpt>
      <trkpt lat="45.92325" lon="6.41026">
        <ele>956.568</ele>
        <time>2013-07-17T06:04:24Z</time>
      </trkpt>
      <trkpt lat="45.92377" lon="6.41001">
        <ele>955.612</ele>
        <time>2013-07-17T06:04:32Z</time>
      </trkpt>
      <trkpt lat="45.92411" lon="6.40975">
        <ele>954.576</ele>
        <time>2013-07-17T06:04:37Z</time>
      </trkpt>
      <trkpt lat="45.9244" lon="6.40951">
        <ele>953.516</ele>
        <time>2013-07-17T06:04:41Z</time>
      </trkpt>
      <trkpt lat="45.92477" lon="6.40943">
        <ele>951.872</ele>
        <time>2013-07-17T06:04:45Z</time>
      </trkpt>
      <trkpt lat="45.92506" lon="6.40958">
        <ele>950.303</ele>
        <time>2013-07-17T06:04:48Z</time>
      </trkpt>
      <trkpt lat="45.92522" lon="6.40978">
        <ele>948.936</ele>
        <time>2013-07-17T06:04:50Z</time>
      </trkpt>
      <trkpt lat="45.9258" lon="6.4108">
        <ele>944.121</ele>
        <time>2013-07-17T06:04:58Z</time>
      </trkpt>
      <trkpt lat="45.92606" lon="6.41138">
        <ele>941.631</ele>
        <time>2013-07-17T06:05:02Z</time>
      </trkpt>
      <trkpt lat="45.92645" lon="6.41176">
        <ele>939.208</ele>
        <time>2013-07-17T06:05:06Z</time>
      </trkpt>
      <trkpt lat="45.92752" lon="6.41217">
        <ele>933.015</ele>
        <time>2013-07-17T06:05:15Z</time>
      </trkpt>
      <trkpt lat="45.928" lon="6.41221">
        <ele>929.764</ele>
        <time>2013-07-17T06:05:19Z</time>
      </trkpt>
      <trkpt lat="45.92873" lon="6.41224">
        <ele>925.223</ele>
        <time>2013-07-17T06:05:25Z</time>
      </trkpt>
      <trkpt lat="45.92922" lon="6.41222">
        <ele>921.856</ele>
        <time>2013-07-17T06:05:29Z</time>
      </trkpt>
      <trkpt lat="45.92945" lon="6.41213">
        <ele>919.003</ele>
        <time>2013-07-17T06:05:32Z</time>
      </trkpt>
      <trkpt lat="45.92952" lon="6.41185">
        <ele>916.279</ele>
        <time>2013-07-17T06:05:36Z</time>
      </trkpt>
      <trkpt lat="45.92941" lon="6.41157">
        <ele>915.337</ele>
        <time>2013-07-17T06:05:39Z</time>
      </trkpt>
      <trkpt lat="45.92918" lon="6.41143">
        <ele>914.43</ele>
        <time>2013-07-17T06:05:42Z</time>
      </trkpt>
      <trkpt lat="45.92901" lon="6.41146">
        <ele>913.94</ele>
        <time>2013-07-17T06:05:44Z</time>
      </trkpt>
      <trkpt lat="45.92873" lon="6.41157">
        <ele>912.831</ele>
        <time>2013-07-17T06:05:47Z</time>
      </trkpt>
      <trkpt lat="45.92833" lon="6.41155">
        <ele>911.213</ele>
        <time>2013-07-17T06:05:51Z</time>
      </trkpt>
      <trkpt lat="45.92803" lon="6.41134">
        <ele>909.692</ele>
        <time>2013-07-17T06:05:54Z</time>
      </trkpt>
      <trkpt lat="45.92787" lon="6.41112">
        <ele>908.575</ele>
        <time>2013-07-17T06:05:56Z</time>
      </trkpt>
      <trkpt lat="45.92734" lon="6.4102">
        <ele>904.733</ele>
        <time>2013-07-17T06:06:03Z</time>
      </trkpt>
      <trkpt lat="45.92724" lon="6.40967">
        <ele>902.578</ele>
        <time>2013-07-17T06:06:06Z</time>
      </trkpt>
      <trkpt lat="45.92729" lon="6.40931">
        <ele>901.267</ele>
        <time>2013-07-17T06:06:08Z</time>
      </trkpt>
      <trkpt lat="45.92782" lon="6.40769">
        <ele>894.114</ele>
        <time>2013-07-17T06:06:18Z</time>
      </trkpt>
      <trkpt lat="45.92835" lon="6.40647">
        <ele>888.383</ele>
        <time>2013-07-17T06:06:26Z</time>
      </trkpt>
      <trkpt lat="45.92862" lon="6.40588">
        <ele>885.732</ele>
        <time>2013-07-17T06:06:30Z</time>
      </trkpt>
      <trkpt lat="45.92899" lon="6.40541">
        <ele>883.017</ele>
        <time>2013-07-17T06:06:34Z</time>
      </trkpt>
      <trkpt lat="45.92934" lon="6.40522">
        <ele>880.27</ele>
        <time>2013-07-17T06:06:37Z</time>
      </trkpt>
      <trkpt lat="45.92958" lon="6.40517">
        <ele>878.642</ele>
        <time>2013-07-17T06:06:39Z</time>
      </trkpt>
      <trkpt lat="45.93081" lon="6.40508">
        <ele>871.852</ele>
        <time>2013-07-17T06:06:49Z</time>
      </trkpt>
      <trkpt lat="45.93105" lon="6.40505">
        <ele>870.362</ele>
        <time>2013-07-17T06:06:51Z</time>
      </trkpt>
      <trkpt lat="45.93137" lon="6.40484">
        <ele>868.304</ele>
        <time>2013-07-17T06:06:54Z</time>
      </trkpt>
      <trkpt lat="45.93151" lon="6.40457">
        <ele>866.623</ele>
        <time>2013-07-17T06:06:56Z</time>
      </trkpt>
      <trkpt lat="45.93202" lon="6.40322">
        <ele>861.476</ele>
        <time>2013-07-17T06:07:05Z</time>
      </trkpt>
      <trkpt lat="45.93245" lon="6.40259">
        <ele>858.601</ele>
        <time>2013-07-17T06:07:10Z</time>
      </trkpt>
      <trkpt lat="45.9327" lon="6.40222">
        <ele>857.174</ele>
        <time>2013-07-17T06:07:13Z</time>
      </trkpt>
      <trkpt lat="45.93315" lon="6.40145">
        <ele>855.022</ele>
        <time>2013-07-17T06:07:19Z</time>
      </trkpt>
      <trkpt lat="45.93351" lon="6.40106">
        <ele>853.935</ele>
        <time>2013-07-17T06:07:23Z</time>
      </trkpt>
      <trkpt lat="45.93403" lon="6.40071">
        <ele>852.85</ele>
        <time>2013-07-17T06:07:28Z</time>
      </trkpt>
      <trkpt lat="45.93452" lon="6.40024">
        <ele>851.709</ele>
        <time>2013-07-17T06:07:33Z</time>
      </trkpt>
      <trkpt lat="45.93495" lon="6.40011">
        <ele>850.586</ele>
        <time>2013-07-17T06:07:37Z</time>
      </trkpt>
      <trkpt lat="45.93551" lon="6.40029">
        <ele>849.445</ele>
        <time>2013-07-17T06:07:42Z</time>
      </trkpt>
      <trkpt lat="45.93571" lon="6.40035">
        <ele>849.349</ele>
        <time>2013-07-17T06:07:44Z</time>
      </trkpt>
      <trkpt lat="45.93632" lon="6.40033">
        <ele>848.191</ele>
        <time>2013-07-17T06:07:50Z</time>
      </trkpt>
      <trkpt lat="45.9365" lon="6.40033">
        <ele>847.588</ele>
        <time>2013-07-17T06:07:52Z</time>
      </trkpt>
      <trkpt lat="45.93688" lon="6.40048">
        <ele>846.164</ele>
        <time>2013-07-17T06:07:56Z</time>
      </trkpt>
      <trkpt lat="45.93718" lon="6.40066">
        <ele>845.644</ele>
        <time>2013-07-17T06:07:59Z</time>
      </trkpt>
      <trkpt lat="45.93749" lon="6.40073">
        <ele>845.022</ele>
        <time>2013-07-17T06:08:02Z</time>
      </trkpt>
      <trkpt lat="45.93788" lon="6.40097">
        <ele>843.685</ele>
        <time>2013-07-17T06:08:06Z</time>
      </trkpt>
      <trkpt lat="45.93802" lon="6.40121">
        <ele>842.818</ele>
        <time>2013-07-17T06:08:08Z</time>
      </trkpt>
      <trkpt lat="45.93814" lon="6.40148">
        <ele>842.102</ele>
        <time>2013-07-17T06:08:10Z</time>
      </trkpt>
      <trkpt lat="45.93984" lon="6.40175">
        <ele>836.347</ele>
        <time>2013-07-17T06:08:27Z</time>
      </trkpt>
      <trkpt lat="45.94025" lon="6.40193">
        <ele>835.283</ele>
        <time>2013-07-17T06:08:31Z</time>
      </trkpt>
      <trkpt lat="45.94055" lon="6.40206">
        <ele>834.123</ele>
        <time>2013-07-17T06:08:34Z</time>
      </trkpt>
      <trkpt lat="45.94095" lon="6.40237">
        <ele>832.441</ele>
        <time>2013-07-17T06:08:38Z</time>
      </trkpt>
      <trkpt lat="45.94153" lon="6.40285">
        <ele>830.288</ele>
        <time>2013-07-17T06:08:45Z</time>
      </trkpt>
      <trkpt lat="45.94311" lon="6.40308">
        <ele>825.339</ele>
        <time>2013-07-17T06:08:59Z</time>
      </trkpt>
      <trkpt lat="45.94354" lon="6.40297">
        <ele>824.413</ele>
        <time>2013-07-17T06:09:03Z</time>
      </trkpt>
      <trkpt lat="45.94395" lon="6.40279">
        <ele>823.511</ele>
        <time>2013-07-17T06:09:07Z</time>
      </trkpt>
      <trkpt lat="45.94479" lon="6.40212">
        <ele>820.347</ele>
        <time>2013-07-17T06:09:16Z</time>
      </trkpt>
      <trkpt lat="45.94526" lon="6.40176">
        <ele>818.813</ele>
        <time>2013-07-17T06:09:21Z</time>
      </trkpt>
      <trkpt lat="45.94562" lon="6.40144">
        <ele>817.156</ele>
        <time>2013-07-17T06:09:25Z</time>
      </trkpt>
      <trkpt lat="45.94628" lon="6.40088">
        <ele>814.931</ele>
        <time>2013-07-17T06:09:32Z</time>
      </trkpt>
      <trkpt lat="45.94672" lon="6.40044">
        <ele>813.378</ele>
        <time>2013-07-17T06:09:37Z</time>
      </trkpt>
      <trkpt lat="45.94733" lon="6.39961">
        <ele>811.532</ele>
        <time>2013-07-17T06:09:45Z</time>
      </trkpt>
      <trkpt lat="45.94808" lon="6.39861">
        <ele>809.415</ele>
        <time>2013-07-17T06:09:55Z</time>
      </trkpt>
      <trkpt lat="45.94874" lon="6.39775">
        <ele>807.108</ele>
        <time>2013-07-17T06:10:04Z</time>
      </trkpt>
      <trkpt lat="45.94922" lon="6.39731">
        <ele>805.458</ele>
        <time>2013-07-17T06:10:10Z</time>
      </trkpt>
      <trkpt lat="45.94978" lon="6.39685">
        <ele>804.21</ele>
        <time>2013-07-17T06:10:17Z</time>
      </trkpt>
      <trkpt lat="45.9501" lon="6.39639">
        <ele>803.168</ele>
        <time>2013-07-17T06:10:22Z</time>
      </trkpt>
      <trkpt lat="45.95018" lon="6.39615">
        <ele>802.591</ele>
        <time>2013-07-17T06:10:24Z</time>
      </trkpt>
      <trkpt lat="45.95044" lon="6.39532">
        <ele>801.723</ele>
        <time>2013-07-17T06:10:31Z</time>
      </trkpt>
      <trkpt lat="45.9507" lon="6.39476">
        <ele>800.887</ele>
        <time>2013-07-17T06:10:36Z</time>
      </trkpt>
      <trkpt lat="45.95118" lon="6.39382">
        <ele>799.189</ele>
        <time>2013-07-17T06:10:45Z</time>
      </trkpt>
      <trkpt lat="45.95167" lon="6.39289">
        <ele>797.69</ele>
        <time>2013-07-17T06:10:54Z</time>
      </trkpt>
      <trkpt lat="45.95216" lon="6.39197">
        <ele>796.473</ele>
        <time>2013-07-17T06:11:03Z</time>
      </trkpt>
      <trkpt lat="45.95258" lon="6.39114">
        <ele>794.722</ele>
        <time>2013-07-17T06:11:11Z</time>
      </trkpt>
      <trkpt lat="45.95299" lon="6.39048">
        <ele>793.338</ele>
        <time>2013-07-17T06:11:18Z</time>
      </trkpt>
      <trkpt lat="45.95331" lon="6.39024">
        <ele>792.485</ele>
        <time>2013-07-17T06:11:22Z</time>
      </trkpt>
      <trkpt lat="45.95349" lon="6.39018">
        <ele>791.65</ele>
        <time>2013-07-17T06:11:24Z</time>
      </trkpt>
      <trkpt lat="45.95407" lon="6.39017">
        <ele>789.68</ele>
        <time>2013-07-17T06:11:30Z</time>
      </trkpt>
      <trkpt lat="45.95446" lon="6.39012">
        <ele>788.291</ele>
        <time>2013-07-17T06:11:34Z</time>
      </trkpt>
      <trkpt lat="45.9549" lon="6.38982">
        <ele>786.85</ele>
        <time>2013-07-17T06:11:39Z</time>
      </trkpt>
      <trkpt lat="45.95497" lon="6.38974">
        <ele>786.578</ele>
        <time>2013-07-17T06:11:40Z</time>
      </trkpt>
      <trkpt lat="45.95553" lon="6.389">
        <ele>784.265</ele>
        <time>2013-07-17T06:11:48Z</time>
      </trkpt>
      <trkpt lat="45.95604" lon="6.38863">
        <ele>783.026</ele>
        <time>2013-07-17T06:11:54Z</time>
      </trkpt>
      <trkpt lat="45.95666" lon="6.38831">
        <ele>781.229</ele>
        <time>2013-07-17T06:12:01Z</time>
      </trkpt>
      <trkpt lat="45.95721" lon="6.3881">
        <ele>780.326</ele>
        <time>2013-07-17T06:12:07Z</time>
      </trkpt>
      <trkpt lat="45.95785" lon="6.388">
        <ele>779.214</ele>
        <time>2013-07-17T06:12:14Z</time>
      </trkpt>
      <trkpt lat="45.95848" lon="6.38783">
        <ele>777.783</ele>
        <time>2013-07-17T06:12:21Z</time>
      </trkpt>
      <trkpt lat="45.95857" lon="6.3878">
        <ele>777.592</ele>
        <time>2013-07-17T06:12:22Z</time>
      </trkpt>
      <trkpt lat="45.95895" lon="6.38769">
        <ele>777.141</ele>
        <time>2013-07-17T06:12:26Z</time>
      </trkpt>
      <trkpt lat="45.95965" lon="6.38749">
        <ele>776.031</ele>
        <time>2013-07-17T06:12:34Z</time>
      </trkpt>
      <trkpt lat="45.95997" lon="6.38734">
        <ele>775.436</ele>
        <time>2013-07-17T06:12:38Z</time>
      </trkpt>
      <trkpt lat="45.96053" lon="6.38698">
        <ele>772.757</ele>
        <time>2013-07-17T06:12:45Z</time>
      </trkpt>
      <trkpt lat="45.96111" lon="6.38665">
        <ele>773.294</ele>
        <time>2013-07-17T06:12:52Z</time>
      </trkpt>
      <trkpt lat="45.96168" lon="6.38626">
        <ele>772.475</ele>
        <time>2013-07-17T06:12:59Z</time>
      </trkpt>
      <trkpt lat="45.96233" lon="6.38589">
        <ele>771.291</ele>
        <time>2013-07-17T06:13:07Z</time>
      </trkpt>
      <trkpt lat="45.96276" lon="6.38587">
        <ele>770.846</ele>
        <time>2013-07-17T06:13:12Z</time>
      </trkpt>
      <trkpt lat="45.96348" lon="6.38602">
        <ele>769.894</ele>
        <time>2013-07-17T06:13:20Z</time>
      </trkpt>
      <trkpt lat="45.96391" lon="6.38621">
        <ele>769.286</ele>
        <time>2013-07-17T06:13:25Z</time>
      </trkpt>
      <trkpt lat="45.96408" lon="6.38624">
        <ele>769.133</ele>
        <time>2013-07-17T06:13:27Z</time>
      </trkpt>
      <trkpt lat="45.96443" lon="6.38616">
        <ele>768.389</ele>
        <time>2013-07-17T06:13:31Z</time>
      </trkpt>
      <trkpt lat="45.96494" lon="6.38587">
        <ele>766.983</ele>
        <time>2013-07-17T06:13:37Z</time>
      </trkpt>
      <trkpt lat="45.96556" lon="6.38554">
        <ele>766.258</ele>
        <time>2013-07-17T06:13:44Z</time>
      </trkpt>
      <trkpt lat="45.96603" lon="6.38537">
        <ele>765.492</ele>
        <time>2013-07-17T06:13:49Z</time>
      </trkpt>
      <trkpt lat="45.9666" lon="6.38534">
        <ele>764.631</ele>
        <time>2013-07-17T06:13:55Z</time>
      </trkpt>
      <trkpt lat="45.96717" lon="6.3854">
        <ele>763.497</ele>
        <time>2013-07-17T06:14:01Z</time>
      </trkpt>
      <trkpt lat="45.96765" lon="6.38532">
        <ele>762.506</ele>
        <time>2013-07-17T06:14:06Z</time>
      </trkpt>
      <trkpt lat="45.96841" lon="6.38496">
        <ele>761.186</ele>
        <time>2013-07-17T06:14:14Z</time>
      </trkpt>
      <trkpt lat="45.96942" lon="6.38447">
        <ele>759.665</ele>
        <time>2013-07-17T06:14:25Z</time>
      </trkpt>
      <trkpt lat="45.9698" lon="6.38446">
        <ele>759.065</ele>
        <time>2013-07-17T06:14:29Z</time>
      </trkpt>
      <trkpt lat="45.96989" lon="6.3845">
        <ele>758.915</ele>
        <time>2013-07-17T06:14:30Z</time>
      </trkpt>
      <trkpt lat="45.97058" lon="6.38491">
        <ele>758.002</ele>
        <time>2013-07-17T06:14:38Z</time>
      </trkpt>
      <trkpt lat="45.97103" lon="6.38494">
        <ele>757.551</ele>
        <time>2013-07-17T06:14:43Z</time>
      </trkpt>
      <trkpt lat="45.97175" lon="6.38474">
        <ele>756.15</ele>
        <time>2013-07-17T06:14:51Z</time>
      </trkpt>
      <trkpt lat="45.97253" lon="6.38448">
        <ele>755.027</ele>
        <time>2013-07-17T06:15:00Z</time>
      </trkpt>
      <trkpt lat="45.97295" lon="6.38431">
        <ele>754.194</ele>
        <time>2013-07-17T06:15:05Z</time>
      </trkpt>
      <trkpt lat="45.97327" lon="6.38437">
        <ele>752.995</ele>
        <time>2013-07-17T06:15:09Z</time>
      </trkpt>
      <trkpt lat="45.97341" lon="6.38452">
        <ele>752.693</ele>
        <time>2013-07-17T06:15:11Z</time>
      </trkpt>
      <trkpt lat="45.97379" lon="6.38509">
        <ele>753.682</ele>
        <time>2013-07-17T06:15:17Z</time>
      </trkpt>
      <trkpt lat="45.97414" lon="6.38561">
        <ele>753.272</ele>
        <time>2013-07-17T06:15:23Z</time>
      </trkpt>
      <trkpt lat="45.97446" lon="6.38617">
        <ele>752.844</ele>
        <time>2013-07-17T06:15:29Z</time>
      </trkpt>
      <trkpt lat="45.97468" lon="6.3865">
        <ele>752.613</ele>
        <time>2013-07-17T06:15:33Z</time>
      </trkpt>
      <trkpt lat="45.97497" lon="6.38669">
        <ele>752.37</ele>
        <time>2013-07-17T06:15:37Z</time>
      </trkpt>
      <trkpt lat="45.97505" lon="6.38671">
        <ele>752.212</ele>
        <time>2013-07-17T06:15:38Z</time>
      </trkpt>
      <trkpt lat="45.97575" lon="6.38685">
        <ele>750.496</ele>
        <time>2013-07-17T06:15:46Z</time>
      </trkpt>
      <trkpt lat="45.97622" lon="6.38694">
        <ele>749.209</ele>
        <time>2013-07-17T06:15:51Z</time>
      </trkpt>
      <trkpt lat="45.97688" lon="6.38706">
        <ele>747.178</ele>
        <time>2013-07-17T06:15:58Z</time>
      </trkpt>
      <trkpt lat="45.97733" lon="6.38726">
        <ele>745.59</ele>
        <time>2013-07-17T06:16:03Z</time>
      </trkpt>
      <trkpt lat="45.97771" lon="6.38734">
        <ele>744.217</ele>
        <time>2013-07-17T06:16:07Z</time>
      </trkpt>
      <trkpt lat="45.97788" lon="6.38729">
        <ele>743.64</ele>
        <time>2013-07-17T06:16:09Z</time>
      </trkpt>
      <trkpt lat="45.97818" lon="6.38717">
        <ele>742.928</ele>
        <time>2013-07-17T06:16:12Z</time>
      </trkpt>
      <trkpt lat="45.97869" lon="6.38719">
        <ele>741.169</ele>
        <time>2013-07-17T06:16:17Z</time>
      </trkpt>
      <trkpt lat="45.97879" lon="6.3872">
        <ele>740.868</ele>
        <time>2013-07-17T06:16:18Z</time>
      </trkpt>
      <trkpt lat="45.97941" lon="6.3873">
        <ele>739.155</ele>
        <time>2013-07-17T06:16:24Z</time>
      </trkpt>
      <trkpt lat="45.98003" lon="6.38737">
        <ele>737.129</ele>
        <time>2013-07-17T06:16:30Z</time>
      </trkpt>
      <trkpt lat="45.98085" lon="6.38745">
        <ele>735.184</ele>
        <time>2013-07-17T06:16:38Z</time>
      </trkpt>
      <trkpt lat="45.98163" lon="6.38744">
        <ele>733.872</ele>
        <time>2013-07-17T06:16:46Z</time>
      </trkpt>
      <trkpt lat="45.98226" lon="6.38734">
        <ele>732.625</ele>
        <time>2013-07-17T06:16:53Z</time>
      </trkpt>
      <trkpt lat="45.98242" lon="6.38732">
        <ele>732.078</ele>
        <time>2013-07-17T06:16:55Z</time>
      </trkpt>
      <trkpt lat="45.98285" lon="6.38743">
        <ele>732.865</ele>
        <time>2013-07-17T06:17:00Z</time>
      </trkpt>
      <trkpt lat="45.98341" lon="6.38761">
        <ele>733.084</ele>
        <time>2013-07-17T06:17:07Z</time>
      </trkpt>
      <trkpt lat="45.98389" lon="6.38766">
        <ele>732.041</ele>
        <time>2013-07-17T06:17:13Z</time>
      </trkpt>
      <trkpt lat="45.98403" lon="6.38753">
        <ele>731.117</ele>
        <time>2013-07-17T06:17:16Z</time>
      </trkpt>
      <trkpt lat="45.98403" lon="6.38736">
        <ele>730.706</ele>
        <time>2013-07-17T06:17:18Z</time>
      </trkpt>
      <trkpt lat="45.9841" lon="6.38686">
        <ele>729.977</ele>
        <time>2013-07-17T06:17:23Z</time>
      </trkpt>
      <trkpt lat="45.98425" lon="6.38678">
        <ele>729.044</ele>
        <time>2013-07-17T06:17:25Z</time>
      </trkpt>
      <trkpt lat="45.98451" lon="6.38687">
        <ele>727.93</ele>
        <time>2013-07-17T06:17:28Z</time>
      </trkpt>
      <trkpt lat="45.98513" lon="6.38729">
        <ele>727.018</ele>
        <time>2013-07-17T06:17:36Z</time>
      </trkpt>
      <trkpt lat="45.98535" lon="6.38746">
        <ele>726.635</ele>
        <time>2013-07-17T06:17:39Z</time>
      </trkpt>
      <trkpt lat="45.98571" lon="6.38799">
        <ele>726.068</ele>
        <time>2013-07-17T06:17:45Z</time>
      </trkpt>
      <trkpt lat="45.98601" lon="6.38863">
        <ele>725.101</ele>
        <time>2013-07-17T06:17:51Z</time>
      </trkpt>
      <trkpt lat="45.98633" lon="6.38918">
        <ele>724.546</ele>
        <time>2013-07-17T06:17:57Z</time>
      </trkpt>
      <trkpt lat="45.98647" lon="6.38945">
        <ele>724.209</ele>
        <time>2013-07-17T06:18:00Z</time>
      </trkpt>
      <trkpt lat="45.98686" lon="6.38988">
        <ele>723.314</ele>
        <time>2013-07-17T06:18:06Z</time>
      </trkpt>
      <trkpt lat="45.98742" lon="6.39037">
        <ele>722.422</ele>
        <time>2013-07-17T06:18:14Z</time>
      </trkpt>
      <trkpt lat="45.98749" lon="6.39042">
        <ele>722.404</ele>
        <time>2013-07-17T06:18:15Z</time>
      </trkpt>
      <trkpt lat="45.98756" lon="6.39046">
        <ele>722.473</ele>
        <time>2013-07-17T06:18:16Z</time>
      </trkpt>
      <trkpt lat="45.98756" lon="6.39046">
        <ele>722.473</ele>
        <time>2013-07-17T06:18:16Z</time>
      </trkpt>
      <trkpt lat="45.98794" lon="6.39057">
        <ele>723.179</ele>
        <time>2013-07-17T06:18:22Z</time>
      </trkpt>
      <trkpt lat="45.9881" lon="6.39062">
        <ele>723.892</ele>
        <time>2013-07-17T06:18:25Z</time>
      </trkpt>
      <trkpt lat="45.98834" lon="6.3908">
        <ele>726.691</ele>
        <time>2013-07-17T06:18:31Z</time>
      </trkpt>
      <trkpt lat="45.98855" lon="6.39108">
        <ele>729.207</ele>
        <time>2013-07-17T06:18:39Z</time>
      </trkpt>
      <trkpt lat="45.98863" lon="6.39132">
        <ele>731.206</ele>
        <time>2013-07-17T06:18:45Z</time>
      </trkpt>
      <trkpt lat="45.98877" lon="6.3915">
        <ele>732.741</ele>
        <time>2013-07-17T06:18:51Z</time>
      </trkpt>
      <trkpt lat="45.98896" lon="6.39154">
        <ele>735.105</ele>
        <time>2013-07-17T06:18:57Z</time>
      </trkpt>
      <trkpt lat="45.98916" lon="6.39147">
        <ele>737.642</ele>
        <time>2013-07-17T06:19:04Z</time>
      </trkpt>
      <trkpt lat="45.98937" lon="6.39135">
        <ele>740.104</ele>
        <time>2013-07-17T06:19:11Z</time>
      </trkpt>
      <trkpt lat="45.98957" lon="6.39135">
        <ele>741.894</ele>
        <time>2013-07-17T06:19:17Z</time>
      </trkpt>
      <trkpt lat="45.98981" lon="6.3914">
        <ele>744.693</ele>
        <time>2013-07-17T06:19:24Z</time>
      </trkpt>
      <trkpt lat="45.98998" lon="6.39133">
        <ele>746.488</ele>
        <time>2013-07-17T06:19:30Z</time>
      </trkpt>
      <trkpt lat="45.99005" lon="6.3912">
        <ele>747.731</ele>
        <time>2013-07-17T06:19:34Z</time>
      </trkpt>
      <trkpt lat="45.98997" lon="6.39101">
        <ele>748.901</ele>
        <time>2013-07-17T06:19:39Z</time>
      </trkpt>
      <trkpt lat="45.98987" lon="6.39096">
        <ele>749.4</ele>
        <time>2013-07-17T06:19:42Z</time>
      </trkpt>
      <trkpt lat="45.98956" lon="6.39083">
        <ele>751.9</ele>
        <time>2013-07-17T06:19:52Z</time>
      </trkpt>
      <trkpt lat="45.98939" lon="6.39066">
        <ele>753.643</ele>
        <time>2013-07-17T06:19:59Z</time>
      </trkpt>
      <trkpt lat="45.98923" lon="6.39041">
        <ele>755.927</ele>
        <time>2013-07-17T06:20:07Z</time>
      </trkpt>
      <trkpt lat="45.98905" lon="6.39015">
        <ele>758.643</ele>
        <time>2013-07-17T06:20:17Z</time>
      </trkpt>
      <trkpt lat="45.98883" lon="6.38992">
        <ele>761.708</ele>
        <time>2013-07-17T06:20:28Z</time>
      </trkpt>
      <trkpt lat="45.98862" lon="6.38968">
        <ele>764.069</ele>
        <time>2013-07-17T06:20:38Z</time>
      </trkpt>
      <trkpt lat="45.98848" lon="6.38938">
        <ele>765.286</ele>
        <time>2013-07-17T06:20:46Z</time>
      </trkpt>
      <trkpt lat="45.98828" lon="6.38895">
        <ele>767.524</ele>
        <time>2013-07-17T06:20:57Z</time>
      </trkpt>
      <trkpt lat="45.98814" lon="6.38875">
        <ele>768.595</ele>
        <time>2013-07-17T06:21:03Z</time>
      </trkpt>
      <trkpt lat="45.98795" lon="6.38863">
        <ele>770.846</ele>
        <time>2013-07-17T06:21:10Z</time>
      </trkpt>
      <trkpt lat="45.98786" lon="6.38849">
        <ele>772.662</ele>
        <time>2013-07-17T06:21:15Z</time>
      </trkpt>
      <trkpt lat="45.9879" lon="6.38838">
        <ele>773.815</ele>
        <time>2013-07-17T06:21:19Z</time>
      </trkpt>
      <trkpt lat="45.98802" lon="6.38834">
        <ele>775.659</ele>
        <time>2013-07-17T06:21:24Z</time>
      </trkpt>
      <trkpt lat="45.98818" lon="6.38845">
        <ele>777.442</ele>
        <time>2013-07-17T06:21:31Z</time>
      </trkpt>
      <trkpt lat="45.9884" lon="6.38863">
        <ele>780.061</ele>
        <time>2013-07-17T06:21:41Z</time>
      </trkpt>
      <trkpt lat="45.98862" lon="6.3888">
        <ele>782.57</ele>
        <time>2013-07-17T06:21:51Z</time>
      </trkpt>
      <trkpt lat="45.98883" lon="6.38898">
        <ele>785.286</ele>
        <time>2013-07-17T06:22:01Z</time>
      </trkpt>
      <trkpt lat="45.98907" lon="6.38924">
        <ele>788.57</ele>
        <time>2013-07-17T06:22:13Z</time>
      </trkpt>
      <trkpt lat="45.98922" lon="6.38946">
        <ele>790.967</ele>
        <time>2013-07-17T06:22:22Z</time>
      </trkpt>
      <trkpt lat="45.98935" lon="6.38965">
        <ele>793.215</ele>
        <time>2013-07-17T06:22:29Z</time>
      </trkpt>
      <trkpt lat="45.98948" lon="6.3898">
        <ele>795.292</ele>
        <time>2013-07-17T06:22:36Z</time>
      </trkpt>
      <trkpt lat="45.9896" lon="6.38985">
        <ele>797.086</ele>
        <time>2013-07-17T06:22:42Z</time>
      </trkpt>
      <trkpt lat="45.98969" lon="6.38981">
        <ele>798.354</ele>
        <time>2013-07-17T06:22:46Z</time>
      </trkpt>
      <trkpt lat="45.98978" lon="6.38962">
        <ele>800.11</ele>
        <time>2013-07-17T06:22:53Z</time>
      </trkpt>
      <trkpt lat="45.98976" lon="6.3894">
        <ele>801.546</ele>
        <time>2013-07-17T06:22:59Z</time>
      </trkpt>
      <trkpt lat="45.98962" lon="6.38918">
        <ele>802.52</ele>
        <time>2013-07-17T06:23:06Z</time>
      </trkpt>
      <trkpt lat="45.98939" lon="6.38893">
        <ele>802.892</ele>
        <time>2013-07-17T06:23:13Z</time>
      </trkpt>
      <trkpt lat="45.98907" lon="6.38857">
        <ele>804.3</ele>
        <time>2013-07-17T06:23:23Z</time>
      </trkpt>
      <trkpt lat="45.98893" lon="6.38838">
        <ele>805.726</ele>
        <time>2013-07-17T06:23:29Z</time>
      </trkpt>
      <trkpt lat="45.98875" lon="6.38815">
        <ele>808.139</ele>
        <time>2013-07-17T06:23:38Z</time>
      </trkpt>
      <trkpt lat="45.9886" lon="6.38799">
        <ele>810.029</ele>
        <time>2013-07-17T06:23:45Z</time>
      </trkpt>
      <trkpt lat="45.98843" lon="6.38777">
        <ele>812.292</ele>
        <time>2013-07-17T06:23:54Z</time>
      </trkpt>
      <trkpt lat="45.98831" lon="6.38759">
        <ele>814.048</ele>
        <time>2013-07-17T06:24:01Z</time>
      </trkpt>
      <trkpt lat="45.98814" lon="6.38737">
        <ele>816.061</ele>
        <time>2013-07-17T06:24:10Z</time>
      </trkpt>
      <trkpt lat="45.98796" lon="6.38714">
        <ele>818.193</ele>
        <time>2013-07-17T06:24:19Z</time>
      </trkpt>
      <trkpt lat="45.98783" lon="6.38694">
        <ele>819.851</ele>
        <time>2013-07-17T06:24:26Z</time>
      </trkpt>
      <trkpt lat="45.98773" lon="6.38678">
        <ele>821.595</ele>
        <time>2013-07-17T06:24:32Z</time>
      </trkpt>
      <trkpt lat="45.98759" lon="6.38655">
        <ele>823.507</ele>
        <time>2013-07-17T06:24:40Z</time>
      </trkpt>
      <trkpt lat="45.98749" lon="6.38639">
        <ele>825.043</ele>
        <time>2013-07-17T06:24:46Z</time>
      </trkpt>
      <trkpt lat="45.98735" lon="6.38614">
        <ele>826.959</ele>
        <time>2013-07-17T06:24:54Z</time>
      </trkpt>
      <trkpt lat="45.98722" lon="6.38588">
        <ele>829.266</ele>
        <time>2013-07-17T06:25:03Z</time>
      </trkpt>
      <trkpt lat="45.98712" lon="6.38567">
        <ele>831.127</ele>
        <time>2013-07-17T06:25:10Z</time>
      </trkpt>
      <trkpt lat="45.98701" lon="6.38542">
        <ele>833.305</ele>
        <time>2013-07-17T06:25:18Z</time>
      </trkpt>
      <trkpt lat="45.98688" lon="6.38511">
        <ele>835.889</ele>
        <time>2013-07-17T06:25:28Z</time>
      </trkpt>
      <trkpt lat="45.98674" lon="6.38486">
        <ele>838.543</ele>
        <time>2013-07-17T06:25:37Z</time>
      </trkpt>
      <trkpt lat="45.98662" lon="6.38465">
        <ele>840.501</ele>
        <time>2013-07-17T06:25:45Z</time>
      </trkpt>
      <trkpt lat="45.98655" lon="6.38452">
        <ele>841.876</ele>
        <time>2013-07-17T06:25:50Z</time>
      </trkpt>
      <trkpt lat="45.98641" lon="6.38429">
        <ele>843.757</ele>
        <time>2013-07-17T06:25:58Z</time>
      </trkpt>
      <trkpt lat="45.98625" lon="6.38416">
        <ele>845.444</ele>
        <time>2013-07-17T06:26:05Z</time>
      </trkpt>
      <trkpt lat="45.98615" lon="6.38416">
        <ele>846.705</ele>
        <time>2013-07-17T06:26:10Z</time>
      </trkpt>
      <trkpt lat="45.98603" lon="6.38413">
        <ele>848.07</ele>
        <time>2013-07-17T06:26:15Z</time>
      </trkpt>
      <trkpt lat="45.98585" lon="6.38403">
        <ele>850.096</ele>
        <time>2013-07-17T06:26:22Z</time>
      </trkpt>
      <trkpt lat="45.9857" lon="6.3839">
        <ele>851.756</ele>
        <time>2013-07-17T06:26:29Z</time>
      </trkpt>
      <trkpt lat="45.98551" lon="6.38378">
        <ele>853.733</ele>
        <time>2013-07-17T06:26:37Z</time>
      </trkpt>
      <trkpt lat="45.98529" lon="6.38367">
        <ele>855.955</ele>
        <time>2013-07-17T06:26:46Z</time>
      </trkpt>
      <trkpt lat="45.98523" lon="6.38366">
        <ele>856.662</ele>
        <time>2013-07-17T06:26:49Z</time>
      </trkpt>
      <trkpt lat="45.98513" lon="6.38365">
        <ele>857.697</ele>
        <time>2013-07-17T06:26:53Z</time>
      </trkpt>
      <trkpt lat="45.98498" lon="6.38362">
        <ele>859.581</ele>
        <time>2013-07-17T06:26:59Z</time>
      </trkpt>
      <trkpt lat="45.9848" lon="6.38366">
        <ele>861.924</ele>
        <time>2013-07-17T06:27:07Z</time>
      </trkpt>
      <trkpt lat="45.98471" lon="6.38366">
        <ele>863.233</ele>
        <time>2013-07-17T06:27:11Z</time>
      </trkpt>
      <trkpt lat="45.98461" lon="6.38358">
        <ele>864.834</ele>
        <time>2013-07-17T06:27:16Z</time>
      </trkpt>
      <trkpt lat="45.98445" lon="6.3835">
        <ele>866.811</ele>
        <time>2013-07-17T06:27:23Z</time>
      </trkpt>
      <trkpt lat="45.98429" lon="6.38343">
        <ele>869.16</ele>
        <time>2013-07-17T06:27:30Z</time>
      </trkpt>
      <trkpt lat="45.98417" lon="6.38344">
        <ele>870.699</ele>
        <time>2013-07-17T06:27:36Z</time>
      </trkpt>
      <trkpt lat="45.984" lon="6.38347">
        <ele>872.458</ele>
        <time>2013-07-17T06:27:43Z</time>
      </trkpt>
      <trkpt lat="45.98384" lon="6.38342">
        <ele>874.507</ele>
        <time>2013-07-17T06:27:50Z</time>
      </trkpt>
      <trkpt lat="45.98372" lon="6.38327">
        <ele>876.814</ele>
        <time>2013-07-17T06:27:57Z</time>
      </trkpt>
      <trkpt lat="45.9837" lon="6.38311">
        <ele>878.226</ele>
        <time>2013-07-17T06:28:02Z</time>
      </trkpt>
      <trkpt lat="45.98369" lon="6.38307">
        <ele>878.514</ele>
        <time>2013-07-17T06:28:03Z</time>
      </trkpt>
      <trkpt lat="45.98358" lon="6.3829">
        <ele>880.504</ele>
        <time>2013-07-17T06:28:10Z</time>
      </trkpt>
      <trkpt lat="45.9834" lon="6.38267">
        <ele>883.611</ele>
        <time>2013-07-17T06:28:21Z</time>
      </trkpt>
      <trkpt lat="45.98326" lon="6.38248">
        <ele>885.932</ele>
        <time>2013-07-17T06:28:30Z</time>
      </trkpt>
      <trkpt lat="45.98313" lon="6.3824">
        <ele>887.885</ele>
        <time>2013-07-17T06:28:37Z</time>
      </trkpt>
      <trkpt lat="45.98298" lon="6.38236">
        <ele>889.674</ele>
        <time>2013-07-17T06:28:44Z</time>
      </trkpt>
      <trkpt lat="45.98287" lon="6.38221">
        <ele>891.824</ele>
        <time>2013-07-17T06:28:51Z</time>
      </trkpt>
      <trkpt lat="45.98277" lon="6.38198">
        <ele>894.401</ele>
        <time>2013-07-17T06:29:00Z</time>
      </trkpt>
      <trkpt lat="45.98266" lon="6.38169">
        <ele>897.202</ele>
        <time>2013-07-17T06:29:11Z</time>
      </trkpt>
      <trkpt lat="45.98256" lon="6.38146">
        <ele>899.804</ele>
        <time>2013-07-17T06:29:20Z</time>
      </trkpt>
      <trkpt lat="45.98242" lon="6.38121">
        <ele>902.755</ele>
        <time>2013-07-17T06:29:31Z</time>
      </trkpt>
      <trkpt lat="45.98234" lon="6.38105">
        <ele>904.767</ele>
        <time>2013-07-17T06:29:38Z</time>
      </trkpt>
      <trkpt lat="45.98233" lon="6.38102">
        <ele>905.062</ele>
        <time>2013-07-17T06:29:39Z</time>
      </trkpt>
      <trkpt lat="45.98237" lon="6.38095">
        <ele>906.13</ele>
        <time>2013-07-17T06:29:43Z</time>
      </trkpt>
      <trkpt lat="45.98242" lon="6.38104">
        <ele>906.82</ele>
        <time>2013-07-17T06:29:46Z</time>
      </trkpt>
      <trkpt lat="45.98259" lon="6.38129">
        <ele>908.675</ele>
        <time>2013-07-17T06:29:55Z</time>
      </trkpt>
      <trkpt lat="45.9828" lon="6.38158">
        <ele>911.195</ele>
        <time>2013-07-17T06:30:06Z</time>
      </trkpt>
      <trkpt lat="45.98297" lon="6.38181">
        <ele>913.852</ele>
        <time>2013-07-17T06:30:16Z</time>
      </trkpt>
      <trkpt lat="45.98311" lon="6.38194">
        <ele>915.91</ele>
        <time>2013-07-17T06:30:24Z</time>
      </trkpt>
      <trkpt lat="45.98323" lon="6.38202">
        <ele>917.811</ele>
        <time>2013-07-17T06:30:31Z</time>
      </trkpt>
      <trkpt lat="45.98335" lon="6.38208">
        <ele>920.153</ele>
        <time>2013-07-17T06:30:38Z</time>
      </trkpt>
      <trkpt lat="45.98349" lon="6.38214">
        <ele>922.63</ele>
        <time>2013-07-17T06:30:46Z</time>
      </trkpt>
      <trkpt lat="45.98361" lon="6.38212">
        <ele>924.605</ele>
        <time>2013-07-17T06:30:52Z</time>
      </trkpt>
      <trkpt lat="45.98374" lon="6.3821">
        <ele>926.598</ele>
        <time>2013-07-17T06:30:59Z</time>
      </trkpt>
      <trkpt lat="45.98388" lon="6.38212">
        <ele>928.983</ele>
        <time>2013-07-17T06:31:06Z</time>
      </trkpt>
      <trkpt lat="45.984" lon="6.38218">
        <ele>931.588</ele>
        <time>2013-07-17T06:31:13Z</time>
      </trkpt>
      <trkpt lat="45.98408" lon="6.38224">
        <ele>933.157</ele>
        <time>2013-07-17T06:31:18Z</time>
      </trkpt>
      <trkpt lat="45.98418" lon="6.3823">
        <ele>935.12</ele>
        <time>2013-07-17T06:31:24Z</time>
      </trkpt>
      <trkpt lat="45.98429" lon="6.38233">
        <ele>936.63</ele>
        <time>2013-07-17T06:31:29Z</time>
      </trkpt>
      <trkpt lat="45.98444" lon="6.38234">
        <ele>938.546</ele>
        <time>2013-07-17T06:31:37Z</time>
      </trkpt>
      <trkpt lat="45.98448" lon="6.38234">
        <ele>939.035</ele>
        <time>2013-07-17T06:31:39Z</time>
      </trkpt>
      <trkpt lat="45.9845" lon="6.38222">
        <ele>939.982</ele>
        <time>2013-07-17T06:31:44Z</time>
      </trkpt>
      <trkpt lat="45.98443" lon="6.38216">
        <ele>940.976</ele>
        <time>2013-07-17T06:31:48Z</time>
      </trkpt>
      <trkpt lat="45.98425" lon="6.38205">
        <ele>943.354</ele>
        <time>2013-07-17T06:31:57Z</time>
      </trkpt>
      <trkpt lat="45.98412" lon="6.3819">
        <ele>945.504</ele>
        <time>2013-07-17T06:32:06Z</time>
      </trkpt>
      <trkpt lat="45.98393" lon="6.38172">
        <ele>948.615</ele>
        <time>2013-07-17T06:32:18Z</time>
      </trkpt>
      <trkpt lat="45.9838" lon="6.38156">
        <ele>950.697</ele>
        <time>2013-07-17T06:32:27Z</time>
      </trkpt>
      <trkpt lat="45.98361" lon="6.3814">
        <ele>953.277</ele>
        <time>2013-07-17T06:32:38Z</time>
      </trkpt>
      <trkpt lat="45.98341" lon="6.38124">
        <ele>956.494</ele>
        <time>2013-07-17T06:32:50Z</time>
      </trkpt>
      <trkpt lat="45.98326" lon="6.38104">
        <ele>958.868</ele>
        <time>2013-07-17T06:33:00Z</time>
      </trkpt>
      <trkpt lat="45.98313" lon="6.38079">
        <ele>961.384</ele>
        <time>2013-07-17T06:33:11Z</time>
      </trkpt>
      <trkpt lat="45.98302" lon="6.3806">
        <ele>963.558</ele>
        <time>2013-07-17T06:33:20Z</time>
      </trkpt>
      <trkpt lat="45.98287" lon="6.38034">
        <ele>966.367</ele>
        <time>2013-07-17T06:33:32Z</time>
      </trkpt>
      <trkpt lat="45.98274" lon="6.38009">
        <ele>969.244</ele>
        <time>2013-07-17T06:33:43Z</time>
      </trkpt>
      <trkpt lat="45.98262" lon="6.37986">
        <ele>971.905</ele>
        <time>2013-07-17T06:33:53Z</time>
      </trkpt>
      <trkpt lat="45.98249" lon="6.37962">
        <ele>974.577</ele>
        <time>2013-07-17T06:34:04Z</time>
      </trkpt>
      <trkpt lat="45.98237" lon="6.3794">
        <ele>977.143</ele>
        <time>2013-07-17T06:34:14Z</time>
      </trkpt>
      <trkpt lat="45.98225" lon="6.37919">
        <ele>979.75</ele>
        <time>2013-07-17T06:34:24Z</time>
      </trkpt>
      <trkpt lat="45.98212" lon="6.37894">
        <ele>982.764</ele>
        <time>2013-07-17T06:34:36Z</time>
      </trkpt>
      <trkpt lat="45.982" lon="6.37876">
        <ele>984.786</ele>
        <time>2013-07-17T06:34:45Z</time>
      </trkpt>
      <trkpt lat="45.98188" lon="6.37864">
        <ele>986.827</ele>
        <time>2013-07-17T06:34:53Z</time>
      </trkpt>
      <trkpt lat="45.98175" lon="6.3785">
        <ele>988.671</ele>
        <time>2013-07-17T06:35:01Z</time>
      </trkpt>
      <trkpt lat="45.98169" lon="6.37829">
        <ele>990.778</ele>
        <time>2013-07-17T06:35:09Z</time>
      </trkpt>
      <trkpt lat="45.98172" lon="6.37812">
        <ele>992.078</ele>
        <time>2013-07-17T06:35:15Z</time>
      </trkpt>
      <trkpt lat="45.98173" lon="6.37798">
        <ele>993.741</ele>
        <time>2013-07-17T06:35:22Z</time>
      </trkpt>
      <trkpt lat="45.9817" lon="6.37784">
        <ele>995.212</ele>
        <time>2013-07-17T06:35:27Z</time>
      </trkpt>
      <trkpt lat="45.98158" lon="6.37772">
        <ele>996.917</ele>
        <time>2013-07-17T06:35:34Z</time>
      </trkpt>
      <trkpt lat="45.9815" lon="6.37777">
        <ele>998.463</ele>
        <time>2013-07-17T06:35:40Z</time>
      </trkpt>
      <trkpt lat="45.98139" lon="6.37795">
        <ele>1001.048</ele>
        <time>2013-07-17T06:35:49Z</time>
      </trkpt>
      <trkpt lat="45.98131" lon="6.37815">
        <ele>1003.628</ele>
        <time>2013-07-17T06:35:57Z</time>
      </trkpt>
      <trkpt lat="45.98123" lon="6.3783">
        <ele>1005.991</ele>
        <time>2013-07-17T06:36:04Z</time>
      </trkpt>
      <trkpt lat="45.98114" lon="6.37823">
        <ele>1007.253</ele>
        <time>2013-07-17T06:36:07Z</time>
      </trkpt>
      <trkpt lat="45.98109" lon="6.37819">
        <ele>1008.02</ele>
        <time>2013-07-17T06:36:09Z</time>
      </trkpt>
      <trkpt lat="45.98093" lon="6.37785">
        <ele>1011.035</ele>
        <time>2013-07-17T06:36:19Z</time>
      </trkpt>
      <trkpt lat="45.9808" lon="6.37761">
        <ele>1013.36</ele>
        <time>2013-07-17T06:36:28Z</time>
      </trkpt>
      <trkpt lat="45.98067" lon="6.37741">
        <ele>1015.648</ele>
        <time>2013-07-17T06:36:37Z</time>
      </trkpt>
      <trkpt lat="45.98052" lon="6.37721">
        <ele>1017.983</ele>
        <time>2013-07-17T06:36:47Z</time>
      </trkpt>
      <trkpt lat="45.98042" lon="6.37706">
        <ele>1020.301</ele>
        <time>2013-07-17T06:36:55Z</time>
      </trkpt>
      <trkpt lat="45.98038" lon="6.37696">
        <ele>1021.738</ele>
        <time>2013-07-17T06:37:00Z</time>
      </trkpt>
      <trkpt lat="45.9803" lon="6.37672">
        <ele>1024.246</ele>
        <time>2013-07-17T06:37:09Z</time>
      </trkpt>
      <trkpt lat="45.9802" lon="6.3765">
        <ele>1027.073</ele>
        <time>2013-07-17T06:37:19Z</time>
      </trkpt>
      <trkpt lat="45.98008" lon="6.37632">
        <ele>1029.396</ele>
        <time>2013-07-17T06:37:28Z</time>
      </trkpt>
      <trkpt lat="45.97995" lon="6.37617">
        <ele>1031.708</ele>
        <time>2013-07-17T06:37:37Z</time>
      </trkpt>
      <trkpt lat="45.97982" lon="6.37604">
        <ele>1033.846</ele>
        <time>2013-07-17T06:37:45Z</time>
      </trkpt>
      <trkpt lat="45.97962" lon="6.3759">
        <ele>1036.48</ele>
        <time>2013-07-17T06:37:56Z</time>
      </trkpt>
      <trkpt lat="45.97954" lon="6.37586">
        <ele>1037.334</ele>
        <time>2013-07-17T06:38:00Z</time>
      </trkpt>
      <trkpt lat="45.97952" lon="6.37574">
        <ele>1039.056</ele>
        <time>2013-07-17T06:38:06Z</time>
      </trkpt>
      <trkpt lat="45.97954" lon="6.37573">
        <ele>1039.561</ele>
        <time>2013-07-17T06:38:08Z</time>
      </trkpt>
      <trkpt lat="45.97966" lon="6.37583">
        <ele>1040.469</ele>
        <time>2013-07-17T06:38:13Z</time>
      </trkpt>
      <trkpt lat="45.97976" lon="6.37589">
        <ele>1040.897</ele>
        <time>2013-07-17T06:38:16Z</time>
      </trkpt>
      <trkpt lat="45.97988" lon="6.37595">
        <ele>1041.732</ele>
        <time>2013-07-17T06:38:20Z</time>
      </trkpt>
      <trkpt lat="45.98008" lon="6.37603">
        <ele>1043.435</ele>
        <time>2013-07-17T06:38:27Z</time>
      </trkpt>
      <trkpt lat="45.9802" lon="6.37607">
        <ele>1045.095</ele>
        <time>2013-07-17T06:38:33Z</time>
      </trkpt>
      <trkpt lat="45.98033" lon="6.37618">
        <ele>1046.876</ele>
        <time>2013-07-17T06:38:40Z</time>
      </trkpt>
      <trkpt lat="45.9805" lon="6.37637">
        <ele>1049.863</ele>
        <time>2013-07-17T06:38:51Z</time>
      </trkpt>
      <trkpt lat="45.98064" lon="6.37655">
        <ele>1052.476</ele>
        <time>2013-07-17T06:39:01Z</time>
      </trkpt>
      <trkpt lat="45.98076" lon="6.3767">
        <ele>1054.309</ele>
        <time>2013-07-17T06:39:09Z</time>
      </trkpt>
      <trkpt lat="45.98088" lon="6.3769">
        <ele>1056.694</ele>
        <time>2013-07-17T06:39:18Z</time>
      </trkpt>
      <trkpt lat="45.98104" lon="6.37713">
        <ele>1059.146</ele>
        <time>2013-07-17T06:39:28Z</time>
      </trkpt>
      <trkpt lat="45.98109" lon="6.37715">
        <ele>1059.535</ele>
        <time>2013-07-17T06:39:30Z</time>
      </trkpt>
      <trkpt lat="45.98113" lon="6.37702">
        <ele>1060.92</ele>
        <time>2013-07-17T06:39:35Z</time>
      </trkpt>
      <trkpt lat="45.98109" lon="6.37694">
        <ele>1061.603</ele>
        <time>2013-07-17T06:39:38Z</time>
      </trkpt>
      <trkpt lat="45.98092" lon="6.37672">
        <ele>1064.644</ele>
        <time>2013-07-17T06:39:49Z</time>
      </trkpt>
      <trkpt lat="45.98078" lon="6.37645">
        <ele>1067.665</ele>
        <time>2013-07-17T06:40:01Z</time>
      </trkpt>
      <trkpt lat="45.98068" lon="6.37625">
        <ele>1070.131</ele>
        <time>2013-07-17T06:40:10Z</time>
      </trkpt>
      <trkpt lat="45.98056" lon="6.376">
        <ele>1072.646</ele>
        <time>2013-07-17T06:40:21Z</time>
      </trkpt>
      <trkpt lat="45.98043" lon="6.37575">
        <ele>1075.51</ele>
        <time>2013-07-17T06:40:32Z</time>
      </trkpt>
      <trkpt lat="45.98031" lon="6.3755">
        <ele>1078.132</ele>
        <time>2013-07-17T06:40:43Z</time>
      </trkpt>
      <trkpt lat="45.98019" lon="6.37532">
        <ele>1080.509</ele>
        <time>2013-07-17T06:40:52Z</time>
      </trkpt>
      <trkpt lat="45.98003" lon="6.37515">
        <ele>1083.308</ele>
        <time>2013-07-17T06:41:02Z</time>
      </trkpt>
      <trkpt lat="45.97985" lon="6.375">
        <ele>1086.531</ele>
        <time>2013-07-17T06:41:13Z</time>
      </trkpt>
      <trkpt lat="45.97977" lon="6.37491">
        <ele>1088.165</ele>
        <time>2013-07-17T06:41:19Z</time>
      </trkpt>
      <trkpt lat="45.97969" lon="6.37481">
        <ele>1090.488</ele>
        <time>2013-07-17T06:41:26Z</time>
      </trkpt>
      <trkpt lat="45.97964" lon="6.37471">
        <ele>1092.184</ele>
        <time>2013-07-17T06:41:31Z</time>
      </trkpt>
      <trkpt lat="45.97958" lon="6.37459">
        <ele>1093.972</ele>
        <time>2013-07-17T06:41:37Z</time>
      </trkpt>
      <trkpt lat="45.9795" lon="6.37447">
        <ele>1095.921</ele>
        <time>2013-07-17T06:41:43Z</time>
      </trkpt>
      <trkpt lat="45.97941" lon="6.3744">
        <ele>1097.906</ele>
        <time>2013-07-17T06:41:50Z</time>
      </trkpt>
      <trkpt lat="45.97934" lon="6.37441">
        <ele>1098.996</ele>
        <time>2013-07-17T06:41:55Z</time>
      </trkpt>
      <trkpt lat="45.9793" lon="6.37453">
        <ele>1100.856</ele>
        <time>2013-07-17T06:42:01Z</time>
      </trkpt>
      <trkpt lat="45.97923" lon="6.37466">
        <ele>1102.24</ele>
        <time>2013-07-17T06:42:07Z</time>
      </trkpt>
      <trkpt lat="45.97915" lon="6.37482">
        <ele>1104.141</ele>
        <time>2013-07-17T06:42:14Z</time>
      </trkpt>
      <trkpt lat="45.97908" lon="6.37486">
        <ele>1105.872</ele>
        <time>2013-07-17T06:42:19Z</time>
      </trkpt>
      <trkpt lat="45.97886" lon="6.3749">
        <ele>1108.128</ele>
        <time>2013-07-17T06:42:27Z</time>
      </trkpt>
      <trkpt lat="45.97873" lon="6.37498">
        <ele>1109.895</ele>
        <time>2013-07-17T06:42:34Z</time>
      </trkpt>
      <trkpt lat="45.97868" lon="6.37513">
        <ele>1111.818</ele>
        <time>2013-07-17T06:42:41Z</time>
      </trkpt>
      <trkpt lat="45.97864" lon="6.37534">
        <ele>1114.138</ele>
        <time>2013-07-17T06:42:50Z</time>
      </trkpt>
      <trkpt lat="45.9786" lon="6.37551">
        <ele>1115.811</ele>
        <time>2013-07-17T06:42:57Z</time>
      </trkpt>
      <trkpt lat="45.97854" lon="6.37567">
        <ele>1117.741</ele>
        <time>2013-07-17T06:43:04Z</time>
      </trkpt>
      <trkpt lat="45.9785" lon="6.37569">
        <ele>1118.284</ele>
        <time>2013-07-17T06:43:06Z</time>
      </trkpt>
      <trkpt lat="45.97842" lon="6.37558">
        <ele>1120.027</ele>
        <time>2013-07-17T06:43:12Z</time>
      </trkpt>
      <trkpt lat="45.97842" lon="6.37553">
        <ele>1120.486</ele>
        <time>2013-07-17T06:43:14Z</time>
      </trkpt>
      <trkpt lat="45.97844" lon="6.37543">
        <ele>1121.351</ele>
        <time>2013-07-17T06:43:18Z</time>
      </trkpt>
      <trkpt lat="45.97848" lon="6.37516">
        <ele>1123.114</ele>
        <time>2013-07-17T06:43:27Z</time>
      </trkpt>
      <trkpt lat="45.9785" lon="6.37497">
        <ele>1124.509</ele>
        <time>2013-07-17T06:43:33Z</time>
      </trkpt>
      <trkpt lat="45.97849" lon="6.37478">
        <ele>1126.246</ele>
        <time>2013-07-17T06:43:39Z</time>
      </trkpt>
      <trkpt lat="45.97845" lon="6.37458">
        <ele>1128.097</ele>
        <time>2013-07-17T06:43:46Z</time>
      </trkpt>
      <trkpt lat="45.97841" lon="6.37449">
        <ele>1128.69</ele>
        <time>2013-07-17T06:43:49Z</time>
      </trkpt>
      <trkpt lat="45.97845" lon="6.3743">
        <ele>1130.312</ele>
        <time>2013-07-17T06:43:56Z</time>
      </trkpt>
      <trkpt lat="45.97849" lon="6.3742">
        <ele>1131.552</ele>
        <time>2013-07-17T06:44:00Z</time>
      </trkpt>
      <trkpt lat="45.97859" lon="6.37406">
        <ele>1133.827</ele>
        <time>2013-07-17T06:44:07Z</time>
      </trkpt>
      <trkpt lat="45.97871" lon="6.37408">
        <ele>1135.39</ele>
        <time>2013-07-17T06:44:12Z</time>
      </trkpt>
      <trkpt lat="45.97881" lon="6.37409">
        <ele>1136.801</ele>
        <time>2013-07-17T06:44:17Z</time>
      </trkpt>
      <trkpt lat="45.97883" lon="6.37398">
        <ele>1138.192</ele>
        <time>2013-07-17T06:44:21Z</time>
      </trkpt>
      <trkpt lat="45.97882" lon="6.37395">
        <ele>1138.574</ele>
        <time>2013-07-17T06:44:22Z</time>
      </trkpt>
      <trkpt lat="45.97871" lon="6.37374">
        <ele>1140.671</ele>
        <time>2013-07-17T06:44:30Z</time>
      </trkpt>
      <trkpt lat="45.97857" lon="6.37352">
        <ele>1142.691</ele>
        <time>2013-07-17T06:44:39Z</time>
      </trkpt>
      <trkpt lat="45.97846" lon="6.3733">
        <ele>1144.551</ele>
        <time>2013-07-17T06:44:47Z</time>
      </trkpt>
      <trkpt lat="45.97833" lon="6.37307">
        <ele>1146.459</ele>
        <time>2013-07-17T06:44:56Z</time>
      </trkpt>
      <trkpt lat="45.97824" lon="6.37287">
        <ele>1148.156</ele>
        <time>2013-07-17T06:45:04Z</time>
      </trkpt>
      <trkpt lat="45.97816" lon="6.37273">
        <ele>1149.554</ele>
        <time>2013-07-17T06:45:09Z</time>
      </trkpt>
      <trkpt lat="45.97803" lon="6.37255">
        <ele>1151.747</ele>
        <time>2013-07-17T06:45:17Z</time>
      </trkpt>
      <trkpt lat="45.97793" lon="6.37249">
        <ele>1153.536</ele>
        <time>2013-07-17T06:45:23Z</time>
      </trkpt>
      <trkpt lat="45.97779" lon="6.37251">
        <ele>1155.367</ele>
        <time>2013-07-17T06:45:29Z</time>
      </trkpt>
      <trkpt lat="45.97771" lon="6.37253">
        <ele>1156.558</ele>
        <time>2013-07-17T06:45:33Z</time>
      </trkpt>
      <trkpt lat="45.97761" lon="6.37248">
        <ele>1158.707</ele>
        <time>2013-07-17T06:45:39Z</time>
      </trkpt>
      <trkpt lat="45.97766" lon="6.37243">
        <ele>1160.159</ele>
        <time>2013-07-17T06:45:44Z</time>
      </trkpt>
      <trkpt lat="45.97767" lon="6.37242">
        <ele>1160.446</ele>
        <time>2013-07-17T06:45:45Z</time>
      </trkpt>
      <trkpt lat="45.9778" lon="6.37234">
        <ele>1162.335</ele>
        <time>2013-07-17T06:45:53Z</time>
      </trkpt>
      <trkpt lat="45.97782" lon="6.37224">
        <ele>1163.482</ele>
        <time>2013-07-17T06:45:57Z</time>
      </trkpt>
      <trkpt lat="45.97774" lon="6.37212">
        <ele>1164.971</ele>
        <time>2013-07-17T06:46:03Z</time>
      </trkpt>
      <trkpt lat="45.97762" lon="6.37209">
        <ele>1166.642</ele>
        <time>2013-07-17T06:46:10Z</time>
      </trkpt>
      <trkpt lat="45.97751" lon="6.37211">
        <ele>1168.289</ele>
        <time>2013-07-17T06:46:16Z</time>
      </trkpt>
      <trkpt lat="45.9774" lon="6.37205">
        <ele>1169.843</ele>
        <time>2013-07-17T06:46:22Z</time>
      </trkpt>
      <trkpt lat="45.97743" lon="6.37192">
        <ele>1171.261</ele>
        <time>2013-07-17T06:46:27Z</time>
      </trkpt>
      <trkpt lat="45.97754" lon="6.37176">
        <ele>1173.132</ele>
        <time>2013-07-17T06:46:35Z</time>
      </trkpt>
      <trkpt lat="45.97758" lon="6.37164">
        <ele>1174.427</ele>
        <time>2013-07-17T06:46:41Z</time>
      </trkpt>
      <trkpt lat="45.97751" lon="6.37149">
        <ele>1175.638</ele>
        <time>2013-07-17T06:46:47Z</time>
      </trkpt>
      <trkpt lat="45.97742" lon="6.37144">
        <ele>1177.102</ele>
        <time>2013-07-17T06:46:53Z</time>
      </trkpt>
      <trkpt lat="45.97734" lon="6.37142">
        <ele>1178.913</ele>
        <time>2013-07-17T06:46:59Z</time>
      </trkpt>
      <trkpt lat="45.97717" lon="6.37144">
        <ele>1180.907</ele>
        <time>2013-07-17T06:47:06Z</time>
      </trkpt>
      <trkpt lat="45.97703" lon="6.37135">
        <ele>1183.187</ele>
        <time>2013-07-17T06:47:14Z</time>
      </trkpt>
      <trkpt lat="45.97701" lon="6.37134">
        <ele>1183.499</ele>
        <time>2013-07-17T06:47:15Z</time>
      </trkpt>
      <trkpt lat="45.97695" lon="6.37125">
        <ele>1184.504</ele>
        <time>2013-07-17T06:47:19Z</time>
      </trkpt>
      <trkpt lat="45.9769" lon="6.37115">
        <ele>1185.607</ele>
        <time>2013-07-17T06:47:23Z</time>
      </trkpt>
      <trkpt lat="45.97686" lon="6.37092">
        <ele>1186.943</ele>
        <time>2013-07-17T06:47:30Z</time>
      </trkpt>
      <trkpt lat="45.97683" lon="6.37065">
        <ele>1188.027</ele>
        <time>2013-07-17T06:47:38Z</time>
      </trkpt>
      <trkpt lat="45.97676" lon="6.37037">
        <ele>1189.371</ele>
        <time>2013-07-17T06:47:46Z</time>
      </trkpt>
      <trkpt lat="45.97663" lon="6.37024">
        <ele>1189.797</ele>
        <time>2013-07-17T06:47:51Z</time>
      </trkpt>
      <trkpt lat="45.9764" lon="6.37007">
        <ele>1190.558</ele>
        <time>2013-07-17T06:47:58Z</time>
      </trkpt>
      <trkpt lat="45.97618" lon="6.36985">
        <ele>1190.945</ele>
        <time>2013-07-17T06:48:05Z</time>
      </trkpt>
      <trkpt lat="45.97593" lon="6.36957">
        <ele>1191.678</ele>
        <time>2013-07-17T06:48:13Z</time>
      </trkpt>
      <trkpt lat="45.97558" lon="6.36925">
        <ele>1192.597</ele>
        <time>2013-07-17T06:48:23Z</time>
      </trkpt>
      <trkpt lat="45.97528" lon="6.36896">
        <ele>1193.771</ele>
        <time>2013-07-17T06:48:32Z</time>
      </trkpt>
      <trkpt lat="45.97505" lon="6.36863">
        <ele>1194.782</ele>
        <time>2013-07-17T06:48:40Z</time>
      </trkpt>
      <trkpt lat="45.97496" lon="6.36844">
        <ele>1196.081</ele>
        <time>2013-07-17T06:48:45Z</time>
      </trkpt>
      <trkpt lat="45.97488" lon="6.3682">
        <ele>1198.398</ele>
        <time>2013-07-17T06:48:53Z</time>
      </trkpt>
      <trkpt lat="45.97484" lon="6.36802">
        <ele>1200.083</ele>
        <time>2013-07-17T06:48:59Z</time>
      </trkpt>
      <trkpt lat="45.9748" lon="6.36784">
        <ele>1202.375</ele>
        <time>2013-07-17T06:49:06Z</time>
      </trkpt>
      <trkpt lat="45.97473" lon="6.36765">
        <ele>1205.073</ele>
        <time>2013-07-17T06:49:14Z</time>
      </trkpt>
      <trkpt lat="45.97469" lon="6.3675">
        <ele>1206.775</ele>
        <time>2013-07-17T06:49:20Z</time>
      </trkpt>
      <trkpt lat="45.97463" lon="6.36729">
        <ele>1209.325</ele>
        <time>2013-07-17T06:49:29Z</time>
      </trkpt>
      <trkpt lat="45.97454" lon="6.36703">
        <ele>1212.365</ele>
        <time>2013-07-17T06:49:39Z</time>
      </trkpt>
      <trkpt lat="45.97446" lon="6.36678">
        <ele>1215.135</ele>
        <time>2013-07-17T06:49:49Z</time>
      </trkpt>
      <trkpt lat="45.97435" lon="6.36656">
        <ele>1218.135</ele>
        <time>2013-07-17T06:49:59Z</time>
      </trkpt>
      <trkpt lat="45.97428" lon="6.3664">
        <ele>1219.748</ele>
        <time>2013-07-17T06:50:06Z</time>
      </trkpt>
      <trkpt lat="45.97422" lon="6.36623">
        <ele>1221.849</ele>
        <time>2013-07-17T06:50:13Z</time>
      </trkpt>
      <trkpt lat="45.97417" lon="6.366">
        <ele>1223.859</ele>
        <time>2013-07-17T06:50:22Z</time>
      </trkpt>
      <trkpt lat="45.97411" lon="6.36576">
        <ele>1226.13</ele>
        <time>2013-07-17T06:50:31Z</time>
      </trkpt>
      <trkpt lat="45.97403" lon="6.36543">
        <ele>1228.83</ele>
        <time>2013-07-17T06:50:43Z</time>
      </trkpt>
      <trkpt lat="45.97394" lon="6.3652">
        <ele>1231.16</ele>
        <time>2013-07-17T06:50:53Z</time>
      </trkpt>
      <trkpt lat="45.97389" lon="6.36499">
        <ele>1233.356</ele>
        <time>2013-07-17T06:51:01Z</time>
      </trkpt>
      <trkpt lat="45.97384" lon="6.36479">
        <ele>1235.55</ele>
        <time>2013-07-17T06:51:08Z</time>
      </trkpt>
      <trkpt lat="45.97375" lon="6.36461">
        <ele>1238.104</ele>
        <time>2013-07-17T06:51:16Z</time>
      </trkpt>
      <trkpt lat="45.97359" lon="6.36442">
        <ele>1241.399</ele>
        <time>2013-07-17T06:51:26Z</time>
      </trkpt>
      <trkpt lat="45.97347" lon="6.36422">
        <ele>1244.463</ele>
        <time>2013-07-17T06:51:36Z</time>
      </trkpt>
      <trkpt lat="45.97337" lon="6.36403">
        <ele>1246.984</ele>
        <time>2013-07-17T06:51:45Z</time>
      </trkpt>
      <trkpt lat="45.9733" lon="6.36387">
        <ele>1249.232</ele>
        <time>2013-07-17T06:51:53Z</time>
      </trkpt>
      <trkpt lat="45.97325" lon="6.36367">
        <ele>1251.406</ele>
        <time>2013-07-17T06:52:01Z</time>
      </trkpt>
      <trkpt lat="45.97319" lon="6.36341">
        <ele>1254.574</ele>
        <time>2013-07-17T06:52:12Z</time>
      </trkpt>
      <trkpt lat="45.97316" lon="6.36312">
        <ele>1257.492</ele>
        <time>2013-07-17T06:52:24Z</time>
      </trkpt>
      <trkpt lat="45.97312" lon="6.3629">
        <ele>1260.045</ele>
        <time>2013-07-17T06:52:34Z</time>
      </trkpt>
      <trkpt lat="45.97307" lon="6.36264">
        <ele>1262.544</ele>
        <time>2013-07-17T06:52:44Z</time>
      </trkpt>
      <trkpt lat="45.97299" lon="6.36253">
        <ele>1264.751</ele>
        <time>2013-07-17T06:52:51Z</time>
      </trkpt>
      <trkpt lat="45.97293" lon="6.36236">
        <ele>1266.598</ele>
        <time>2013-07-17T06:52:58Z</time>
      </trkpt>
      <trkpt lat="45.97284" lon="6.3622">
        <ele>1268.808</ele>
        <time>2013-07-17T06:53:06Z</time>
      </trkpt>
      <trkpt lat="45.97275" lon="6.36204">
        <ele>1270.789</ele>
        <time>2013-07-17T06:53:14Z</time>
      </trkpt>
      <trkpt lat="45.97267" lon="6.36192">
        <ele>1272.778</ele>
        <time>2013-07-17T06:53:21Z</time>
      </trkpt>
      <trkpt lat="45.97254" lon="6.36181">
        <ele>1275.11</ele>
        <time>2013-07-17T06:53:30Z</time>
      </trkpt>
      <trkpt lat="45.97247" lon="6.3616">
        <ele>1277.275</ele>
        <time>2013-07-17T06:53:39Z</time>
      </trkpt>
      <trkpt lat="45.97239" lon="6.36138">
        <ele>1279.87</ele>
        <time>2013-07-17T06:53:49Z</time>
      </trkpt>
      <trkpt lat="45.97234" lon="6.36112">
        <ele>1282.442</ele>
        <time>2013-07-17T06:53:59Z</time>
      </trkpt>
      <trkpt lat="45.97228" lon="6.36097">
        <ele>1284.21</ele>
        <time>2013-07-17T06:54:06Z</time>
      </trkpt>
      <trkpt lat="45.97222" lon="6.36077">
        <ele>1286.278</ele>
        <time>2013-07-17T06:54:14Z</time>
      </trkpt>
      <trkpt lat="45.9722" lon="6.3606">
        <ele>1288.092</ele>
        <time>2013-07-17T06:54:20Z</time>
      </trkpt>
      <trkpt lat="45.97219" lon="6.36056">
        <ele>1288.492</ele>
        <time>2013-07-17T06:54:22Z</time>
      </trkpt>
      <trkpt lat="45.97219" lon="6.36041">
        <ele>1290.062</ele>
        <time>2013-07-17T06:54:28Z</time>
      </trkpt>
      <trkpt lat="45.97221" lon="6.36027">
        <ele>1291.677</ele>
        <time>2013-07-17T06:54:33Z</time>
      </trkpt>
      <trkpt lat="45.97223" lon="6.36012">
        <ele>1293.18</ele>
        <time>2013-07-17T06:54:38Z</time>
      </trkpt>
      <trkpt lat="45.97223" lon="6.3601">
        <ele>1293.478</ele>
        <time>2013-07-17T06:54:39Z</time>
      </trkpt>
      <trkpt lat="45.9722" lon="6.35988">
        <ele>1295.23</ele>
        <time>2013-07-17T06:54:45Z</time>
      </trkpt>
      <trkpt lat="45.97219" lon="6.35982">
        <ele>1295.926</ele>
        <time>2013-07-17T06:54:47Z</time>
      </trkpt>
      <trkpt lat="45.97217" lon="6.35966">
        <ele>1297.977</ele>
        <time>2013-07-17T06:54:52Z</time>
      </trkpt>
      <trkpt lat="45.97217" lon="6.35948">
        <ele>1299.711</ele>
        <time>2013-07-17T06:54:59Z</time>
      </trkpt>
      <trkpt lat="45.97217" lon="6.35928">
        <ele>1302.025</ele>
        <time>2013-07-17T06:55:07Z</time>
      </trkpt>
      <trkpt lat="45.97219" lon="6.35907">
        <ele>1304.474</ele>
        <time>2013-07-17T06:55:16Z</time>
      </trkpt>
      <trkpt lat="45.97224" lon="6.35886">
        <ele>1306.482</ele>
        <time>2013-07-17T06:55:25Z</time>
      </trkpt>
      <trkpt lat="45.97225" lon="6.35868">
        <ele>1308.609</ele>
        <time>2013-07-17T06:55:32Z</time>
      </trkpt>
      <trkpt lat="45.97223" lon="6.35851">
        <ele>1310.258</ele>
        <time>2013-07-17T06:55:39Z</time>
      </trkpt>
      <trkpt lat="45.97219" lon="6.35823">
        <ele>1312.98</ele>
        <time>2013-07-17T06:55:50Z</time>
      </trkpt>
      <trkpt lat="45.97217" lon="6.35803">
        <ele>1315.134</ele>
        <time>2013-07-17T06:55:58Z</time>
      </trkpt>
      <trkpt lat="45.97215" lon="6.35776">
        <ele>1317.766</ele>
        <time>2013-07-17T06:56:08Z</time>
      </trkpt>
      <trkpt lat="45.97211" lon="6.35756">
        <ele>1319.61</ele>
        <time>2013-07-17T06:56:16Z</time>
      </trkpt>
      <trkpt lat="45.97205" lon="6.35734">
        <ele>1321.922</ele>
        <time>2013-07-17T06:56:25Z</time>
      </trkpt>
      <trkpt lat="45.972" lon="6.35711">
        <ele>1323.922</ele>
        <time>2013-07-17T06:56:34Z</time>
      </trkpt>
      <trkpt lat="45.97196" lon="6.35686">
        <ele>1326.057</ele>
        <time>2013-07-17T06:56:44Z</time>
      </trkpt>
      <trkpt lat="45.97195" lon="6.35661">
        <ele>1328.248</ele>
        <time>2013-07-17T06:56:53Z</time>
      </trkpt>
      <trkpt lat="45.97195" lon="6.35634">
        <ele>1330.629</ele>
        <time>2013-07-17T06:57:03Z</time>
      </trkpt>
      <trkpt lat="45.97192" lon="6.3561">
        <ele>1332.468</ele>
        <time>2013-07-17T06:57:12Z</time>
      </trkpt>
      <trkpt lat="45.97189" lon="6.35598">
        <ele>1333.667</ele>
        <time>2013-07-17T06:57:17Z</time>
      </trkpt>
      <trkpt lat="45.97183" lon="6.3558">
        <ele>1335.559</ele>
        <time>2013-07-17T06:57:24Z</time>
      </trkpt>
      <trkpt lat="45.97181" lon="6.35561">
        <ele>1337.299</ele>
        <time>2013-07-17T06:57:31Z</time>
      </trkpt>
      <trkpt lat="45.97176" lon="6.35538">
        <ele>1339.325</ele>
        <time>2013-07-17T06:57:38Z</time>
      </trkpt>
      <trkpt lat="45.97171" lon="6.35514">
        <ele>1341.641</ele>
        <time>2013-07-17T06:57:46Z</time>
      </trkpt>
      <trkpt lat="45.97164" lon="6.35491">
        <ele>1344.111</ele>
        <time>2013-07-17T06:57:55Z</time>
      </trkpt>
      <trkpt lat="45.97159" lon="6.35466">
        <ele>1346.736</ele>
        <time>2013-07-17T06:58:05Z</time>
      </trkpt>
      <trkpt lat="45.97157" lon="6.3544">
        <ele>1349.221</ele>
        <time>2013-07-17T06:58:15Z</time>
      </trkpt>
      <trkpt lat="45.97154" lon="6.35408">
        <ele>1352.264</ele>
        <time>2013-07-17T06:58:27Z</time>
      </trkpt>
      <trkpt lat="45.97149" lon="6.35385">
        <ele>1354.536</ele>
        <time>2013-07-17T06:58:36Z</time>
      </trkpt>
      <trkpt lat="45.97143" lon="6.35361">
        <ele>1357.481</ele>
        <time>2013-07-17T06:58:46Z</time>
      </trkpt>
      <trkpt lat="45.97137" lon="6.35337">
        <ele>1360.05</ele>
        <time>2013-07-17T06:58:56Z</time>
      </trkpt>
      <trkpt lat="45.9713" lon="6.35318">
        <ele>1362.352</ele>
        <time>2013-07-17T06:59:04Z</time>
      </trkpt>
      <trkpt lat="45.97126" lon="6.35289">
        <ele>1365.01</ele>
        <time>2013-07-17T06:59:15Z</time>
      </trkpt>
      <trkpt lat="45.97127" lon="6.35266">
        <ele>1367.792</ele>
        <time>2013-07-17T06:59:24Z</time>
      </trkpt>
      <trkpt lat="45.97133" lon="6.35245">
        <ele>1370.11</ele>
        <time>2013-07-17T06:59:33Z</time>
      </trkpt>
      <trkpt lat="45.97143" lon="6.35222">
        <ele>1373.047</ele>
        <time>2013-07-17T06:59:43Z</time>
      </trkpt>
      <trkpt lat="45.97154" lon="6.35198">
        <ele>1375.686</ele>
        <time>2013-07-17T06:59:53Z</time>
      </trkpt>
      <trkpt lat="45.97168" lon="6.35182">
        <ele>1377.998</ele>
        <time>2013-07-17T07:00:02Z</time>
      </trkpt>
      <trkpt lat="45.9718" lon="6.35163">
        <ele>1380.225</ele>
        <time>2013-07-17T07:00:11Z</time>
      </trkpt>
      <trkpt lat="45.97185" lon="6.35137">
        <ele>1382.967</ele>
        <time>2013-07-17T07:00:21Z</time>
      </trkpt>
      <trkpt lat="45.9719" lon="6.35114">
        <ele>1385.181</ele>
        <time>2013-07-17T07:00:30Z</time>
      </trkpt>
      <trkpt lat="45.972" lon="6.35095">
        <ele>1386.361</ele>
        <time>2013-07-17T07:00:38Z</time>
      </trkpt>
      <trkpt lat="45.97212" lon="6.35083">
        <ele>1386.369</ele>
        <time>2013-07-17T07:00:45Z</time>
      </trkpt>
      <trkpt lat="45.97226" lon="6.35067">
        <ele>1386.192</ele>
        <time>2013-07-17T07:00:51Z</time>
      </trkpt>
      <trkpt lat="45.97238" lon="6.35052">
        <ele>1386.212</ele>
        <time>2013-07-17T07:00:57Z</time>
      </trkpt>
      <trkpt lat="45.9724" lon="6.3505">
        <ele>1386.355</ele>
        <time>2013-07-17T07:01:00Z</time>
      </trkpt>
      <trkpt lat="45.97236" lon="6.35047">
        <ele>1388.307</ele>
        <time>2013-07-17T07:04:40Z</time>
      </trkpt>
      <trkpt lat="45.97236" lon="6.35046">
        <ele>1388.199</ele>
        <time>2013-07-17T07:04:41Z</time>
      </trkpt>
      <trkpt lat="45.97236" lon="6.35046">
        <ele>1388.046</ele>
        <time>2013-07-17T07:04:42Z</time>
      </trkpt>
      <trkpt lat="45.97241" lon="6.35041">
        <ele>1388.106</ele>
        <time>2013-07-17T07:04:51Z</time>
      </trkpt>
      <trkpt lat="45.97252" lon="6.35039">
        <ele>1387.721</ele>
        <time>2013-07-17T07:04:54Z</time>
      </trkpt>
      <trkpt lat="45.97261" lon="6.3504">
        <ele>1387.286</ele>
        <time>2013-07-17T07:04:56Z</time>
      </trkpt>
      <trkpt lat="45.97289" lon="6.35051">
        <ele>1387.647</ele>
        <time>2013-07-17T07:05:04Z</time>
      </trkpt>
      <trkpt lat="45.97309" lon="6.35049">
        <ele>1387.865</ele>
        <time>2013-07-17T07:05:10Z</time>
      </trkpt>
      <trkpt lat="45.97319" lon="6.35045">
        <ele>1387.836</ele>
        <time>2013-07-17T07:05:13Z</time>
      </trkpt>
      <trkpt lat="45.97346" lon="6.35033">
        <ele>1388.163</ele>
        <time>2013-07-17T07:05:19Z</time>
      </trkpt>
      <trkpt lat="45.97373" lon="6.3502">
        <ele>1388.763</ele>
        <time>2013-07-17T07:05:25Z</time>
      </trkpt>
      <trkpt lat="45.97388" lon="6.35006">
        <ele>1389.378</ele>
        <time>2013-07-17T07:05:30Z</time>
      </trkpt>
      <trkpt lat="45.97385" lon="6.34989">
        <ele>1389.734</ele>
        <time>2013-07-17T07:05:34Z</time>
      </trkpt>
      <trkpt lat="45.97364" lon="6.34953">
        <ele>1388.146</ele>
        <time>2013-07-17T07:05:40Z</time>
      </trkpt>
      <trkpt lat="45.97349" lon="6.34916">
        <ele>1386.573</ele>
        <time>2013-07-17T07:05:44Z</time>
      </trkpt>
      <trkpt lat="45.97336" lon="6.34871">
        <ele>1384.503</ele>
        <time>2013-07-17T07:05:48Z</time>
      </trkpt>
      <trkpt lat="45.97318" lon="6.34831">
        <ele>1383.174</ele>
        <time>2013-07-17T07:05:52Z</time>
      </trkpt>
      <trkpt lat="45.97294" lon="6.34799">
        <ele>1383.915</ele>
        <time>2013-07-17T07:05:57Z</time>
      </trkpt>
      <trkpt lat="45.97269" lon="6.34763">
        <ele>1385.029</ele>
        <time>2013-07-17T07:06:04Z</time>
      </trkpt>
      <trkpt lat="45.97258" lon="6.34744">
        <ele>1384.983</ele>
        <time>2013-07-17T07:06:07Z</time>
      </trkpt>
      <trkpt lat="45.97235" lon="6.34694">
        <ele>1382.844</ele>
        <time>2013-07-17T07:06:13Z</time>
      </trkpt>
      <trkpt lat="45.97222" lon="6.34654">
        <ele>1382.646</ele>
        <time>2013-07-17T07:06:18Z</time>
      </trkpt>
      <trkpt lat="45.97216" lon="6.3461">
        <ele>1384.136</ele>
        <time>2013-07-17T07:06:25Z</time>
      </trkpt>
      <trkpt lat="45.97212" lon="6.34592">
        <ele>1384.596</ele>
        <time>2013-07-17T07:06:28Z</time>
      </trkpt>
      <trkpt lat="45.97205" lon="6.34575">
        <ele>1384.986</ele>
        <time>2013-07-17T07:06:31Z</time>
      </trkpt>
      <trkpt lat="45.97192" lon="6.34549">
        <ele>1386.034</ele>
        <time>2013-07-17T07:06:36Z</time>
      </trkpt>
      <trkpt lat="45.97183" lon="6.34525">
        <ele>1387.068</ele>
        <time>2013-07-17T07:06:41Z</time>
      </trkpt>
      <trkpt lat="45.9718" lon="6.3451">
        <ele>1387.219</ele>
        <time>2013-07-17T07:06:44Z</time>
      </trkpt>
      <trkpt lat="45.9718" lon="6.34497">
        <ele>1386.908</ele>
        <time>2013-07-17T07:06:46Z</time>
      </trkpt>
      <trkpt lat="45.97187" lon="6.34447">
        <ele>1386.235</ele>
        <time>2013-07-17T07:06:53Z</time>
      </trkpt>
      <trkpt lat="45.97189" lon="6.34428">
        <ele>1386.055</ele>
        <time>2013-07-17T07:06:56Z</time>
      </trkpt>
      <trkpt lat="45.97184" lon="6.34405">
        <ele>1386.417</ele>
        <time>2013-07-17T07:07:00Z</time>
      </trkpt>
      <trkpt lat="45.97172" lon="6.34379">
        <ele>1388.076</ele>
        <time>2013-07-17T07:07:06Z</time>
      </trkpt>
      <trkpt lat="45.97164" lon="6.34359">
        <ele>1388.964</ele>
        <time>2013-07-17T07:07:11Z</time>
      </trkpt>
      <trkpt lat="45.97154" lon="6.34326">
        <ele>1389.846</ele>
        <time>2013-07-17T07:07:18Z</time>
      </trkpt>
      <trkpt lat="45.97145" lon="6.34288">
        <ele>1391.161</ele>
        <time>2013-07-17T07:07:25Z</time>
      </trkpt>
      <trkpt lat="45.97133" lon="6.34262">
        <ele>1392.667</ele>
        <time>2013-07-17T07:07:31Z</time>
      </trkpt>
      <trkpt lat="45.97123" lon="6.3423">
        <ele>1395.068</ele>
        <time>2013-07-17T07:07:39Z</time>
      </trkpt>
      <trkpt lat="45.97114" lon="6.34199">
        <ele>1396.657</ele>
        <time>2013-07-17T07:07:46Z</time>
      </trkpt>
      <trkpt lat="45.97108" lon="6.34178">
        <ele>1397.17</ele>
        <time>2013-07-17T07:07:51Z</time>
      </trkpt>
      <trkpt lat="45.97099" lon="6.3415">
        <ele>1397.106</ele>
        <time>2013-07-17T07:07:57Z</time>
      </trkpt>
      <trkpt lat="45.9709" lon="6.34127">
        <ele>1396.461</ele>
        <time>2013-07-17T07:08:02Z</time>
      </trkpt>
      <trkpt lat="45.97078" lon="6.34103">
        <ele>1396.042</ele>
        <time>2013-07-17T07:08:07Z</time>
      </trkpt>
      <trkpt lat="45.97072" lon="6.34092">
        <ele>1395.661</ele>
        <time>2013-07-17T07:08:09Z</time>
      </trkpt>
      <trkpt lat="45.97063" lon="6.34063">
        <ele>1395.404</ele>
        <time>2013-07-17T07:08:14Z</time>
      </trkpt>
      <trkpt lat="45.97062" lon="6.34037">
        <ele>1394.769</ele>
        <time>2013-07-17T07:08:18Z</time>
      </trkpt>
      <trkpt lat="45.97068" lon="6.33996">
        <ele>1395.563</ele>
        <time>2013-07-17T07:08:25Z</time>
      </trkpt>
      <trkpt lat="45.97061" lon="6.33964">
        <ele>1397.114</ele>
        <time>2013-07-17T07:08:31Z</time>
      </trkpt>
      <trkpt lat="45.97053" lon="6.33941">
        <ele>1398.724</ele>
        <time>2013-07-17T07:08:37Z</time>
      </trkpt>
      <trkpt lat="45.97046" lon="6.33922">
        <ele>1400.247</ele>
        <time>2013-07-17T07:08:42Z</time>
      </trkpt>
      <trkpt lat="45.97044" lon="6.33896">
        <ele>1401.902</ele>
        <time>2013-07-17T07:08:49Z</time>
      </trkpt>
      <trkpt lat="45.97038" lon="6.33872">
        <ele>1403.779</ele>
        <time>2013-07-17T07:08:56Z</time>
      </trkpt>
      <trkpt lat="45.97029" lon="6.33844">
        <ele>1405.669</ele>
        <time>2013-07-17T07:09:04Z</time>
      </trkpt>
      <trkpt lat="45.97021" lon="6.33818">
        <ele>1407.613</ele>
        <time>2013-07-17T07:09:12Z</time>
      </trkpt>
      <trkpt lat="45.97015" lon="6.338">
        <ele>1408.981</ele>
        <time>2013-07-17T07:09:18Z</time>
      </trkpt>
      <trkpt lat="45.9701" lon="6.33774">
        <ele>1410.791</ele>
        <time>2013-07-17T07:09:25Z</time>
      </trkpt>
      <trkpt lat="45.97" lon="6.33747">
        <ele>1412.658</ele>
        <time>2013-07-17T07:09:33Z</time>
      </trkpt>
      <trkpt lat="45.9699" lon="6.33722">
        <ele>1414.465</ele>
        <time>2013-07-17T07:09:41Z</time>
      </trkpt>
      <trkpt lat="45.96982" lon="6.33695">
        <ele>1416.417</ele>
        <time>2013-07-17T07:09:49Z</time>
      </trkpt>
      <trkpt lat="45.96976" lon="6.33669">
        <ele>1418.297</ele>
        <time>2013-07-17T07:09:56Z</time>
      </trkpt>
      <trkpt lat="45.9697" lon="6.33654">
        <ele>1418.835</ele>
        <time>2013-07-17T07:10:01Z</time>
      </trkpt>
      <trkpt lat="45.9696" lon="6.33627">
        <ele>1418.119</ele>
        <time>2013-07-17T07:10:06Z</time>
      </trkpt>
      <trkpt lat="45.96958" lon="6.3362">
        <ele>1417.94</ele>
        <time>2013-07-17T07:10:07Z</time>
      </trkpt>
      <trkpt lat="45.96943" lon="6.33593">
        <ele>1416.63</ele>
        <time>2013-07-17T07:10:11Z</time>
      </trkpt>
      <trkpt lat="45.96913" lon="6.33547">
        <ele>1415.443</ele>
        <time>2013-07-17T07:10:18Z</time>
      </trkpt>
      <trkpt lat="45.9691" lon="6.33542">
        <ele>1415.269</ele>
        <time>2013-07-17T07:10:19Z</time>
      </trkpt>
      <trkpt lat="45.96895" lon="6.33516">
        <ele>1416.111</ele>
        <time>2013-07-17T07:10:25Z</time>
      </trkpt>
      <trkpt lat="45.96882" lon="6.33496">
        <ele>1417.832</ele>
        <time>2013-07-17T07:10:32Z</time>
      </trkpt>
      <trkpt lat="45.96865" lon="6.33473">
        <ele>1419.927</ele>
        <time>2013-07-17T07:10:40Z</time>
      </trkpt>
      <trkpt lat="45.96852" lon="6.33458">
        <ele>1421.039</ele>
        <time>2013-07-17T07:10:46Z</time>
      </trkpt>
      <trkpt lat="45.96833" lon="6.33437">
        <ele>1424.06</ele>
        <time>2013-07-17T07:10:55Z</time>
      </trkpt>
      <trkpt lat="45.96818" lon="6.33418">
        <ele>1426.263</ele>
        <time>2013-07-17T07:11:03Z</time>
      </trkpt>
      <trkpt lat="45.96805" lon="6.33401">
        <ele>1428.214</ele>
        <time>2013-07-17T07:11:10Z</time>
      </trkpt>
      <trkpt lat="45.9679" lon="6.33382">
        <ele>1430.615</ele>
        <time>2013-07-17T07:11:18Z</time>
      </trkpt>
      <trkpt lat="45.96778" lon="6.33369">
        <ele>1432.184</ele>
        <time>2013-07-17T07:11:23Z</time>
      </trkpt>
      <trkpt lat="45.96766" lon="6.3335">
        <ele>1433.14</ele>
        <time>2013-07-17T07:11:29Z</time>
      </trkpt>
      <trkpt lat="45.96749" lon="6.33326">
        <ele>1434.322</ele>
        <time>2013-07-17T07:11:37Z</time>
      </trkpt>
      <trkpt lat="45.96739" lon="6.3331">
        <ele>1435.016</ele>
        <time>2013-07-17T07:11:42Z</time>
      </trkpt>
      <trkpt lat="45.96725" lon="6.33293">
        <ele>1436.81</ele>
        <time>2013-07-17T07:11:49Z</time>
      </trkpt>
      <trkpt lat="45.96709" lon="6.33273">
        <ele>1439.625</ele>
        <time>2013-07-17T07:11:57Z</time>
      </trkpt>
      <trkpt lat="45.96699" lon="6.3326">
        <ele>1440.861</ele>
        <time>2013-07-17T07:12:03Z</time>
      </trkpt>
      <trkpt lat="45.96681" lon="6.33238">
        <ele>1442.075</ele>
        <time>2013-07-17T07:12:12Z</time>
      </trkpt>
      <trkpt lat="45.96668" lon="6.33215">
        <ele>1443.281</ele>
        <time>2013-07-17T07:12:20Z</time>
      </trkpt>
      <trkpt lat="45.96666" lon="6.33207">
        <ele>1443.598</ele>
        <time>2013-07-17T07:12:26Z</time>
      </trkpt>
      <trkpt lat="45.96665" lon="6.33206">
        <ele>1443.583</ele>
        <time>2013-07-17T07:12:29Z</time>
      </trkpt>
      <trkpt lat="45.96668" lon="6.33192">
        <ele>1443.676</ele>
        <time>2013-07-17T07:12:36Z</time>
      </trkpt>
      <trkpt lat="45.96669" lon="6.33179">
        <ele>1443.88</ele>
        <time>2013-07-17T07:12:43Z</time>
      </trkpt>
      <trkpt lat="45.96669" lon="6.3318">
        <ele>1446.247</ele>
        <time>2013-07-17T07:20:07Z</time>
      </trkpt>
      <trkpt lat="45.96661" lon="6.33171">
        <ele>1447.366</ele>
        <time>2013-07-17T07:22:10Z</time>
      </trkpt>
      <trkpt lat="45.96644" lon="6.33152">
        <ele>1447.13</ele>
        <time>2013-07-17T07:22:16Z</time>
      </trkpt>
      <trkpt lat="45.96631" lon="6.33132">
        <ele>1446.579</ele>
        <time>2013-07-17T07:22:20Z</time>
      </trkpt>
      <trkpt lat="45.96618" lon="6.33116">
        <ele>1446.474</ele>
        <time>2013-07-17T07:22:23Z</time>
      </trkpt>
      <trkpt lat="45.96583" lon="6.33067">
        <ele>1445.399</ele>
        <time>2013-07-17T07:22:30Z</time>
      </trkpt>
      <trkpt lat="45.9654" lon="6.32997">
        <ele>1443.299</ele>
        <time>2013-07-17T07:22:38Z</time>
      </trkpt>
      <trkpt lat="45.96485" lon="6.32908">
        <ele>1441.539</ele>
        <time>2013-07-17T07:22:48Z</time>
      </trkpt>
      <trkpt lat="45.96444" lon="6.32851">
        <ele>1440.239</ele>
        <time>2013-07-17T07:22:55Z</time>
      </trkpt>
      <trkpt lat="45.964" lon="6.32781">
        <ele>1438.807</ele>
        <time>2013-07-17T07:23:03Z</time>
      </trkpt>
      <trkpt lat="45.96351" lon="6.327">
        <ele>1437.106</ele>
        <time>2013-07-17T07:23:12Z</time>
      </trkpt>
      <trkpt lat="45.9634" lon="6.32681">
        <ele>1436.32</ele>
        <time>2013-07-17T07:23:14Z</time>
      </trkpt>
      <trkpt lat="45.9633" lon="6.32661">
        <ele>1436.404</ele>
        <time>2013-07-17T07:23:16Z</time>
      </trkpt>
      <trkpt lat="45.96289" lon="6.32589">
        <ele>1434.695</ele>
        <time>2013-07-17T07:23:23Z</time>
      </trkpt>
      <trkpt lat="45.96249" lon="6.32518">
        <ele>1430.977</ele>
        <time>2013-07-17T07:23:29Z</time>
      </trkpt>
      <trkpt lat="45.96191" lon="6.32414">
        <ele>1424.508</ele>
        <time>2013-07-17T07:23:37Z</time>
      </trkpt>
      <trkpt lat="45.96142" lon="6.32331">
        <ele>1422.56</ele>
        <time>2013-07-17T07:23:44Z</time>
      </trkpt>
      <trkpt lat="45.96111" lon="6.32286">
        <ele>1422.703</ele>
        <time>2013-07-17T07:23:49Z</time>
      </trkpt>
      <trkpt lat="45.96072" lon="6.32233">
        <ele>1423.7</ele>
        <time>2013-07-17T07:23:56Z</time>
      </trkpt>
      <trkpt lat="45.96036" lon="6.32187">
        <ele>1423.89</ele>
        <time>2013-07-17T07:24:03Z</time>
      </trkpt>
      <trkpt lat="45.95998" lon="6.32142">
        <ele>1425.321</ele>
        <time>2013-07-17T07:24:10Z</time>
      </trkpt>
      <trkpt lat="45.95961" lon="6.32097">
        <ele>1423.656</ele>
        <time>2013-07-17T07:24:16Z</time>
      </trkpt>
      <trkpt lat="45.95918" lon="6.32043">
        <ele>1421.33</ele>
        <time>2013-07-17T07:24:22Z</time>
      </trkpt>
      <trkpt lat="45.95878" lon="6.31972">
        <ele>1417.323</ele>
        <time>2013-07-17T07:24:28Z</time>
      </trkpt>
      <trkpt lat="45.95836" lon="6.31893">
        <ele>1412.771</ele>
        <time>2013-07-17T07:24:34Z</time>
      </trkpt>
      <trkpt lat="45.95804" lon="6.31836">
        <ele>1408.237</ele>
        <time>2013-07-17T07:24:38Z</time>
      </trkpt>
      <trkpt lat="45.9579" lon="6.31791">
        <ele>1404.697</ele>
        <time>2013-07-17T07:24:41Z</time>
      </trkpt>
      <trkpt lat="45.95788" lon="6.31774">
        <ele>1403.391</ele>
        <time>2013-07-17T07:24:42Z</time>
      </trkpt>
      <trkpt lat="45.95773" lon="6.31686">
        <ele>1398.727</ele>
        <time>2013-07-17T07:24:47Z</time>
      </trkpt>
      <trkpt lat="45.9577" lon="6.31668">
        <ele>1397.617</ele>
        <time>2013-07-17T07:24:48Z</time>
      </trkpt>
      <trkpt lat="45.95741" lon="6.31579">
        <ele>1391.957</ele>
        <time>2013-07-17T07:24:53Z</time>
      </trkpt>
      <trkpt lat="45.95725" lon="6.31546">
        <ele>1389.814</ele>
        <time>2013-07-17T07:24:55Z</time>
      </trkpt>
      <trkpt lat="45.95711" lon="6.31493">
        <ele>1386.475</ele>
        <time>2013-07-17T07:24:58Z</time>
      </trkpt>
      <trkpt lat="45.95712" lon="6.31438">
        <ele>1382.057</ele>
        <time>2013-07-17T07:25:01Z</time>
      </trkpt>
      <trkpt lat="45.95711" lon="6.31419">
        <ele>1380.716</ele>
        <time>2013-07-17T07:25:02Z</time>
      </trkpt>
      <trkpt lat="45.95703" lon="6.31318">
        <ele>1374.795</ele>
        <time>2013-07-17T07:25:07Z</time>
      </trkpt>
      <trkpt lat="45.95689" lon="6.3124">
        <ele>1370.61</ele>
        <time>2013-07-17T07:25:11Z</time>
      </trkpt>
      <trkpt lat="45.9569" lon="6.3117">
        <ele>1368.357</ele>
        <time>2013-07-17T07:25:15Z</time>
      </trkpt>
      <trkpt lat="45.95701" lon="6.31117">
        <ele>1365.506</ele>
        <time>2013-07-17T07:25:18Z</time>
      </trkpt>
      <trkpt lat="45.95726" lon="6.31051">
        <ele>1361.684</ele>
        <time>2013-07-17T07:25:22Z</time>
      </trkpt>
      <trkpt lat="45.95741" lon="6.31008">
        <ele>1360.52</ele>
        <time>2013-07-17T07:25:25Z</time>
      </trkpt>
      <trkpt lat="45.95751" lon="6.30961">
        <ele>1361.834</ele>
        <time>2013-07-17T07:25:29Z</time>
      </trkpt>
      <trkpt lat="45.95758" lon="6.30932">
        <ele>1364.173</ele>
        <time>2013-07-17T07:25:33Z</time>
      </trkpt>
      <trkpt lat="45.95764" lon="6.30898">
        <ele>1366.453</ele>
        <time>2013-07-17T07:25:39Z</time>
      </trkpt>
      <trkpt lat="45.95766" lon="6.30853">
        <ele>1369.431</ele>
        <time>2013-07-17T07:25:47Z</time>
      </trkpt>
      <trkpt lat="45.95767" lon="6.30825">
        <ele>1371.335</ele>
        <time>2013-07-17T07:25:52Z</time>
      </trkpt>
      <trkpt lat="45.95773" lon="6.30783">
        <ele>1374.7</ele>
        <time>2013-07-17T07:26:00Z</time>
      </trkpt>
      <trkpt lat="45.95779" lon="6.30743">
        <ele>1378.077</ele>
        <time>2013-07-17T07:26:08Z</time>
      </trkpt>
      <trkpt lat="45.95786" lon="6.30709">
        <ele>1380.627</ele>
        <time>2013-07-17T07:26:15Z</time>
      </trkpt>
      <trkpt lat="45.95791" lon="6.30679">
        <ele>1383.151</ele>
        <time>2013-07-17T07:26:21Z</time>
      </trkpt>
      <trkpt lat="45.95793" lon="6.30667">
        <ele>1384.395</ele>
        <time>2013-07-17T07:26:24Z</time>
      </trkpt>
      <trkpt lat="45.95803" lon="6.30639">
        <ele>1387.077</ele>
        <time>2013-07-17T07:26:32Z</time>
      </trkpt>
      <trkpt lat="45.95812" lon="6.3061">
        <ele>1389.454</ele>
        <time>2013-07-17T07:26:40Z</time>
      </trkpt>
      <trkpt lat="45.95822" lon="6.30578">
        <ele>1391.934</ele>
        <time>2013-07-17T07:26:49Z</time>
      </trkpt>
      <trkpt lat="45.95833" lon="6.30543">
        <ele>1394.937</ele>
        <time>2013-07-17T07:26:59Z</time>
      </trkpt>
      <trkpt lat="45.95842" lon="6.30521">
        <ele>1395.818</ele>
        <time>2013-07-17T07:27:05Z</time>
      </trkpt>
      <trkpt lat="45.95853" lon="6.30511">
        <ele>1395.597</ele>
        <time>2013-07-17T07:27:08Z</time>
      </trkpt>
      <trkpt lat="45.95881" lon="6.30494">
        <ele>1393.504</ele>
        <time>2013-07-17T07:27:13Z</time>
      </trkpt>
      <trkpt lat="45.95895" lon="6.30482">
        <ele>1392.463</ele>
        <time>2013-07-17T07:27:15Z</time>
      </trkpt>
      <trkpt lat="45.95928" lon="6.30444">
        <ele>1389.129</ele>
        <time>2013-07-17T07:27:19Z</time>
      </trkpt>
      <trkpt lat="45.95941" lon="6.30415">
        <ele>1387.243</ele>
        <time>2013-07-17T07:27:21Z</time>
      </trkpt>
      <trkpt lat="45.95967" lon="6.30372">
        <ele>1383.237</ele>
        <time>2013-07-17T07:27:24Z</time>
      </trkpt>
      <trkpt lat="45.96012" lon="6.30331">
        <ele>1378.568</ele>
        <time>2013-07-17T07:27:28Z</time>
      </trkpt>
      <trkpt lat="45.9604" lon="6.30282">
        <ele>1371.927</ele>
        <time>2013-07-17T07:27:32Z</time>
      </trkpt>
      <trkpt lat="45.96089" lon="6.30265">
        <ele>1367.103</ele>
        <time>2013-07-17T07:27:36Z</time>
      </trkpt>
      <trkpt lat="45.96113" lon="6.3027">
        <ele>1364.633</ele>
        <time>2013-07-17T07:27:38Z</time>
      </trkpt>
      <trkpt lat="45.96145" lon="6.30281">
        <ele>1362.208</ele>
        <time>2013-07-17T07:27:40Z</time>
      </trkpt>
      <trkpt lat="45.96196" lon="6.30251">
        <ele>1356.12</ele>
        <time>2013-07-17T07:27:44Z</time>
      </trkpt>
      <trkpt lat="45.96243" lon="6.30203">
        <ele>1350.928</ele>
        <time>2013-07-17T07:27:48Z</time>
      </trkpt>
      <trkpt lat="45.96285" lon="6.30158">
        <ele>1345.378</ele>
        <time>2013-07-17T07:27:52Z</time>
      </trkpt>
      <trkpt lat="45.96314" lon="6.30164">
        <ele>1339.353</ele>
        <time>2013-07-17T07:27:55Z</time>
      </trkpt>
      <trkpt lat="45.96332" lon="6.30186">
        <ele>1336.834</ele>
        <time>2013-07-17T07:27:57Z</time>
      </trkpt>
      <trkpt lat="45.96382" lon="6.30241">
        <ele>1331.591</ele>
        <time>2013-07-17T07:28:02Z</time>
      </trkpt>
      <trkpt lat="45.96418" lon="6.30258">
        <ele>1328.313</ele>
        <time>2013-07-17T07:28:05Z</time>
      </trkpt>
      <trkpt lat="45.9645" lon="6.30283">
        <ele>1323.953</ele>
        <time>2013-07-17T07:28:08Z</time>
      </trkpt>
      <trkpt lat="45.96473" lon="6.3029">
        <ele>1319.013</ele>
        <time>2013-07-17T07:28:11Z</time>
      </trkpt>
      <trkpt lat="45.96475" lon="6.30266">
        <ele>1315.799</ele>
        <time>2013-07-17T07:28:13Z</time>
      </trkpt>
      <trkpt lat="45.9646" lon="6.30248">
        <ele>1314.043</ele>
        <time>2013-07-17T07:28:15Z</time>
      </trkpt>
      <trkpt lat="45.96452" lon="6.30241">
        <ele>1313.331</ele>
        <time>2013-07-17T07:28:16Z</time>
      </trkpt>
      <trkpt lat="45.96436" lon="6.30228">
        <ele>1312.708</ele>
        <time>2013-07-17T07:28:18Z</time>
      </trkpt>
      <trkpt lat="45.96417" lon="6.30215">
        <ele>1311.498</ele>
        <time>2013-07-17T07:28:20Z</time>
      </trkpt>
      <trkpt lat="45.96384" lon="6.30168">
        <ele>1307.859</ele>
        <time>2013-07-17T07:28:24Z</time>
      </trkpt>
      <trkpt lat="45.96377" lon="6.30152">
        <ele>1306.594</ele>
        <time>2013-07-17T07:28:25Z</time>
      </trkpt>
      <trkpt lat="45.96356" lon="6.30102">
        <ele>1303.396</ele>
        <time>2013-07-17T07:28:28Z</time>
      </trkpt>
      <trkpt lat="45.96328" lon="6.3006">
        <ele>1300.549</ele>
        <time>2013-07-17T07:28:31Z</time>
      </trkpt>
      <trkpt lat="45.96287" lon="6.30041">
        <ele>1292.781</ele>
        <time>2013-07-17T07:28:35Z</time>
      </trkpt>
      <trkpt lat="45.96253" lon="6.30056">
        <ele>1290.262</ele>
        <time>2013-07-17T07:28:38Z</time>
      </trkpt>
      <trkpt lat="45.96241" lon="6.30067">
        <ele>1289.132</ele>
        <time>2013-07-17T07:28:39Z</time>
      </trkpt>
      <trkpt lat="45.96179" lon="6.30113">
        <ele>1284.042</ele>
        <time>2013-07-17T07:28:44Z</time>
      </trkpt>
      <trkpt lat="45.9617" lon="6.30125">
        <ele>1282.781</ele>
        <time>2013-07-17T07:28:45Z</time>
      </trkpt>
      <trkpt lat="45.9614" lon="6.30131">
        <ele>1278.938</ele>
        <time>2013-07-17T07:28:48Z</time>
      </trkpt>
      <trkpt lat="45.96126" lon="6.30112">
        <ele>1276.071</ele>
        <time>2013-07-17T07:28:50Z</time>
      </trkpt>
      <trkpt lat="45.961" lon="6.30088">
        <ele>1272.304</ele>
        <time>2013-07-17T07:28:53Z</time>
      </trkpt>
      <trkpt lat="45.96059" lon="6.30085">
        <ele>1267.854</ele>
        <time>2013-07-17T07:28:57Z</time>
      </trkpt>
      <trkpt lat="45.96054" lon="6.3007">
        <ele>1265.024</ele>
        <time>2013-07-17T07:28:59Z</time>
      </trkpt>
      <trkpt lat="45.96074" lon="6.30065">
        <ele>1262.965</ele>
        <time>2013-07-17T07:29:02Z</time>
      </trkpt>
      <trkpt lat="45.96095" lon="6.30066">
        <ele>1261.913</ele>
        <time>2013-07-17T07:29:05Z</time>
      </trkpt>
      <trkpt lat="45.96116" lon="6.30075">
        <ele>1261.415</ele>
        <time>2013-07-17T07:29:07Z</time>
      </trkpt>
      <trkpt lat="45.96147" lon="6.30097">
        <ele>1260.248</ele>
        <time>2013-07-17T07:29:10Z</time>
      </trkpt>
      <trkpt lat="45.96166" lon="6.30092">
        <ele>1258.78</ele>
        <time>2013-07-17T07:29:12Z</time>
      </trkpt>
      <trkpt lat="45.96188" lon="6.30059">
        <ele>1256.442</ele>
        <time>2013-07-17T07:29:15Z</time>
      </trkpt>
      <trkpt lat="45.9623" lon="6.29991">
        <ele>1251.85</ele>
        <time>2013-07-17T07:29:20Z</time>
      </trkpt>
      <trkpt lat="45.96268" lon="6.29959">
        <ele>1248.174</ele>
        <time>2013-07-17T07:29:24Z</time>
      </trkpt>
      <trkpt lat="45.96318" lon="6.29942">
        <ele>1244.892</ele>
        <time>2013-07-17T07:29:28Z</time>
      </trkpt>
      <trkpt lat="45.96368" lon="6.29955">
        <ele>1239.498</ele>
        <time>2013-07-17T07:29:32Z</time>
      </trkpt>
      <trkpt lat="45.96379" lon="6.29963">
        <ele>1238.055</ele>
        <time>2013-07-17T07:29:33Z</time>
      </trkpt>
      <trkpt lat="45.96401" lon="6.29978">
        <ele>1235.646</ele>
        <time>2013-07-17T07:29:35Z</time>
      </trkpt>
      <trkpt lat="45.96449" lon="6.29994">
        <ele>1230.504</ele>
        <time>2013-07-17T07:29:39Z</time>
      </trkpt>
      <trkpt lat="45.96461" lon="6.29995">
        <ele>1228.99</ele>
        <time>2013-07-17T07:29:40Z</time>
      </trkpt>
      <trkpt lat="45.96493" lon="6.3001">
        <ele>1224.742</ele>
        <time>2013-07-17T07:29:43Z</time>
      </trkpt>
      <trkpt lat="45.9651" lon="6.30035">
        <ele>1222.621</ele>
        <time>2013-07-17T07:29:45Z</time>
      </trkpt>
      <trkpt lat="45.96528" lon="6.3004">
        <ele>1220.241</ele>
        <time>2013-07-17T07:29:47Z</time>
      </trkpt>
      <trkpt lat="45.96535" lon="6.30032">
        <ele>1219.14</ele>
        <time>2013-07-17T07:29:48Z</time>
      </trkpt>
      <trkpt lat="45.96524" lon="6.30006">
        <ele>1216.271</ele>
        <time>2013-07-17T07:29:52Z</time>
      </trkpt>
      <trkpt lat="45.96507" lon="6.29987">
        <ele>1215.167</ele>
        <time>2013-07-17T07:29:54Z</time>
      </trkpt>
      <trkpt lat="45.96496" lon="6.29967">
        <ele>1214.415</ele>
        <time>2013-07-17T07:29:56Z</time>
      </trkpt>
      <trkpt lat="45.96474" lon="6.29942">
        <ele>1213.224</ele>
        <time>2013-07-17T07:29:59Z</time>
      </trkpt>
      <trkpt lat="45.96436" lon="6.29891">
        <ele>1209.826</ele>
        <time>2013-07-17T07:30:03Z</time>
      </trkpt>
      <trkpt lat="45.96383" lon="6.29846">
        <ele>1205.393</ele>
        <time>2013-07-17T07:30:07Z</time>
      </trkpt>
      <trkpt lat="45.96348" lon="6.2985">
        <ele>1202.279</ele>
        <time>2013-07-17T07:30:10Z</time>
      </trkpt>
      <trkpt lat="45.96328" lon="6.29853">
        <ele>1199.968</ele>
        <time>2013-07-17T07:30:12Z</time>
      </trkpt>
      <trkpt lat="45.96325" lon="6.29841">
        <ele>1197.891</ele>
        <time>2013-07-17T07:30:14Z</time>
      </trkpt>
      <trkpt lat="45.96336" lon="6.29831">
        <ele>1196.221</ele>
        <time>2013-07-17T07:30:16Z</time>
      </trkpt>
      <trkpt lat="45.96353" lon="6.29834">
        <ele>1195.38</ele>
        <time>2013-07-17T07:30:18Z</time>
      </trkpt>
      <trkpt lat="45.96361" lon="6.29835">
        <ele>1194.957</ele>
        <time>2013-07-17T07:30:19Z</time>
      </trkpt>
      <trkpt lat="45.96377" lon="6.29834">
        <ele>1194.032</ele>
        <time>2013-07-17T07:30:21Z</time>
      </trkpt>
      <trkpt lat="45.96419" lon="6.29844">
        <ele>1191.917</ele>
        <time>2013-07-17T07:30:25Z</time>
      </trkpt>
      <trkpt lat="45.96465" lon="6.29851">
        <ele>1189.391</ele>
        <time>2013-07-17T07:30:29Z</time>
      </trkpt>
      <trkpt lat="45.96478" lon="6.29852">
        <ele>1188.551</ele>
        <time>2013-07-17T07:30:30Z</time>
      </trkpt>
      <trkpt lat="45.96536" lon="6.2988">
        <ele>1184.046</ele>
        <time>2013-07-17T07:30:35Z</time>
      </trkpt>
      <trkpt lat="45.96577" lon="6.29912">
        <ele>1180.741</ele>
        <time>2013-07-17T07:30:38Z</time>
      </trkpt>
      <trkpt lat="45.96589" lon="6.29926">
        <ele>1179.652</ele>
        <time>2013-07-17T07:30:39Z</time>
      </trkpt>
      <trkpt lat="45.96609" lon="6.2999">
        <ele>1175.088</ele>
        <time>2013-07-17T07:30:43Z</time>
      </trkpt>
      <trkpt lat="45.96628" lon="6.30061">
        <ele>1169.816</ele>
        <time>2013-07-17T07:30:48Z</time>
      </trkpt>
      <trkpt lat="45.9664" lon="6.30059">
        <ele>1167.489</ele>
        <time>2013-07-17T07:30:50Z</time>
      </trkpt>
      <trkpt lat="45.9664" lon="6.30036">
        <ele>1164.975</ele>
        <time>2013-07-17T07:30:53Z</time>
      </trkpt>
      <trkpt lat="45.96623" lon="6.30009">
        <ele>1164.119</ele>
        <time>2013-07-17T07:30:55Z</time>
      </trkpt>
      <trkpt lat="45.96616" lon="6.29979">
        <ele>1163.046</ele>
        <time>2013-07-17T07:30:57Z</time>
      </trkpt>
      <trkpt lat="45.96613" lon="6.29947">
        <ele>1161.79</ele>
        <time>2013-07-17T07:30:59Z</time>
      </trkpt>
      <trkpt lat="45.96598" lon="6.2986">
        <ele>1157.893</ele>
        <time>2013-07-17T07:31:04Z</time>
      </trkpt>
      <trkpt lat="45.96574" lon="6.29799">
        <ele>1153.949</ele>
        <time>2013-07-17T07:31:08Z</time>
      </trkpt>
      <trkpt lat="45.9654" lon="6.29735">
        <ele>1147.229</ele>
        <time>2013-07-17T07:31:12Z</time>
      </trkpt>
      <trkpt lat="45.96496" lon="6.29711">
        <ele>1140.488</ele>
        <time>2013-07-17T07:31:16Z</time>
      </trkpt>
      <trkpt lat="45.96457" lon="6.29683">
        <ele>1135.657</ele>
        <time>2013-07-17T07:31:20Z</time>
      </trkpt>
      <trkpt lat="45.96435" lon="6.29662">
        <ele>1133.008</ele>
        <time>2013-07-17T07:31:22Z</time>
      </trkpt>
      <trkpt lat="45.96383" lon="6.29631">
        <ele>1129.085</ele>
        <time>2013-07-17T07:31:26Z</time>
      </trkpt>
      <trkpt lat="45.96318" lon="6.29585">
        <ele>1121.268</ele>
        <time>2013-07-17T07:31:31Z</time>
      </trkpt>
      <trkpt lat="45.96266" lon="6.29577">
        <ele>1114.829</ele>
        <time>2013-07-17T07:31:35Z</time>
      </trkpt>
      <trkpt lat="45.96256" lon="6.2958">
        <ele>1112.291</ele>
        <time>2013-07-17T07:31:37Z</time>
      </trkpt>
      <trkpt lat="45.9626" lon="6.29564">
        <ele>1110.407</ele>
        <time>2013-07-17T07:31:39Z</time>
      </trkpt>
      <trkpt lat="45.96276" lon="6.29554">
        <ele>1108.367</ele>
        <time>2013-07-17T07:31:41Z</time>
      </trkpt>
      <trkpt lat="45.96295" lon="6.29552">
        <ele>1106.967</ele>
        <time>2013-07-17T07:31:43Z</time>
      </trkpt>
      <trkpt lat="45.96348" lon="6.29554">
        <ele>1102.997</ele>
        <time>2013-07-17T07:31:48Z</time>
      </trkpt>
      <trkpt lat="45.96361" lon="6.29561">
        <ele>1101.826</ele>
        <time>2013-07-17T07:31:49Z</time>
      </trkpt>
      <trkpt lat="45.96415" lon="6.29581">
        <ele>1097.191</ele>
        <time>2013-07-17T07:31:53Z</time>
      </trkpt>
      <trkpt lat="45.96483" lon="6.29594">
        <ele>1090.077</ele>
        <time>2013-07-17T07:31:58Z</time>
      </trkpt>
      <trkpt lat="45.96553" lon="6.29584">
        <ele>1082.503</ele>
        <time>2013-07-17T07:32:03Z</time>
      </trkpt>
      <trkpt lat="45.96567" lon="6.29576">
        <ele>1081.682</ele>
        <time>2013-07-17T07:32:04Z</time>
      </trkpt>
      <trkpt lat="45.96637" lon="6.29564">
        <ele>1071.535</ele>
        <time>2013-07-17T07:32:09Z</time>
      </trkpt>
      <trkpt lat="45.96661" lon="6.29586">
        <ele>1068.542</ele>
        <time>2013-07-17T07:32:11Z</time>
      </trkpt>
      <trkpt lat="45.9667" lon="6.29607">
        <ele>1065.253</ele>
        <time>2013-07-17T07:32:13Z</time>
      </trkpt>
      <trkpt lat="45.96681" lon="6.29604">
        <ele>1062.399</ele>
        <time>2013-07-17T07:32:15Z</time>
      </trkpt>
      <trkpt lat="45.96681" lon="6.29577">
        <ele>1059.83</ele>
        <time>2013-07-17T07:32:18Z</time>
      </trkpt>
      <trkpt lat="45.96661" lon="6.29559">
        <ele>1058.791</ele>
        <time>2013-07-17T07:32:20Z</time>
      </trkpt>
      <trkpt lat="45.96635" lon="6.29533">
        <ele>1057.357</ele>
        <time>2013-07-17T07:32:23Z</time>
      </trkpt>
      <trkpt lat="45.96591" lon="6.29517">
        <ele>1054.192</ele>
        <time>2013-07-17T07:32:27Z</time>
      </trkpt>
      <trkpt lat="45.96579" lon="6.29515">
        <ele>1053.175</ele>
        <time>2013-07-17T07:32:28Z</time>
      </trkpt>
      <trkpt lat="45.96555" lon="6.29515">
        <ele>1052.067</ele>
        <time>2013-07-17T07:32:30Z</time>
      </trkpt>
      <trkpt lat="45.96529" lon="6.29493">
        <ele>1047.341</ele>
        <time>2013-07-17T07:32:33Z</time>
      </trkpt>
      <trkpt lat="45.96507" lon="6.29462">
        <ele>1044.391</ele>
        <time>2013-07-17T07:32:36Z</time>
      </trkpt>
      <trkpt lat="45.96489" lon="6.29465">
        <ele>1042.825</ele>
        <time>2013-07-17T07:32:38Z</time>
      </trkpt>
      <trkpt lat="45.96471" lon="6.29453">
        <ele>1040.196</ele>
        <time>2013-07-17T07:32:41Z</time>
      </trkpt>
      <trkpt lat="45.96484" lon="6.29443">
        <ele>1039.325</ele>
        <time>2013-07-17T07:32:43Z</time>
      </trkpt>
      <trkpt lat="45.96499" lon="6.29444">
        <ele>1037.893</ele>
        <time>2013-07-17T07:32:45Z</time>
      </trkpt>
      <trkpt lat="45.96516" lon="6.2945">
        <ele>1036.524</ele>
        <time>2013-07-17T07:32:47Z</time>
      </trkpt>
      <trkpt lat="45.96553" lon="6.29474">
        <ele>1033.573</ele>
        <time>2013-07-17T07:32:51Z</time>
      </trkpt>
      <trkpt lat="45.966" lon="6.2947">
        <ele>1030.171</ele>
        <time>2013-07-17T07:32:55Z</time>
      </trkpt>
      <trkpt lat="45.96626" lon="6.29469">
        <ele>1027.866</ele>
        <time>2013-07-17T07:32:57Z</time>
      </trkpt>
      <trkpt lat="45.9668" lon="6.29489">
        <ele>1023.059</ele>
        <time>2013-07-17T07:33:01Z</time>
      </trkpt>
      <trkpt lat="45.96728" lon="6.29531">
        <ele>1017.445</ele>
        <time>2013-07-17T07:33:05Z</time>
      </trkpt>
      <trkpt lat="45.96739" lon="6.29547">
        <ele>1015.648</ele>
        <time>2013-07-17T07:33:06Z</time>
      </trkpt>
      <trkpt lat="45.96765" lon="6.29595">
        <ele>1011.078</ele>
        <time>2013-07-17T07:33:09Z</time>
      </trkpt>
      <trkpt lat="45.96784" lon="6.29667">
        <ele>1004.038</ele>
        <time>2013-07-17T07:33:13Z</time>
      </trkpt>
      <trkpt lat="45.96801" lon="6.29746">
        <ele>998.987</ele>
        <time>2013-07-17T07:33:17Z</time>
      </trkpt>
      <trkpt lat="45.96805" lon="6.29765">
        <ele>997.352</ele>
        <time>2013-07-17T07:33:18Z</time>
      </trkpt>
      <trkpt lat="45.96815" lon="6.29815">
        <ele>992.344</ele>
        <time>2013-07-17T07:33:21Z</time>
      </trkpt>
      <trkpt lat="45.96829" lon="6.29837">
        <ele>988.384</ele>
        <time>2013-07-17T07:33:23Z</time>
      </trkpt>
      <trkpt lat="45.96879" lon="6.299">
        <ele>982.538</ele>
        <time>2013-07-17T07:33:28Z</time>
      </trkpt>
      <trkpt lat="45.96906" lon="6.29911">
        <ele>979.75</ele>
        <time>2013-07-17T07:33:30Z</time>
      </trkpt>
      <trkpt lat="45.9692" lon="6.29911">
        <ele>978.184</ele>
        <time>2013-07-17T07:33:31Z</time>
      </trkpt>
      <trkpt lat="45.96948" lon="6.29909">
        <ele>976.185</ele>
        <time>2013-07-17T07:33:33Z</time>
      </trkpt>
      <trkpt lat="45.96979" lon="6.29891">
        <ele>971.759</ele>
        <time>2013-07-17T07:33:36Z</time>
      </trkpt>
      <trkpt lat="45.96987" lon="6.29863">
        <ele>969.3</ele>
        <time>2013-07-17T07:33:38Z</time>
      </trkpt>
      <trkpt lat="45.96987" lon="6.29847">
        <ele>968.875</ele>
        <time>2013-07-17T07:33:39Z</time>
      </trkpt>
      <trkpt lat="45.96987" lon="6.29814">
        <ele>967.385</ele>
        <time>2013-07-17T07:33:41Z</time>
      </trkpt>
      <trkpt lat="45.96988" lon="6.29745">
        <ele>964.551</ele>
        <time>2013-07-17T07:33:45Z</time>
      </trkpt>
      <trkpt lat="45.96996" lon="6.29673">
        <ele>959.721</ele>
        <time>2013-07-17T07:33:49Z</time>
      </trkpt>
      <trkpt lat="45.97002" lon="6.29656">
        <ele>958.591</ele>
        <time>2013-07-17T07:33:50Z</time>
      </trkpt>
      <trkpt lat="45.97042" lon="6.29549">
        <ele>951.803</ele>
        <time>2013-07-17T07:33:56Z</time>
      </trkpt>
      <trkpt lat="45.97049" lon="6.29531">
        <ele>950.637</ele>
        <time>2013-07-17T07:33:57Z</time>
      </trkpt>
      <trkpt lat="45.97068" lon="6.29502">
        <ele>948.573</ele>
        <time>2013-07-17T07:33:59Z</time>
      </trkpt>
      <trkpt lat="45.97099" lon="6.29438">
        <ele>941.801</ele>
        <time>2013-07-17T07:34:03Z</time>
      </trkpt>
      <trkpt lat="45.97129" lon="6.29397">
        <ele>938.334</ele>
        <time>2013-07-17T07:34:06Z</time>
      </trkpt>
      <trkpt lat="45.97177" lon="6.2936">
        <ele>933.397</ele>
        <time>2013-07-17T07:34:10Z</time>
      </trkpt>
      <trkpt lat="45.97231" lon="6.29327">
        <ele>926.967</ele>
        <time>2013-07-17T07:34:14Z</time>
      </trkpt>
      <trkpt lat="45.97244" lon="6.29318">
        <ele>925.351</ele>
        <time>2013-07-17T07:34:15Z</time>
      </trkpt>
      <trkpt lat="45.97281" lon="6.29283">
        <ele>921.56</ele>
        <time>2013-07-17T07:34:18Z</time>
      </trkpt>
      <trkpt lat="45.9735" lon="6.29234">
        <ele>914.759</ele>
        <time>2013-07-17T07:34:23Z</time>
      </trkpt>
      <trkpt lat="45.97388" lon="6.29203">
        <ele>909.296</ele>
        <time>2013-07-17T07:34:26Z</time>
      </trkpt>
      <trkpt lat="45.97441" lon="6.29181">
        <ele>903.27</ele>
        <time>2013-07-17T07:34:30Z</time>
      </trkpt>
      <trkpt lat="45.97454" lon="6.29174">
        <ele>901.749</ele>
        <time>2013-07-17T07:34:31Z</time>
      </trkpt>
      <trkpt lat="45.97524" lon="6.29131">
        <ele>895.313</ele>
        <time>2013-07-17T07:34:36Z</time>
      </trkpt>
      <trkpt lat="45.97574" lon="6.29095">
        <ele>888.944</ele>
        <time>2013-07-17T07:34:40Z</time>
      </trkpt>
      <trkpt lat="45.9761" lon="6.29083">
        <ele>883.044</ele>
        <time>2013-07-17T07:34:43Z</time>
      </trkpt>
      <trkpt lat="45.97633" lon="6.29086">
        <ele>879.388</ele>
        <time>2013-07-17T07:34:45Z</time>
      </trkpt>
      <trkpt lat="45.97668" lon="6.29075">
        <ele>873.48</ele>
        <time>2013-07-17T07:34:49Z</time>
      </trkpt>
      <trkpt lat="45.97673" lon="6.29072">
        <ele>871.658</ele>
        <time>2013-07-17T07:34:50Z</time>
      </trkpt>
      <trkpt lat="45.97666" lon="6.29066">
        <ele>869.396</ele>
        <time>2013-07-17T07:34:52Z</time>
      </trkpt>
      <trkpt lat="45.97643" lon="6.29062">
        <ele>868.259</ele>
        <time>2013-07-17T07:34:54Z</time>
      </trkpt>
      <trkpt lat="45.97605" lon="6.2904">
        <ele>866.218</ele>
        <time>2013-07-17T07:34:58Z</time>
      </trkpt>
      <trkpt lat="45.97573" lon="6.29031">
        <ele>864.888</ele>
        <time>2013-07-17T07:35:01Z</time>
      </trkpt>
      <trkpt lat="45.97539" lon="6.2903">
        <ele>862.429</ele>
        <time>2013-07-17T07:35:04Z</time>
      </trkpt>
      <trkpt lat="45.97477" lon="6.29048">
        <ele>857.932</ele>
        <time>2013-07-17T07:35:09Z</time>
      </trkpt>
      <trkpt lat="45.97463" lon="6.29053">
        <ele>856.626</ele>
        <time>2013-07-17T07:35:10Z</time>
      </trkpt>
      <trkpt lat="45.97418" lon="6.29043">
        <ele>851.993</ele>
        <time>2013-07-17T07:35:13Z</time>
      </trkpt>
      <trkpt lat="45.97362" lon="6.29021">
        <ele>847.214</ele>
        <time>2013-07-17T07:35:17Z</time>
      </trkpt>
      <trkpt lat="45.97304" lon="6.2902">
        <ele>842.198</ele>
        <time>2013-07-17T07:35:21Z</time>
      </trkpt>
      <trkpt lat="45.97275" lon="6.29015">
        <ele>839.161</ele>
        <time>2013-07-17T07:35:23Z</time>
      </trkpt>
      <trkpt lat="45.9723" lon="6.29021">
        <ele>831.829</ele>
        <time>2013-07-17T07:35:27Z</time>
      </trkpt>
      <trkpt lat="45.97226" lon="6.29">
        <ele>826.466</ele>
        <time>2013-07-17T07:35:30Z</time>
      </trkpt>
      <trkpt lat="45.97239" lon="6.28994">
        <ele>825.019</ele>
        <time>2013-07-17T07:35:32Z</time>
      </trkpt>
      <trkpt lat="45.97272" lon="6.28992">
        <ele>822.758</ele>
        <time>2013-07-17T07:35:36Z</time>
      </trkpt>
      <trkpt lat="45.97292" lon="6.28978">
        <ele>822.045</ele>
        <time>2013-07-17T07:35:38Z</time>
      </trkpt>
      <trkpt lat="45.97301" lon="6.28968">
        <ele>821.867</ele>
        <time>2013-07-17T07:35:39Z</time>
      </trkpt>
      <trkpt lat="45.97337" lon="6.28927">
        <ele>819.135</ele>
        <time>2013-07-17T07:35:43Z</time>
      </trkpt>
      <trkpt lat="45.9737" lon="6.28876">
        <ele>815.166</ele>
        <time>2013-07-17T07:35:47Z</time>
      </trkpt>
      <trkpt lat="45.97417" lon="6.2885">
        <ele>810.7</ele>
        <time>2013-07-17T07:35:51Z</time>
      </trkpt>
      <trkpt lat="45.97437" lon="6.28822">
        <ele>807.546</ele>
        <time>2013-07-17T07:35:53Z</time>
      </trkpt>
      <trkpt lat="45.97466" lon="6.2878">
        <ele>803.445</ele>
        <time>2013-07-17T07:35:56Z</time>
      </trkpt>
      <trkpt lat="45.97478" lon="6.28771">
        <ele>802.86</ele>
        <time>2013-07-17T07:35:57Z</time>
      </trkpt>
      <trkpt lat="45.97547" lon="6.28727">
        <ele>799.136</ele>
        <time>2013-07-17T07:36:03Z</time>
      </trkpt>
      <trkpt lat="45.97559" lon="6.28722">
        <ele>798.832</ele>
        <time>2013-07-17T07:36:04Z</time>
      </trkpt>
      <trkpt lat="45.97616" lon="6.28706">
        <ele>796.296</ele>
        <time>2013-07-17T07:36:09Z</time>
      </trkpt>
      <trkpt lat="45.97668" lon="6.28685">
        <ele>795.287</ele>
        <time>2013-07-17T07:36:14Z</time>
      </trkpt>
      <trkpt lat="45.97714" lon="6.28656">
        <ele>794.757</ele>
        <time>2013-07-17T07:36:19Z</time>
      </trkpt>
      <trkpt lat="45.97743" lon="6.28619">
        <ele>793.69</ele>
        <time>2013-07-17T07:36:23Z</time>
      </trkpt>
      <trkpt lat="45.97784" lon="6.2854">
        <ele>792.621</ele>
        <time>2013-07-17T07:36:30Z</time>
      </trkpt>
      <trkpt lat="45.97814" lon="6.28489">
        <ele>792.633</ele>
        <time>2013-07-17T07:36:35Z</time>
      </trkpt>
      <trkpt lat="45.97868" lon="6.28442">
        <ele>791.964</ele>
        <time>2013-07-17T07:36:42Z</time>
      </trkpt>
      <trkpt lat="45.97946" lon="6.28395">
        <ele>790.345</ele>
        <time>2013-07-17T07:36:51Z</time>
      </trkpt>
      <trkpt lat="45.97995" lon="6.28358">
        <ele>789.867</ele>
        <time>2013-07-17T07:36:57Z</time>
      </trkpt>
      <trkpt lat="45.9805" lon="6.28317">
        <ele>788.993</ele>
        <time>2013-07-17T07:37:04Z</time>
      </trkpt>
      <trkpt lat="45.98093" lon="6.28313">
        <ele>788.278</ele>
        <time>2013-07-17T07:37:09Z</time>
      </trkpt>
      <trkpt lat="45.98156" lon="6.28324">
        <ele>787.279</ele>
        <time>2013-07-17T07:37:16Z</time>
      </trkpt>
      <trkpt lat="45.98174" lon="6.28321">
        <ele>788.006</ele>
        <time>2013-07-17T07:37:18Z</time>
      </trkpt>
      <trkpt lat="45.98214" lon="6.28298">
        <ele>788.405</ele>
        <time>2013-07-17T07:37:23Z</time>
      </trkpt>
      <trkpt lat="45.98236" lon="6.28278">
        <ele>788.101</ele>
        <time>2013-07-17T07:37:26Z</time>
      </trkpt>
      <trkpt lat="45.98276" lon="6.2826">
        <ele>787.691</ele>
        <time>2013-07-17T07:37:31Z</time>
      </trkpt>
      <trkpt lat="45.98291" lon="6.28256">
        <ele>787.668</ele>
        <time>2013-07-17T07:37:33Z</time>
      </trkpt>
      <trkpt lat="45.98306" lon="6.28246">
        <ele>787.524</ele>
        <time>2013-07-17T07:37:35Z</time>
      </trkpt>
      <trkpt lat="45.98354" lon="6.28205">
        <ele>786.8</ele>
        <time>2013-07-17T07:37:41Z</time>
      </trkpt>
      <trkpt lat="45.9839" lon="6.28166">
        <ele>785.804</ele>
        <time>2013-07-17T07:37:46Z</time>
      </trkpt>
      <trkpt lat="45.98396" lon="6.28156">
        <ele>785.506</ele>
        <time>2013-07-17T07:37:47Z</time>
      </trkpt>
      <trkpt lat="45.98412" lon="6.28106">
        <ele>783.76</ele>
        <time>2013-07-17T07:37:51Z</time>
      </trkpt>
      <trkpt lat="45.98412" lon="6.28091">
        <ele>783.609</ele>
        <time>2013-07-17T07:37:52Z</time>
      </trkpt>
      <trkpt lat="45.98413" lon="6.28047">
        <ele>782.709</ele>
        <time>2013-07-17T07:37:55Z</time>
      </trkpt>
      <trkpt lat="45.98429" lon="6.27997">
        <ele>782.017</ele>
        <time>2013-07-17T07:37:59Z</time>
      </trkpt>
      <trkpt lat="45.98468" lon="6.27931">
        <ele>781.322</ele>
        <time>2013-07-17T07:38:06Z</time>
      </trkpt>
      <trkpt lat="45.98477" lon="6.27913">
        <ele>782.204</ele>
        <time>2013-07-17T07:38:08Z</time>
      </trkpt>
      <trkpt lat="45.98489" lon="6.27895">
        <ele>782.403</ele>
        <time>2013-07-17T07:38:10Z</time>
      </trkpt>
      <trkpt lat="45.98523" lon="6.27868">
        <ele>780.888</ele>
        <time>2013-07-17T07:38:14Z</time>
      </trkpt>
      <trkpt lat="45.98533" lon="6.27864">
        <ele>780.231</ele>
        <time>2013-07-17T07:38:15Z</time>
      </trkpt>
      <trkpt lat="45.98563" lon="6.27851">
        <ele>778.935</ele>
        <time>2013-07-17T07:38:18Z</time>
      </trkpt>
      <trkpt lat="45.98586" lon="6.27819">
        <ele>777.247</ele>
        <time>2013-07-17T07:38:21Z</time>
      </trkpt>
      <trkpt lat="45.98593" lon="6.2779">
        <ele>776.468</ele>
        <time>2013-07-17T07:38:23Z</time>
      </trkpt>
      <trkpt lat="45.98594" lon="6.27774">
        <ele>775.89</ele>
        <time>2013-07-17T07:38:24Z</time>
      </trkpt>
      <trkpt lat="45.98591" lon="6.2766">
        <ele>772.449</ele>
        <time>2013-07-17T07:38:31Z</time>
      </trkpt>
      <trkpt lat="45.98604" lon="6.2758">
        <ele>770.183</ele>
        <time>2013-07-17T07:38:36Z</time>
      </trkpt>
      <trkpt lat="45.98616" lon="6.27516">
        <ele>768.024</ele>
        <time>2013-07-17T07:38:40Z</time>
      </trkpt>
      <trkpt lat="45.98641" lon="6.27444">
        <ele>765.329</ele>
        <time>2013-07-17T07:38:45Z</time>
      </trkpt>
      <trkpt lat="45.98668" lon="6.27392">
        <ele>763.514</ele>
        <time>2013-07-17T07:38:49Z</time>
      </trkpt>
      <trkpt lat="45.98711" lon="6.27318">
        <ele>761.125</ele>
        <time>2013-07-17T07:38:55Z</time>
      </trkpt>
      <trkpt lat="45.98726" lon="6.27278">
        <ele>759.711</ele>
        <time>2013-07-17T07:38:58Z</time>
      </trkpt>
      <trkpt lat="45.98756" lon="6.27207">
        <ele>757.612</ele>
        <time>2013-07-17T07:39:03Z</time>
      </trkpt>
      <trkpt lat="45.98786" lon="6.27141">
        <ele>756.049</ele>
        <time>2013-07-17T07:39:08Z</time>
      </trkpt>
      <trkpt lat="45.98805" lon="6.27074">
        <ele>754.953</ele>
        <time>2013-07-17T07:39:13Z</time>
      </trkpt>
      <trkpt lat="45.98834" lon="6.26985">
        <ele>753.767</ele>
        <time>2013-07-17T07:39:20Z</time>
      </trkpt>
      <trkpt lat="45.98842" lon="6.26959">
        <ele>753.168</ele>
        <time>2013-07-17T07:39:22Z</time>
      </trkpt>
      <trkpt lat="45.98864" lon="6.26914">
        <ele>752.445</ele>
        <time>2013-07-17T07:39:26Z</time>
      </trkpt>
      <trkpt lat="45.9888" lon="6.26866">
        <ele>751.224</ele>
        <time>2013-07-17T07:39:30Z</time>
      </trkpt>
      <trkpt lat="45.98892" lon="6.26789">
        <ele>751.21</ele>
        <time>2013-07-17T07:39:36Z</time>
      </trkpt>
      <trkpt lat="45.98895" lon="6.26727">
        <ele>751.471</ele>
        <time>2013-07-17T07:39:41Z</time>
      </trkpt>
      <trkpt lat="45.98898" lon="6.26702">
        <ele>751.465</ele>
        <time>2013-07-17T07:39:43Z</time>
      </trkpt>
      <trkpt lat="45.98904" lon="6.26677">
        <ele>751.467</ele>
        <time>2013-07-17T07:39:45Z</time>
      </trkpt>
      <trkpt lat="45.98917" lon="6.26657">
        <ele>751.676</ele>
        <time>2013-07-17T07:39:47Z</time>
      </trkpt>
      <trkpt lat="45.98939" lon="6.26593">
        <ele>750.692</ele>
        <time>2013-07-17T07:39:52Z</time>
      </trkpt>
      <trkpt lat="45.98962" lon="6.2654">
        <ele>748.141</ele>
        <time>2013-07-17T07:39:56Z</time>
      </trkpt>
      <trkpt lat="45.99005" lon="6.26517">
        <ele>745.954</ele>
        <time>2013-07-17T07:40:00Z</time>
      </trkpt>
      <trkpt lat="45.99017" lon="6.26513">
        <ele>745.462</ele>
        <time>2013-07-17T07:40:01Z</time>
      </trkpt>
      <trkpt lat="45.99051" lon="6.26504">
        <ele>743.7</ele>
        <time>2013-07-17T07:40:04Z</time>
      </trkpt>
      <trkpt lat="45.99103" lon="6.26465">
        <ele>740.575</ele>
        <time>2013-07-17T07:40:09Z</time>
      </trkpt>
      <trkpt lat="45.99113" lon="6.26454">
        <ele>739.981</ele>
        <time>2013-07-17T07:40:10Z</time>
      </trkpt>
      <trkpt lat="45.99145" lon="6.26402">
        <ele>737.595</ele>
        <time>2013-07-17T07:40:14Z</time>
      </trkpt>
      <trkpt lat="45.99177" lon="6.26307">
        <ele>733.508</ele>
        <time>2013-07-17T07:40:20Z</time>
      </trkpt>
      <trkpt lat="45.9919" lon="6.26278">
        <ele>732.393</ele>
        <time>2013-07-17T07:40:22Z</time>
      </trkpt>
      <trkpt lat="45.99234" lon="6.26218">
        <ele>729.348</ele>
        <time>2013-07-17T07:40:27Z</time>
      </trkpt>
      <trkpt lat="45.99263" lon="6.26187">
        <ele>727.945</ele>
        <time>2013-07-17T07:40:30Z</time>
      </trkpt>
      <trkpt lat="45.99326" lon="6.26112">
        <ele>724.652</ele>
        <time>2013-07-17T07:40:37Z</time>
      </trkpt>
      <trkpt lat="45.9937" lon="6.26065">
        <ele>722.405</ele>
        <time>2013-07-17T07:40:42Z</time>
      </trkpt>
      <trkpt lat="45.99378" lon="6.26058">
        <ele>722.148</ele>
        <time>2013-07-17T07:40:43Z</time>
      </trkpt>
      <trkpt lat="45.99413" lon="6.2603">
        <ele>721.612</ele>
        <time>2013-07-17T07:40:47Z</time>
      </trkpt>
      <trkpt lat="45.99453" lon="6.25979">
        <ele>721.541</ele>
        <time>2013-07-17T07:40:52Z</time>
      </trkpt>
      <trkpt lat="45.99497" lon="6.25913">
        <ele>720.172</ele>
        <time>2013-07-17T07:40:58Z</time>
      </trkpt>
      <trkpt lat="45.99551" lon="6.25847">
        <ele>718.698</ele>
        <time>2013-07-17T07:41:05Z</time>
      </trkpt>
      <trkpt lat="45.99588" lon="6.2583">
        <ele>717.812</ele>
        <time>2013-07-17T07:41:09Z</time>
      </trkpt>
      <trkpt lat="45.99657" lon="6.25817">
        <ele>715.414</ele>
        <time>2013-07-17T07:41:16Z</time>
      </trkpt>
      <trkpt lat="45.99691" lon="6.25787">
        <ele>713.11</ele>
        <time>2013-07-17T07:41:20Z</time>
      </trkpt>
      <trkpt lat="45.99695" lon="6.25758">
        <ele>712.174</ele>
        <time>2013-07-17T07:41:22Z</time>
      </trkpt>
      <trkpt lat="45.99683" lon="6.2573">
        <ele>710.778</ele>
        <time>2013-07-17T07:41:24Z</time>
      </trkpt>
      <trkpt lat="45.9966" lon="6.25716">
        <ele>709.306</ele>
        <time>2013-07-17T07:41:26Z</time>
      </trkpt>
      <trkpt lat="45.99623" lon="6.25702">
        <ele>707.569</ele>
        <time>2013-07-17T07:41:29Z</time>
      </trkpt>
      <trkpt lat="45.996" lon="6.25673">
        <ele>705.148</ele>
        <time>2013-07-17T07:41:32Z</time>
      </trkpt>
      <trkpt lat="45.99603" lon="6.25646">
        <ele>703.641</ele>
        <time>2013-07-17T07:41:34Z</time>
      </trkpt>
      <trkpt lat="45.99624" lon="6.25637">
        <ele>701.863</ele>
        <time>2013-07-17T07:41:36Z</time>
      </trkpt>
      <trkpt lat="45.99646" lon="6.25646">
        <ele>700.383</ele>
        <time>2013-07-17T07:41:38Z</time>
      </trkpt>
      <trkpt lat="45.99688" lon="6.25654">
        <ele>698.563</ele>
        <time>2013-07-17T07:41:42Z</time>
      </trkpt>
      <trkpt lat="45.99708" lon="6.25636">
        <ele>697.721</ele>
        <time>2013-07-17T07:41:44Z</time>
      </trkpt>
      <trkpt lat="45.99722" lon="6.25609">
        <ele>696.91</ele>
        <time>2013-07-17T07:41:46Z</time>
      </trkpt>
      <trkpt lat="45.99754" lon="6.25539">
        <ele>693.398</ele>
        <time>2013-07-17T07:41:51Z</time>
      </trkpt>
      <trkpt lat="45.998" lon="6.2548">
        <ele>690.32</ele>
        <time>2013-07-17T07:41:56Z</time>
      </trkpt>
      <trkpt lat="45.99826" lon="6.25426">
        <ele>689.055</ele>
        <time>2013-07-17T07:42:00Z</time>
      </trkpt>
      <trkpt lat="45.99824" lon="6.25396">
        <ele>688.504</ele>
        <time>2013-07-17T07:42:02Z</time>
      </trkpt>
      <trkpt lat="45.99809" lon="6.2538">
        <ele>688.041</ele>
        <time>2013-07-17T07:42:04Z</time>
      </trkpt>
      <trkpt lat="45.99791" lon="6.25374">
        <ele>687.864</ele>
        <time>2013-07-17T07:42:06Z</time>
      </trkpt>
      <trkpt lat="45.99754" lon="6.25358">
        <ele>689.091</ele>
        <time>2013-07-17T07:42:11Z</time>
      </trkpt>
      <trkpt lat="45.99749" lon="6.25351">
        <ele>689.419</ele>
        <time>2013-07-17T07:42:12Z</time>
      </trkpt>
      <trkpt lat="45.99724" lon="6.25339">
        <ele>690.695</ele>
        <time>2013-07-17T07:42:17Z</time>
      </trkpt>
      <trkpt lat="45.99703" lon="6.25342">
        <ele>690.061</ele>
        <time>2013-07-17T07:42:20Z</time>
      </trkpt>
      <trkpt lat="45.99628" lon="6.25337">
        <ele>689.435</ele>
        <time>2013-07-17T07:42:29Z</time>
      </trkpt>
      <trkpt lat="45.99602" lon="6.25333">
        <ele>688.784</ele>
        <time>2013-07-17T07:42:32Z</time>
      </trkpt>
      <trkpt lat="45.9957" lon="6.25311">
        <ele>687.414</ele>
        <time>2013-07-17T07:42:36Z</time>
      </trkpt>
      <trkpt lat="45.99545" lon="6.25292">
        <ele>686.319</ele>
        <time>2013-07-17T07:42:39Z</time>
      </trkpt>
      <trkpt lat="45.99494" lon="6.25275">
        <ele>683.787</ele>
        <time>2013-07-17T07:42:44Z</time>
      </trkpt>
      <trkpt lat="45.99459" lon="6.25243">
        <ele>681.197</ele>
        <time>2013-07-17T07:42:48Z</time>
      </trkpt>
      <trkpt lat="45.99449" lon="6.25216">
        <ele>680.322</ele>
        <time>2013-07-17T07:42:50Z</time>
      </trkpt>
      <trkpt lat="45.99441" lon="6.25189">
        <ele>679.201</ele>
        <time>2013-07-17T07:42:52Z</time>
      </trkpt>
      <trkpt lat="45.99417" lon="6.25137">
        <ele>677.227</ele>
        <time>2013-07-17T07:42:56Z</time>
      </trkpt>
      <trkpt lat="45.99404" lon="6.25111">
        <ele>676.124</ele>
        <time>2013-07-17T07:42:58Z</time>
      </trkpt>
      <trkpt lat="45.99393" lon="6.25067">
        <ele>674.697</ele>
        <time>2013-07-17T07:43:01Z</time>
      </trkpt>
      <trkpt lat="45.99392" lon="6.25051">
        <ele>674.103</ele>
        <time>2013-07-17T07:43:02Z</time>
      </trkpt>
      <trkpt lat="45.99386" lon="6.24938">
        <ele>670.358</ele>
        <time>2013-07-17T07:43:09Z</time>
      </trkpt>
      <trkpt lat="45.99383" lon="6.24923">
        <ele>669.856</ele>
        <time>2013-07-17T07:43:10Z</time>
      </trkpt>
      <trkpt lat="45.99361" lon="6.24865">
        <ele>667.69</ele>
        <time>2013-07-17T07:43:14Z</time>
      </trkpt>
      <trkpt lat="45.99334" lon="6.24833">
        <ele>666.069</ele>
        <time>2013-07-17T07:43:17Z</time>
      </trkpt>
      <trkpt lat="45.99301" lon="6.24814">
        <ele>664.504</ele>
        <time>2013-07-17T07:43:20Z</time>
      </trkpt>
      <trkpt lat="45.99265" lon="6.2481">
        <ele>662.809</ele>
        <time>2013-07-17T07:43:23Z</time>
      </trkpt>
      <trkpt lat="45.99217" lon="6.24816">
        <ele>660.324</ele>
        <time>2013-07-17T07:43:27Z</time>
      </trkpt>
      <trkpt lat="45.99152" lon="6.24824">
        <ele>658.188</ele>
        <time>2013-07-17T07:43:33Z</time>
      </trkpt>
      <trkpt lat="45.99108" lon="6.24832">
        <ele>658.722</ele>
        <time>2013-07-17T07:43:38Z</time>
      </trkpt>
      <trkpt lat="45.99074" lon="6.24839">
        <ele>660.47</ele>
        <time>2013-07-17T07:43:43Z</time>
      </trkpt>
      <trkpt lat="45.99042" lon="6.24844">
        <ele>661.887</ele>
        <time>2013-07-17T07:43:49Z</time>
      </trkpt>
      <trkpt lat="45.99005" lon="6.24851">
        <ele>664.075</ele>
        <time>2013-07-17T07:43:56Z</time>
      </trkpt>
      <trkpt lat="45.98999" lon="6.24852">
        <ele>664.457</ele>
        <time>2013-07-17T07:43:57Z</time>
      </trkpt>
      <trkpt lat="45.98963" lon="6.24856">
        <ele>666.961</ele>
        <time>2013-07-17T07:44:04Z</time>
      </trkpt>
      <trkpt lat="45.9894" lon="6.24855">
        <ele>668.271</ele>
        <time>2013-07-17T07:44:09Z</time>
      </trkpt>
      <trkpt lat="45.98915" lon="6.24837">
        <ele>669.379</ele>
        <time>2013-07-17T07:44:15Z</time>
      </trkpt>
      <trkpt lat="45.98902" lon="6.24811">
        <ele>670.849</ele>
        <time>2013-07-17T07:44:20Z</time>
      </trkpt>
      <trkpt lat="45.98901" lon="6.24805">
        <ele>671.176</ele>
        <time>2013-07-17T07:44:21Z</time>
      </trkpt>
      <trkpt lat="45.98899" lon="6.24792">
        <ele>671.772</ele>
        <time>2013-07-17T07:44:23Z</time>
      </trkpt>
      <trkpt lat="45.98898" lon="6.24773">
        <ele>672.502</ele>
        <time>2013-07-17T07:44:26Z</time>
      </trkpt>
      <trkpt lat="45.98902" lon="6.24695">
        <ele>674.485</ele>
        <time>2013-07-17T07:44:38Z</time>
      </trkpt>
      <trkpt lat="45.98905" lon="6.24641">
        <ele>676.876</ele>
        <time>2013-07-17T07:44:46Z</time>
      </trkpt>
      <trkpt lat="45.98904" lon="6.24581">
        <ele>678.955</ele>
        <time>2013-07-17T07:44:55Z</time>
      </trkpt>
      <trkpt lat="45.98897" lon="6.24549">
        <ele>680.051</ele>
        <time>2013-07-17T07:45:00Z</time>
      </trkpt>
      <trkpt lat="45.98885" lon="6.24504">
        <ele>681.67</ele>
        <time>2013-07-17T07:45:07Z</time>
      </trkpt>
      <trkpt lat="45.98869" lon="6.24453">
        <ele>683.127</ele>
        <time>2013-07-17T07:45:15Z</time>
      </trkpt>
      <trkpt lat="45.98858" lon="6.24416">
        <ele>684.336</ele>
        <time>2013-07-17T07:45:21Z</time>
      </trkpt>
      <trkpt lat="45.98845" lon="6.24375">
        <ele>685.747</ele>
        <time>2013-07-17T07:45:27Z</time>
      </trkpt>
      <trkpt lat="45.98841" lon="6.24355">
        <ele>686.299</ele>
        <time>2013-07-17T07:45:30Z</time>
      </trkpt>
      <trkpt lat="45.98842" lon="6.24321">
        <ele>687.237</ele>
        <time>2013-07-17T07:45:35Z</time>
      </trkpt>
      <trkpt lat="45.98849" lon="6.24271">
        <ele>689.486</ele>
        <time>2013-07-17T07:45:42Z</time>
      </trkpt>
      <trkpt lat="45.9885" lon="6.2425">
        <ele>690.266</ele>
        <time>2013-07-17T07:45:45Z</time>
      </trkpt>
      <trkpt lat="45.98848" lon="6.24223">
        <ele>691.922</ele>
        <time>2013-07-17T07:45:49Z</time>
      </trkpt>
      <trkpt lat="45.98841" lon="6.24173">
        <ele>694.263</ele>
        <time>2013-07-17T07:45:57Z</time>
      </trkpt>
      <trkpt lat="45.98839" lon="6.24162">
        <ele>694.66</ele>
        <time>2013-07-17T07:45:59Z</time>
      </trkpt>
      <trkpt lat="45.98829" lon="6.24093">
        <ele>697.582</ele>
        <time>2013-07-17T07:46:11Z</time>
      </trkpt>
      <trkpt lat="45.98822" lon="6.24042">
        <ele>700.504</ele>
        <time>2013-07-17T07:46:20Z</time>
      </trkpt>
      <trkpt lat="45.98815" lon="6.23996">
        <ele>702.18</ele>
        <time>2013-07-17T07:46:28Z</time>
      </trkpt>
      <trkpt lat="45.988" lon="6.23955">
        <ele>703.981</ele>
        <time>2013-07-17T07:46:36Z</time>
      </trkpt>
      <trkpt lat="45.98776" lon="6.23918">
        <ele>706.336</ele>
        <time>2013-07-17T07:46:45Z</time>
      </trkpt>
      <trkpt lat="45.98768" lon="6.23893">
        <ele>707.364</ele>
        <time>2013-07-17T07:46:50Z</time>
      </trkpt>
      <trkpt lat="45.98769" lon="6.2387">
        <ele>708.562</ele>
        <time>2013-07-17T07:46:54Z</time>
      </trkpt>
      <trkpt lat="45.98782" lon="6.23835">
        <ele>710.655</ele>
        <time>2013-07-17T07:47:01Z</time>
      </trkpt>
      <trkpt lat="45.98786" lon="6.23806">
        <ele>712.4</ele>
        <time>2013-07-17T07:47:06Z</time>
      </trkpt>
      <trkpt lat="45.98779" lon="6.23775">
        <ele>713.465</ele>
        <time>2013-07-17T07:47:12Z</time>
      </trkpt>
      <trkpt lat="45.98766" lon="6.23753">
        <ele>714.803</ele>
        <time>2013-07-17T07:47:17Z</time>
      </trkpt>
      <trkpt lat="45.98747" lon="6.23731">
        <ele>716.276</ele>
        <time>2013-07-17T07:47:23Z</time>
      </trkpt>
      <trkpt lat="45.98735" lon="6.23711">
        <ele>717.56</ele>
        <time>2013-07-17T07:47:28Z</time>
      </trkpt>
      <trkpt lat="45.98723" lon="6.2368">
        <ele>718.901</ele>
        <time>2013-07-17T07:47:34Z</time>
      </trkpt>
      <trkpt lat="45.98711" lon="6.23646">
        <ele>720.856</ele>
        <time>2013-07-17T07:47:40Z</time>
      </trkpt>
      <trkpt lat="45.98695" lon="6.23611">
        <ele>722.9</ele>
        <time>2013-07-17T07:47:47Z</time>
      </trkpt>
      <trkpt lat="45.98688" lon="6.23595">
        <ele>723.449</ele>
        <time>2013-07-17T07:47:50Z</time>
      </trkpt>
      <trkpt lat="45.98683" lon="6.23554">
        <ele>725.278</ele>
        <time>2013-07-17T07:47:57Z</time>
      </trkpt>
      <trkpt lat="45.98691" lon="6.23516">
        <ele>727.076</ele>
        <time>2013-07-17T07:48:04Z</time>
      </trkpt>
      <trkpt lat="45.98702" lon="6.23466">
        <ele>729.557</ele>
        <time>2013-07-17T07:48:13Z</time>
      </trkpt>
      <trkpt lat="45.98705" lon="6.2342">
        <ele>731.669</ele>
        <time>2013-07-17T07:48:21Z</time>
      </trkpt>
      <trkpt lat="45.987" lon="6.23373">
        <ele>733.548</ele>
        <time>2013-07-17T07:48:29Z</time>
      </trkpt>
      <trkpt lat="45.98696" lon="6.23357">
        <ele>733.997</ele>
        <time>2013-07-17T07:48:32Z</time>
      </trkpt>
      <trkpt lat="45.98675" lon="6.23294">
        <ele>737.227</ele>
        <time>2013-07-17T07:48:44Z</time>
      </trkpt>
      <trkpt lat="45.98657" lon="6.23241">
        <ele>739.98</ele>
        <time>2013-07-17T07:48:54Z</time>
      </trkpt>
      <trkpt lat="45.9864" lon="6.23186">
        <ele>742.755</ele>
        <time>2013-07-17T07:49:04Z</time>
      </trkpt>
      <trkpt lat="45.98634" lon="6.23139">
        <ele>744.763</ele>
        <time>2013-07-17T07:49:12Z</time>
      </trkpt>
      <trkpt lat="45.98632" lon="6.23093">
        <ele>746.941</ele>
        <time>2013-07-17T07:49:20Z</time>
      </trkpt>
      <trkpt lat="45.98634" lon="6.23035">
        <ele>749.335</ele>
        <time>2013-07-17T07:49:30Z</time>
      </trkpt>
      <trkpt lat="45.98634" lon="6.22988">
        <ele>751.351</ele>
        <time>2013-07-17T07:49:38Z</time>
      </trkpt>
      <trkpt lat="45.98628" lon="6.22943">
        <ele>753.344</ele>
        <time>2013-07-17T07:49:46Z</time>
      </trkpt>
      <trkpt lat="45.9862" lon="6.22916">
        <ele>754.755</ele>
        <time>2013-07-17T07:49:51Z</time>
      </trkpt>
      <trkpt lat="45.98601" lon="6.22877">
        <ele>756.899</ele>
        <time>2013-07-17T07:49:59Z</time>
      </trkpt>
      <trkpt lat="45.98573" lon="6.22845">
        <ele>758.791</ele>
        <time>2013-07-17T07:50:07Z</time>
      </trkpt>
      <trkpt lat="45.9854" lon="6.22824">
        <ele>760.911</ele>
        <time>2013-07-17T07:50:16Z</time>
      </trkpt>
      <trkpt lat="45.98512" lon="6.22821">
        <ele>763.001</ele>
        <time>2013-07-17T07:50:23Z</time>
      </trkpt>
      <trkpt lat="45.98479" lon="6.22827">
        <ele>764.802</ele>
        <time>2013-07-17T07:50:31Z</time>
      </trkpt>
      <trkpt lat="45.98471" lon="6.2283">
        <ele>765.425</ele>
        <time>2013-07-17T07:50:33Z</time>
      </trkpt>
      <trkpt lat="45.98433" lon="6.22852">
        <ele>766.681</ele>
        <time>2013-07-17T07:50:42Z</time>
      </trkpt>
      <trkpt lat="45.98394" lon="6.22876">
        <ele>768.271</ele>
        <time>2013-07-17T07:50:51Z</time>
      </trkpt>
      <trkpt lat="45.98346" lon="6.22906">
        <ele>770.38</ele>
        <time>2013-07-17T07:51:02Z</time>
      </trkpt>
      <trkpt lat="45.98295" lon="6.22939">
        <ele>772.312</ele>
        <time>2013-07-17T07:51:14Z</time>
      </trkpt>
      <trkpt lat="45.98276" lon="6.22946">
        <ele>773.146</ele>
        <time>2013-07-17T07:51:18Z</time>
      </trkpt>
      <trkpt lat="45.9825" lon="6.2294">
        <ele>773.671</ele>
        <time>2013-07-17T07:51:23Z</time>
      </trkpt>
      <trkpt lat="45.98232" lon="6.22921">
        <ele>773.728</ele>
        <time>2013-07-17T07:51:27Z</time>
      </trkpt>
      <trkpt lat="45.98201" lon="6.22864">
        <ele>774.121</ele>
        <time>2013-07-17T07:51:35Z</time>
      </trkpt>
      <trkpt lat="45.98172" lon="6.22807">
        <ele>773.794</ele>
        <time>2013-07-17T07:51:42Z</time>
      </trkpt>
      <trkpt lat="45.98134" lon="6.22745">
        <ele>773.758</ele>
        <time>2013-07-17T07:51:50Z</time>
      </trkpt>
      <trkpt lat="45.98092" lon="6.22686">
        <ele>772.679</ele>
        <time>2013-07-17T07:51:58Z</time>
      </trkpt>
      <trkpt lat="45.98042" lon="6.22617">
        <ele>772.962</ele>
        <time>2013-07-17T07:52:07Z</time>
      </trkpt>
      <trkpt lat="45.98003" lon="6.22565">
        <ele>774.24</ele>
        <time>2013-07-17T07:52:14Z</time>
      </trkpt>
      <trkpt lat="45.97963" lon="6.22521">
        <ele>774.961</ele>
        <time>2013-07-17T07:52:21Z</time>
      </trkpt>
      <trkpt lat="45.97932" lon="6.22484">
        <ele>775.456</ele>
        <time>2013-07-17T07:52:27Z</time>
      </trkpt>
      <trkpt lat="45.97912" lon="6.22445">
        <ele>776.011</ele>
        <time>2013-07-17T07:52:32Z</time>
      </trkpt>
      <trkpt lat="45.97892" lon="6.22384">
        <ele>776.067</ele>
        <time>2013-07-17T07:52:39Z</time>
      </trkpt>
      <trkpt lat="45.97874" lon="6.22337">
        <ele>776.196</ele>
        <time>2013-07-17T07:52:45Z</time>
      </trkpt>
      <trkpt lat="45.97845" lon="6.22291">
        <ele>776.76</ele>
        <time>2013-07-17T07:52:52Z</time>
      </trkpt>
      <trkpt lat="45.97793" lon="6.22227">
        <ele>777.936</ele>
        <time>2013-07-17T07:53:03Z</time>
      </trkpt>
      <trkpt lat="45.97762" lon="6.22176">
        <ele>779.158</ele>
        <time>2013-07-17T07:53:11Z</time>
      </trkpt>
      <trkpt lat="45.97743" lon="6.22135">
        <ele>781.063</ele>
        <time>2013-07-17T07:53:18Z</time>
      </trkpt>
      <trkpt lat="45.97721" lon="6.22089">
        <ele>783.621</ele>
        <time>2013-07-17T07:53:27Z</time>
      </trkpt>
      <trkpt lat="45.97698" lon="6.22046">
        <ele>785.947</ele>
        <time>2013-07-17T07:53:36Z</time>
      </trkpt>
      <trkpt lat="45.97675" lon="6.2202">
        <ele>787.951</ele>
        <time>2013-07-17T07:53:43Z</time>
      </trkpt>
      <trkpt lat="45.97652" lon="6.22006">
        <ele>789.583</ele>
        <time>2013-07-17T07:53:49Z</time>
      </trkpt>
      <trkpt lat="45.97627" lon="6.21999">
        <ele>791.33</ele>
        <time>2013-07-17T07:53:55Z</time>
      </trkpt>
      <trkpt lat="45.97586" lon="6.21992">
        <ele>793.178</ele>
        <time>2013-07-17T07:54:04Z</time>
      </trkpt>
      <trkpt lat="45.97576" lon="6.21989">
        <ele>793.296</ele>
        <time>2013-07-17T07:54:06Z</time>
      </trkpt>
      <trkpt lat="45.97546" lon="6.21965">
        <ele>794.389</ele>
        <time>2013-07-17T07:54:13Z</time>
      </trkpt>
      <trkpt lat="45.9752" lon="6.21925">
        <ele>795.628</ele>
        <time>2013-07-17T07:54:20Z</time>
      </trkpt>
      <trkpt lat="45.97492" lon="6.21877">
        <ele>796.842</ele>
        <time>2013-07-17T07:54:28Z</time>
      </trkpt>
      <trkpt lat="45.97459" lon="6.21839">
        <ele>796.872</ele>
        <time>2013-07-17T07:54:35Z</time>
      </trkpt>
      <trkpt lat="45.97419" lon="6.21797">
        <ele>796.119</ele>
        <time>2013-07-17T07:54:42Z</time>
      </trkpt>
      <trkpt lat="45.97374" lon="6.21755">
        <ele>795.217</ele>
        <time>2013-07-17T07:54:49Z</time>
      </trkpt>
      <trkpt lat="45.97358" lon="6.21748">
        <ele>795.055</ele>
        <time>2013-07-17T07:54:51Z</time>
      </trkpt>
      <trkpt lat="45.97309" lon="6.21744">
        <ele>794.035</ele>
        <time>2013-07-17T07:54:57Z</time>
      </trkpt>
      <trkpt lat="45.97241" lon="6.21752">
        <ele>791.901</ele>
        <time>2013-07-17T07:55:05Z</time>
      </trkpt>
      <trkpt lat="45.97196" lon="6.21757">
        <ele>791.076</ele>
        <time>2013-07-17T07:55:10Z</time>
      </trkpt>
      <trkpt lat="45.97163" lon="6.21776">
        <ele>790.211</ele>
        <time>2013-07-17T07:55:14Z</time>
      </trkpt>
      <trkpt lat="45.97151" lon="6.21796">
        <ele>789.857</ele>
        <time>2013-07-17T07:55:16Z</time>
      </trkpt>
      <trkpt lat="45.97132" lon="6.21841">
        <ele>789.063</ele>
        <time>2013-07-17T07:55:20Z</time>
      </trkpt>
      <trkpt lat="45.97105" lon="6.2187">
        <ele>788.865</ele>
        <time>2013-07-17T07:55:24Z</time>
      </trkpt>
      <trkpt lat="45.97096" lon="6.2187">
        <ele>788.762</ele>
        <time>2013-07-17T07:55:25Z</time>
      </trkpt>
      <trkpt lat="45.96997" lon="6.21864">
        <ele>786.962</ele>
        <time>2013-07-17T07:55:36Z</time>
      </trkpt>
      <trkpt lat="45.9698" lon="6.21864">
        <ele>786.998</ele>
        <time>2013-07-17T07:55:38Z</time>
      </trkpt>
      <trkpt lat="45.96945" lon="6.21851">
        <ele>785.667</ele>
        <time>2013-07-17T07:55:42Z</time>
      </trkpt>
      <trkpt lat="45.96891" lon="6.21819">
        <ele>784.008</ele>
        <time>2013-07-17T07:55:48Z</time>
      </trkpt>
      <trkpt lat="45.9681" lon="6.21783">
        <ele>781.188</ele>
        <time>2013-07-17T07:55:56Z</time>
      </trkpt>
      <trkpt lat="45.9678" lon="6.21766">
        <ele>779.934</ele>
        <time>2013-07-17T07:55:59Z</time>
      </trkpt>
      <trkpt lat="45.9671" lon="6.21725">
        <ele>776.817</ele>
        <time>2013-07-17T07:56:06Z</time>
      </trkpt>
      <trkpt lat="45.96628" lon="6.21677">
        <ele>773.232</ele>
        <time>2013-07-17T07:56:14Z</time>
      </trkpt>
      <trkpt lat="45.9655" lon="6.21631">
        <ele>771.187</ele>
        <time>2013-07-17T07:56:22Z</time>
      </trkpt>
      <trkpt lat="45.96466" lon="6.21581">
        <ele>767.98</ele>
        <time>2013-07-17T07:56:31Z</time>
      </trkpt>
      <trkpt lat="45.96391" lon="6.21536">
        <ele>767.999</ele>
        <time>2013-07-17T07:56:39Z</time>
      </trkpt>
      <trkpt lat="45.96318" lon="6.21497">
        <ele>766.87</ele>
        <time>2013-07-17T07:56:47Z</time>
      </trkpt>
      <trkpt lat="45.96281" lon="6.21501">
        <ele>766.123</ele>
        <time>2013-07-17T07:56:51Z</time>
      </trkpt>
      <trkpt lat="45.96273" lon="6.21507">
        <ele>766.104</ele>
        <time>2013-07-17T07:56:52Z</time>
      </trkpt>
      <trkpt lat="45.96241" lon="6.21534">
        <ele>766.059</ele>
        <time>2013-07-17T07:56:56Z</time>
      </trkpt>
      <trkpt lat="45.96206" lon="6.21546">
        <ele>765.576</ele>
        <time>2013-07-17T07:57:00Z</time>
      </trkpt>
      <trkpt lat="45.9618" lon="6.21554">
        <ele>765.787</ele>
        <time>2013-07-17T07:57:03Z</time>
      </trkpt>
      <trkpt lat="45.96117" lon="6.21594">
        <ele>765.854</ele>
        <time>2013-07-17T07:57:11Z</time>
      </trkpt>
      <trkpt lat="45.96071" lon="6.21624">
        <ele>765.495</ele>
        <time>2013-07-17T07:57:17Z</time>
      </trkpt>
      <trkpt lat="45.96052" lon="6.21636">
        <ele>766</ele>
        <time>2013-07-17T07:57:20Z</time>
      </trkpt>
      <trkpt lat="45.96014" lon="6.21626">
        <ele>765.948</ele>
        <time>2013-07-17T07:57:25Z</time>
      </trkpt>
      <trkpt lat="45.9601" lon="6.216">
        <ele>766.065</ele>
        <time>2013-07-17T07:57:28Z</time>
      </trkpt>
      <trkpt lat="45.9601" lon="6.21573">
        <ele>766.946</ele>
        <time>2013-07-17T07:57:31Z</time>
      </trkpt>
      <trkpt lat="45.96015" lon="6.2153">
        <ele>767.543</ele>
        <time>2013-07-17T07:57:36Z</time>
      </trkpt>
      <trkpt lat="45.96021" lon="6.21496">
        <ele>768.438</ele>
        <time>2013-07-17T07:57:40Z</time>
      </trkpt>
      <trkpt lat="45.96026" lon="6.21473">
        <ele>769.27</ele>
        <time>2013-07-17T07:57:43Z</time>
      </trkpt>
      <trkpt lat="45.96033" lon="6.21452">
        <ele>769.875</ele>
        <time>2013-07-17T07:57:46Z</time>
      </trkpt>
      <trkpt lat="45.96038" lon="6.21437">
        <ele>770.555</ele>
        <time>2013-07-17T07:57:48Z</time>
      </trkpt>
      <trkpt lat="45.9604" lon="6.21394">
        <ele>772.119</ele>
        <time>2013-07-17T07:57:53Z</time>
      </trkpt>
      <trkpt lat="45.96034" lon="6.21369">
        <ele>773.032</ele>
        <time>2013-07-17T07:57:56Z</time>
      </trkpt>
      <trkpt lat="45.96009" lon="6.21319">
        <ele>775.057</ele>
        <time>2013-07-17T07:58:03Z</time>
      </trkpt>
      <trkpt lat="45.95979" lon="6.21279">
        <ele>777.272</ele>
        <time>2013-07-17T07:58:10Z</time>
      </trkpt>
      <trkpt lat="45.95943" lon="6.2123">
        <ele>779.511</ele>
        <time>2013-07-17T07:58:19Z</time>
      </trkpt>
      <trkpt lat="45.95907" lon="6.21179">
        <ele>782.063</ele>
        <time>2013-07-17T07:58:28Z</time>
      </trkpt>
      <trkpt lat="45.95879" lon="6.21135">
        <ele>782.536</ele>
        <time>2013-07-17T07:58:35Z</time>
      </trkpt>
      <trkpt lat="45.95861" lon="6.21078">
        <ele>781.69</ele>
        <time>2013-07-17T07:58:41Z</time>
      </trkpt>
      <trkpt lat="45.95849" lon="6.21002">
        <ele>781.216</ele>
        <time>2013-07-17T07:58:48Z</time>
      </trkpt>
      <trkpt lat="45.95837" lon="6.20959">
        <ele>780.741</ele>
        <time>2013-07-17T07:58:52Z</time>
      </trkpt>
      <trkpt lat="45.95806" lon="6.20907">
        <ele>780.012</ele>
        <time>2013-07-17T07:58:58Z</time>
      </trkpt>
      <trkpt lat="45.95799" lon="6.20899">
        <ele>779.748</ele>
        <time>2013-07-17T07:58:59Z</time>
      </trkpt>
      <trkpt lat="45.95755" lon="6.20864">
        <ele>778.645</ele>
        <time>2013-07-17T07:59:05Z</time>
      </trkpt>
      <trkpt lat="45.957" lon="6.20829">
        <ele>776.617</ele>
        <time>2013-07-17T07:59:11Z</time>
      </trkpt>
      <trkpt lat="45.9562" lon="6.20779">
        <ele>773.046</ele>
        <time>2013-07-17T07:59:19Z</time>
      </trkpt>
      <trkpt lat="45.9561" lon="6.20773">
        <ele>772.8</ele>
        <time>2013-07-17T07:59:20Z</time>
      </trkpt>
      <trkpt lat="45.95567" lon="6.20758">
        <ele>771.092</ele>
        <time>2013-07-17T07:59:24Z</time>
      </trkpt>
      <trkpt lat="45.95534" lon="6.20749">
        <ele>769.946</ele>
        <time>2013-07-17T07:59:27Z</time>
      </trkpt>
      <trkpt lat="45.95497" lon="6.2072">
        <ele>768.062</ele>
        <time>2013-07-17T07:59:31Z</time>
      </trkpt>
      <trkpt lat="45.9549" lon="6.20708">
        <ele>767.913</ele>
        <time>2013-07-17T07:59:32Z</time>
      </trkpt>
      <trkpt lat="45.95449" lon="6.20619">
        <ele>765.592</ele>
        <time>2013-07-17T07:59:39Z</time>
      </trkpt>
      <trkpt lat="45.95435" lon="6.20543">
        <ele>763.041</ele>
        <time>2013-07-17T07:59:44Z</time>
      </trkpt>
      <trkpt lat="45.95436" lon="6.20528">
        <ele>762.843</ele>
        <time>2013-07-17T07:59:45Z</time>
      </trkpt>
      <trkpt lat="45.95443" lon="6.20393">
        <ele>759.708</ele>
        <time>2013-07-17T07:59:54Z</time>
      </trkpt>
      <trkpt lat="45.95446" lon="6.20301">
        <ele>757.112</ele>
        <time>2013-07-17T08:00:00Z</time>
      </trkpt>
      <trkpt lat="45.95441" lon="6.20234">
        <ele>754.795</ele>
        <time>2013-07-17T08:00:04Z</time>
      </trkpt>
      <trkpt lat="45.95429" lon="6.20165">
        <ele>751.41</ele>
        <time>2013-07-17T08:00:08Z</time>
      </trkpt>
      <trkpt lat="45.95402" lon="6.2008">
        <ele>746.874</ele>
        <time>2013-07-17T08:00:13Z</time>
      </trkpt>
      <trkpt lat="45.95332" lon="6.19894">
        <ele>737.024</ele>
        <time>2013-07-17T08:00:24Z</time>
      </trkpt>
      <trkpt lat="45.95286" lon="6.19778">
        <ele>731.241</ele>
        <time>2013-07-17T08:00:31Z</time>
      </trkpt>
      <trkpt lat="45.95251" lon="6.19726">
        <ele>729.176</ele>
        <time>2013-07-17T08:00:35Z</time>
      </trkpt>
      <trkpt lat="45.95203" lon="6.19676">
        <ele>727.015</ele>
        <time>2013-07-17T08:00:40Z</time>
      </trkpt>
      <trkpt lat="45.95139" lon="6.19636">
        <ele>724.398</ele>
        <time>2013-07-17T08:00:46Z</time>
      </trkpt>
      <trkpt lat="45.95044" lon="6.19582">
        <ele>720.246</ele>
        <time>2013-07-17T08:00:55Z</time>
      </trkpt>
      <trkpt lat="45.94992" lon="6.1955">
        <ele>717.851</ele>
        <time>2013-07-17T08:01:00Z</time>
      </trkpt>
      <trkpt lat="45.949" lon="6.19492">
        <ele>713.721</ele>
        <time>2013-07-17T08:01:09Z</time>
      </trkpt>
      <trkpt lat="45.9486" lon="6.19467">
        <ele>711.963</ele>
        <time>2013-07-17T08:01:13Z</time>
      </trkpt>
      <trkpt lat="45.94799" lon="6.19429">
        <ele>709.024</ele>
        <time>2013-07-17T08:01:19Z</time>
      </trkpt>
      <trkpt lat="45.94706" lon="6.19378">
        <ele>704.671</ele>
        <time>2013-07-17T08:01:28Z</time>
      </trkpt>
      <trkpt lat="45.94673" lon="6.19373">
        <ele>703.062</ele>
        <time>2013-07-17T08:01:31Z</time>
      </trkpt>
      <trkpt lat="45.94628" lon="6.19384">
        <ele>700.168</ele>
        <time>2013-07-17T08:01:35Z</time>
      </trkpt>
      <trkpt lat="45.94606" lon="6.19397">
        <ele>698.924</ele>
        <time>2013-07-17T08:01:37Z</time>
      </trkpt>
      <trkpt lat="45.94507" lon="6.19469">
        <ele>693.428</ele>
        <time>2013-07-17T08:01:46Z</time>
      </trkpt>
      <trkpt lat="45.94458" lon="6.19476">
        <ele>691.339</ele>
        <time>2013-07-17T08:01:50Z</time>
      </trkpt>
      <trkpt lat="45.94434" lon="6.19465">
        <ele>690.828</ele>
        <time>2013-07-17T08:01:52Z</time>
      </trkpt>
      <trkpt lat="45.94327" lon="6.19403">
        <ele>685.924</ele>
        <time>2013-07-17T08:02:02Z</time>
      </trkpt>
      <trkpt lat="45.94263" lon="6.19367">
        <ele>683.833</ele>
        <time>2013-07-17T08:02:08Z</time>
      </trkpt>
      <trkpt lat="45.94211" lon="6.1934">
        <ele>681.855</ele>
        <time>2013-07-17T08:02:13Z</time>
      </trkpt>
      <trkpt lat="45.94159" lon="6.19328">
        <ele>680.48</ele>
        <time>2013-07-17T08:02:18Z</time>
      </trkpt>
      <trkpt lat="45.94049" lon="6.19314">
        <ele>676.931</ele>
        <time>2013-07-17T08:02:29Z</time>
      </trkpt>
      <trkpt lat="45.93997" lon="6.19299">
        <ele>674.781</ele>
        <time>2013-07-17T08:02:34Z</time>
      </trkpt>
      <trkpt lat="45.93954" lon="6.19294">
        <ele>672.292</ele>
        <time>2013-07-17T08:02:38Z</time>
      </trkpt>
      <trkpt lat="45.93867" lon="6.193">
        <ele>668.469</ele>
        <time>2013-07-17T08:02:46Z</time>
      </trkpt>
      <trkpt lat="45.93856" lon="6.19301">
        <ele>668.18</ele>
        <time>2013-07-17T08:02:47Z</time>
      </trkpt>
      <trkpt lat="45.93779" lon="6.19305">
        <ele>664.186</ele>
        <time>2013-07-17T08:02:54Z</time>
      </trkpt>
      <trkpt lat="45.93732" lon="6.19294">
        <ele>660.938</ele>
        <time>2013-07-17T08:02:58Z</time>
      </trkpt>
      <trkpt lat="45.93696" lon="6.19278">
        <ele>659.137</ele>
        <time>2013-07-17T08:03:01Z</time>
      </trkpt>
      <trkpt lat="45.93642" lon="6.19239">
        <ele>656.065</ele>
        <time>2013-07-17T08:03:06Z</time>
      </trkpt>
      <trkpt lat="45.93574" lon="6.19177">
        <ele>651.092</ele>
        <time>2013-07-17T08:03:13Z</time>
      </trkpt>
      <trkpt lat="45.93534" lon="6.19122">
        <ele>649.262</ele>
        <time>2013-07-17T08:03:18Z</time>
      </trkpt>
      <trkpt lat="45.93504" lon="6.19081">
        <ele>647.742</ele>
        <time>2013-07-17T08:03:22Z</time>
      </trkpt>
      <trkpt lat="45.93473" lon="6.19056">
        <ele>646.824</ele>
        <time>2013-07-17T08:03:26Z</time>
      </trkpt>
      <trkpt lat="45.9345" lon="6.19018">
        <ele>649.377</ele>
        <time>2013-07-17T08:03:31Z</time>
      </trkpt>
      <trkpt lat="45.93435" lon="6.18993">
        <ele>650.952</ele>
        <time>2013-07-17T08:03:35Z</time>
      </trkpt>
      <trkpt lat="45.93419" lon="6.18988">
        <ele>651.289</ele>
        <time>2013-07-17T08:03:38Z</time>
      </trkpt>
      <trkpt lat="45.93407" lon="6.18999">
        <ele>650.915</ele>
        <time>2013-07-17T08:03:40Z</time>
      </trkpt>
      <trkpt lat="45.93349" lon="6.19038">
        <ele>649.306</ele>
        <time>2013-07-17T08:03:47Z</time>
      </trkpt>
      <trkpt lat="45.93318" lon="6.19056">
        <ele>648.557</ele>
        <time>2013-07-17T08:03:51Z</time>
      </trkpt>
      <trkpt lat="45.9328" lon="6.19074">
        <ele>648.111</ele>
        <time>2013-07-17T08:03:56Z</time>
      </trkpt>
      <trkpt lat="45.93266" lon="6.19082">
        <ele>647.863</ele>
        <time>2013-07-17T08:03:58Z</time>
      </trkpt>
      <trkpt lat="45.93247" lon="6.19103">
        <ele>647.583</ele>
        <time>2013-07-17T08:04:01Z</time>
      </trkpt>
      <trkpt lat="45.93233" lon="6.19156">
        <ele>647.733</ele>
        <time>2013-07-17T08:04:06Z</time>
      </trkpt>
      <trkpt lat="45.93211" lon="6.1922">
        <ele>646.748</ele>
        <time>2013-07-17T08:04:12Z</time>
      </trkpt>
      <trkpt lat="45.93181" lon="6.19272">
        <ele>645.051</ele>
        <time>2013-07-17T08:04:17Z</time>
      </trkpt>
      <trkpt lat="45.93135" lon="6.19349">
        <ele>642.864</ele>
        <time>2013-07-17T08:04:24Z</time>
      </trkpt>
      <trkpt lat="45.93103" lon="6.19385">
        <ele>641.739</ele>
        <time>2013-07-17T08:04:28Z</time>
      </trkpt>
      <trkpt lat="45.93052" lon="6.19426">
        <ele>640.321</ele>
        <time>2013-07-17T08:04:34Z</time>
      </trkpt>
      <trkpt lat="45.93045" lon="6.19434">
        <ele>640.12</ele>
        <time>2013-07-17T08:04:35Z</time>
      </trkpt>
      <trkpt lat="45.93015" lon="6.19485">
        <ele>639.779</ele>
        <time>2013-07-17T08:04:40Z</time>
      </trkpt>
      <trkpt lat="45.92986" lon="6.19548">
        <ele>639.705</ele>
        <time>2013-07-17T08:04:46Z</time>
      </trkpt>
      <trkpt lat="45.92955" lon="6.19594">
        <ele>638.793</ele>
        <time>2013-07-17T08:04:51Z</time>
      </trkpt>
      <trkpt lat="45.9294" lon="6.19611">
        <ele>638.31</ele>
        <time>2013-07-17T08:04:53Z</time>
      </trkpt>
      <trkpt lat="45.929" lon="6.19632">
        <ele>635.926</ele>
        <time>2013-07-17T08:04:57Z</time>
      </trkpt>
      <trkpt lat="45.92878" lon="6.19637">
        <ele>634.733</ele>
        <time>2013-07-17T08:04:59Z</time>
      </trkpt>
      <trkpt lat="45.92833" lon="6.19637">
        <ele>631.834</ele>
        <time>2013-07-17T08:05:03Z</time>
      </trkpt>
      <trkpt lat="45.92776" lon="6.19658">
        <ele>628.981</ele>
        <time>2013-07-17T08:05:08Z</time>
      </trkpt>
      <trkpt lat="45.92695" lon="6.19701">
        <ele>622.61</ele>
        <time>2013-07-17T08:05:15Z</time>
      </trkpt>
      <trkpt lat="45.92637" lon="6.19738">
        <ele>619.136</ele>
        <time>2013-07-17T08:05:20Z</time>
      </trkpt>
      <trkpt lat="45.92627" lon="6.19746">
        <ele>618.404</ele>
        <time>2013-07-17T08:05:21Z</time>
      </trkpt>
      <trkpt lat="45.92592" lon="6.19792">
        <ele>616.321</ele>
        <time>2013-07-17T08:05:25Z</time>
      </trkpt>
      <trkpt lat="45.92553" lon="6.19862">
        <ele>615.258</ele>
        <time>2013-07-17T08:05:31Z</time>
      </trkpt>
      <trkpt lat="45.92527" lon="6.19893">
        <ele>616.195</ele>
        <time>2013-07-17T08:05:35Z</time>
      </trkpt>
      <trkpt lat="45.92504" lon="6.19923">
        <ele>618.166</ele>
        <time>2013-07-17T08:05:40Z</time>
      </trkpt>
      <trkpt lat="45.92477" lon="6.19971">
        <ele>620.073</ele>
        <time>2013-07-17T08:05:47Z</time>
      </trkpt>
      <trkpt lat="45.92464" lon="6.19995">
        <ele>620.61</ele>
        <time>2013-07-17T08:05:50Z</time>
      </trkpt>
      <trkpt lat="45.92434" lon="6.2005">
        <ele>622.591</ele>
        <time>2013-07-17T08:05:57Z</time>
      </trkpt>
      <trkpt lat="45.92404" lon="6.201">
        <ele>623.205</ele>
        <time>2013-07-17T08:06:04Z</time>
      </trkpt>
      <trkpt lat="45.92374" lon="6.20138">
        <ele>623.795</ele>
        <time>2013-07-17T08:06:10Z</time>
      </trkpt>
      <trkpt lat="45.92354" lon="6.20158">
        <ele>624.746</ele>
        <time>2013-07-17T08:06:14Z</time>
      </trkpt>
      <trkpt lat="45.92342" lon="6.20174">
        <ele>626.296</ele>
        <time>2013-07-17T08:06:17Z</time>
      </trkpt>
      <trkpt lat="45.92322" lon="6.20191">
        <ele>627.384</ele>
        <time>2013-07-17T08:06:21Z</time>
      </trkpt>
      <trkpt lat="45.92295" lon="6.20201">
        <ele>629.575</ele>
        <time>2013-07-17T08:06:26Z</time>
      </trkpt>
      <trkpt lat="45.92256" lon="6.20217">
        <ele>629.663</ele>
        <time>2013-07-17T08:06:32Z</time>
      </trkpt>
      <trkpt lat="45.92193" lon="6.20246">
        <ele>628.301</ele>
        <time>2013-07-17T08:06:40Z</time>
      </trkpt>
      <trkpt lat="45.9215" lon="6.2027">
        <ele>626.826</ele>
        <time>2013-07-17T08:06:45Z</time>
      </trkpt>
      <trkpt lat="45.92112" lon="6.20295">
        <ele>624.332</ele>
        <time>2013-07-17T08:06:49Z</time>
      </trkpt>
      <trkpt lat="45.92069" lon="6.20344">
        <ele>621.102</ele>
        <time>2013-07-17T08:06:54Z</time>
      </trkpt>
      <trkpt lat="45.92052" lon="6.2039">
        <ele>619.437</ele>
        <time>2013-07-17T08:06:57Z</time>
      </trkpt>
      <trkpt lat="45.92042" lon="6.2042">
        <ele>617.627</ele>
        <time>2013-07-17T08:06:59Z</time>
      </trkpt>
      <trkpt lat="45.92018" lon="6.20436">
        <ele>612.755</ele>
        <time>2013-07-17T08:07:02Z</time>
      </trkpt>
      <trkpt lat="45.92004" lon="6.20419">
        <ele>610.536</ele>
        <time>2013-07-17T08:07:04Z</time>
      </trkpt>
      <trkpt lat="45.91996" lon="6.20391">
        <ele>608.539</ele>
        <time>2013-07-17T08:07:06Z</time>
      </trkpt>
      <trkpt lat="45.91989" lon="6.20343">
        <ele>605.956</ele>
        <time>2013-07-17T08:07:09Z</time>
      </trkpt>
      <trkpt lat="45.91976" lon="6.20306">
        <ele>602.596</ele>
        <time>2013-07-17T08:07:12Z</time>
      </trkpt>
      <trkpt lat="45.91958" lon="6.20302">
        <ele>599.793</ele>
        <time>2013-07-17T08:07:14Z</time>
      </trkpt>
      <trkpt lat="45.9194" lon="6.20315">
        <ele>598.59</ele>
        <time>2013-07-17T08:07:16Z</time>
      </trkpt>
      <trkpt lat="45.91932" lon="6.20324">
        <ele>597.845</ele>
        <time>2013-07-17T08:07:17Z</time>
      </trkpt>
      <trkpt lat="45.91914" lon="6.20344">
        <ele>596.395</ele>
        <time>2013-07-17T08:07:19Z</time>
      </trkpt>
      <trkpt lat="45.91886" lon="6.20363">
        <ele>594.644</ele>
        <time>2013-07-17T08:07:22Z</time>
      </trkpt>
      <trkpt lat="45.91865" lon="6.20365">
        <ele>593.854</ele>
        <time>2013-07-17T08:07:24Z</time>
      </trkpt>
      <trkpt lat="45.91801" lon="6.20374">
        <ele>591.734</ele>
        <time>2013-07-17T08:07:30Z</time>
      </trkpt>
      <trkpt lat="45.91732" lon="6.20389">
        <ele>587.366</ele>
        <time>2013-07-17T08:07:36Z</time>
      </trkpt>
      <trkpt lat="45.91663" lon="6.20385">
        <ele>584.935</ele>
        <time>2013-07-17T08:07:42Z</time>
      </trkpt>
      <trkpt lat="45.91611" lon="6.2039">
        <ele>583.712</ele>
        <time>2013-07-17T08:07:47Z</time>
      </trkpt>
      <trkpt lat="45.91546" lon="6.20406">
        <ele>583.398</ele>
        <time>2013-07-17T08:07:54Z</time>
      </trkpt>
      <trkpt lat="45.91499" lon="6.20418">
        <ele>583.822</ele>
        <time>2013-07-17T08:08:00Z</time>
      </trkpt>
      <trkpt lat="45.91463" lon="6.20436">
        <ele>584.652</ele>
        <time>2013-07-17T08:08:05Z</time>
      </trkpt>
      <trkpt lat="45.91448" lon="6.20445">
        <ele>584.999</ele>
        <time>2013-07-17T08:08:07Z</time>
      </trkpt>
      <trkpt lat="45.91413" lon="6.20458">
        <ele>585.552</ele>
        <time>2013-07-17T08:08:12Z</time>
      </trkpt>
      <trkpt lat="45.91374" lon="6.20458">
        <ele>586.938</ele>
        <time>2013-07-17T08:08:17Z</time>
      </trkpt>
      <trkpt lat="45.91339" lon="6.20464">
        <ele>588.228</ele>
        <time>2013-07-17T08:08:22Z</time>
      </trkpt>
      <trkpt lat="45.91304" lon="6.20467">
        <ele>588.492</ele>
        <time>2013-07-17T08:08:27Z</time>
      </trkpt>
      <trkpt lat="45.91265" lon="6.20476">
        <ele>588.774</ele>
        <time>2013-07-17T08:08:32Z</time>
      </trkpt>
      <trkpt lat="45.91259" lon="6.20477">
        <ele>588.938</ele>
        <time>2013-07-17T08:08:33Z</time>
      </trkpt>
      <trkpt lat="45.91242" lon="6.2048">
        <ele>589.354</ele>
        <time>2013-07-17T08:08:36Z</time>
      </trkpt>
      <trkpt lat="45.9123" lon="6.20481">
        <ele>589.407</ele>
        <time>2013-07-17T08:08:38Z</time>
      </trkpt>
      <trkpt lat="45.91202" lon="6.20476">
        <ele>589.446</ele>
        <time>2013-07-17T08:08:42Z</time>
      </trkpt>
      <trkpt lat="45.91176" lon="6.20465">
        <ele>590.075</ele>
        <time>2013-07-17T08:08:46Z</time>
      </trkpt>
      <trkpt lat="45.9113" lon="6.20443">
        <ele>591.443</ele>
        <time>2013-07-17T08:08:52Z</time>
      </trkpt>
      <trkpt lat="45.91094" lon="6.20425">
        <ele>592.698</ele>
        <time>2013-07-17T08:08:57Z</time>
      </trkpt>
      <trkpt lat="45.91064" lon="6.20409">
        <ele>593.283</ele>
        <time>2013-07-17T08:09:02Z</time>
      </trkpt>
      <trkpt lat="45.91026" lon="6.20386">
        <ele>591.544</ele>
        <time>2013-07-17T08:09:06Z</time>
      </trkpt>
      <trkpt lat="45.91006" lon="6.20379">
        <ele>590.813</ele>
        <time>2013-07-17T08:09:08Z</time>
      </trkpt>
      <trkpt lat="45.90985" lon="6.20386">
        <ele>589.547</ele>
        <time>2013-07-17T08:09:10Z</time>
      </trkpt>
      <trkpt lat="45.90928" lon="6.2043">
        <ele>585.094</ele>
        <time>2013-07-17T08:09:15Z</time>
      </trkpt>
      <trkpt lat="45.90888" lon="6.20456">
        <ele>579.47</ele>
        <time>2013-07-17T08:09:19Z</time>
      </trkpt>
      <trkpt lat="45.90837" lon="6.20491">
        <ele>573.146</ele>
        <time>2013-07-17T08:09:24Z</time>
      </trkpt>
      <trkpt lat="45.9081" lon="6.20516">
        <ele>568.986</ele>
        <time>2013-07-17T08:09:27Z</time>
      </trkpt>
      <trkpt lat="45.9075" lon="6.20548">
        <ele>561.872</ele>
        <time>2013-07-17T08:09:32Z</time>
      </trkpt>
      <trkpt lat="45.90689" lon="6.20586">
        <ele>559.382</ele>
        <time>2013-07-17T08:09:37Z</time>
      </trkpt>
      <trkpt lat="45.90652" lon="6.20611">
        <ele>559.759</ele>
        <time>2013-07-17T08:09:41Z</time>
      </trkpt>
      <trkpt lat="45.90637" lon="6.20621">
        <ele>560.702</ele>
        <time>2013-07-17T08:09:43Z</time>
      </trkpt>
      <trkpt lat="45.90623" lon="6.20626">
        <ele>562.114</ele>
        <time>2013-07-17T08:09:45Z</time>
      </trkpt>
      <trkpt lat="45.90583" lon="6.20628">
        <ele>563.761</ele>
        <time>2013-07-17T08:09:50Z</time>
      </trkpt>
      <trkpt lat="45.90576" lon="6.20634">
        <ele>563.333</ele>
        <time>2013-07-17T08:09:51Z</time>
      </trkpt>
      <trkpt lat="45.90538" lon="6.20693">
        <ele>558.066</ele>
        <time>2013-07-17T08:09:57Z</time>
      </trkpt>
      <trkpt lat="45.90492" lon="6.2075">
        <ele>548.872</ele>
        <time>2013-07-17T08:10:02Z</time>
      </trkpt>
      <trkpt lat="45.90458" lon="6.20802">
        <ele>545.385</ele>
        <time>2013-07-17T08:10:06Z</time>
      </trkpt>
      <trkpt lat="45.90446" lon="6.2083">
        <ele>545.157</ele>
        <time>2013-07-17T08:10:08Z</time>
      </trkpt>
      <trkpt lat="45.90424" lon="6.20905">
        <ele>545.016</ele>
        <time>2013-07-17T08:10:13Z</time>
      </trkpt>
      <trkpt lat="45.90404" lon="6.20993">
        <ele>543.935</ele>
        <time>2013-07-17T08:10:19Z</time>
      </trkpt>
      <trkpt lat="45.90391" lon="6.21051">
        <ele>543.005</ele>
        <time>2013-07-17T08:10:23Z</time>
      </trkpt>
      <trkpt lat="45.90371" lon="6.21095">
        <ele>542.773</ele>
        <time>2013-07-17T08:10:27Z</time>
      </trkpt>
      <trkpt lat="45.90361" lon="6.21093">
        <ele>543.521</ele>
        <time>2013-07-17T08:10:29Z</time>
      </trkpt>
      <trkpt lat="45.90344" lon="6.21072">
        <ele>544.005</ele>
        <time>2013-07-17T08:10:31Z</time>
      </trkpt>
      <trkpt lat="45.90334" lon="6.21024">
        <ele>545.015</ele>
        <time>2013-07-17T08:10:38Z</time>
      </trkpt>
      <trkpt lat="45.90328" lon="6.21009">
        <ele>544.858</ele>
        <time>2013-07-17T08:10:42Z</time>
      </trkpt>
      <trkpt lat="45.90322" lon="6.20994">
        <ele>544.51</ele>
        <time>2013-07-17T08:10:47Z</time>
      </trkpt>
      <trkpt lat="45.90318" lon="6.20987">
        <ele>544.299</ele>
        <time>2013-07-17T08:10:50Z</time>
      </trkpt>
      <trkpt lat="45.90301" lon="6.20988">
        <ele>544.224</ele>
        <time>2013-07-17T08:10:54Z</time>
      </trkpt>
      <trkpt lat="45.90264" lon="6.21029">
        <ele>545.689</ele>
        <time>2013-07-17T08:11:01Z</time>
      </trkpt>
      <trkpt lat="45.90226" lon="6.21081">
        <ele>547.724</ele>
        <time>2013-07-17T08:11:08Z</time>
      </trkpt>
      <trkpt lat="45.90221" lon="6.21088">
        <ele>547.981</ele>
        <time>2013-07-17T08:11:09Z</time>
      </trkpt>
      <trkpt lat="45.90209" lon="6.21102">
        <ele>548.646</ele>
        <time>2013-07-17T08:11:11Z</time>
      </trkpt>
      <trkpt lat="45.90173" lon="6.21124">
        <ele>549.08</ele>
        <time>2013-07-17T08:11:16Z</time>
      </trkpt>
      <trkpt lat="45.90137" lon="6.21145">
        <ele>549.913</ele>
        <time>2013-07-17T08:11:21Z</time>
      </trkpt>
      <trkpt lat="45.90095" lon="6.21183">
        <ele>550.591</ele>
        <time>2013-07-17T08:11:27Z</time>
      </trkpt>
      <trkpt lat="45.90063" lon="6.2123">
        <ele>550.55</ele>
        <time>2013-07-17T08:11:32Z</time>
      </trkpt>
      <trkpt lat="45.90028" lon="6.21271">
        <ele>549.307</ele>
        <time>2013-07-17T08:11:37Z</time>
      </trkpt>
      <trkpt lat="45.89986" lon="6.21302">
        <ele>548.129</ele>
        <time>2013-07-17T08:11:42Z</time>
      </trkpt>
      <trkpt lat="45.89955" lon="6.21331">
        <ele>547.555</ele>
        <time>2013-07-17T08:11:46Z</time>
      </trkpt>
      <trkpt lat="45.89929" lon="6.21367">
        <ele>547.164</ele>
        <time>2013-07-17T08:11:50Z</time>
      </trkpt>
      <trkpt lat="45.89905" lon="6.21423">
        <ele>546.959</ele>
        <time>2013-07-17T08:11:55Z</time>
      </trkpt>
      <trkpt lat="45.89902" lon="6.21435">
        <ele>546.64</ele>
        <time>2013-07-17T08:11:56Z</time>
      </trkpt>
      <trkpt lat="45.89881" lon="6.21543">
        <ele>546.113</ele>
        <time>2013-07-17T08:12:05Z</time>
      </trkpt>
      <trkpt lat="45.89865" lon="6.2163">
        <ele>546.453</ele>
        <time>2013-07-17T08:12:13Z</time>
      </trkpt>
      <trkpt lat="45.89857" lon="6.21672">
        <ele>546.84</ele>
        <time>2013-07-17T08:12:17Z</time>
      </trkpt>
      <trkpt lat="45.89861" lon="6.21702">
        <ele>546.95</ele>
        <time>2013-07-17T08:12:20Z</time>
      </trkpt>
      <trkpt lat="45.8986" lon="6.21722">
        <ele>546.858</ele>
        <time>2013-07-17T08:12:22Z</time>
      </trkpt>
      <trkpt lat="45.89848" lon="6.21744">
        <ele>546.746</ele>
        <time>2013-07-17T08:12:25Z</time>
      </trkpt>
      <trkpt lat="45.8984" lon="6.21774">
        <ele>546.657</ele>
        <time>2013-07-17T08:12:28Z</time>
      </trkpt>
      <trkpt lat="45.89821" lon="6.21882">
        <ele>548.547</ele>
        <time>2013-07-17T08:12:38Z</time>
      </trkpt>
      <trkpt lat="45.89805" lon="6.21976">
        <ele>548.483</ele>
        <time>2013-07-17T08:12:47Z</time>
      </trkpt>
      <trkpt lat="45.89793" lon="6.2204">
        <ele>548.494</ele>
        <time>2013-07-17T08:12:53Z</time>
      </trkpt>
      <trkpt lat="45.89795" lon="6.22073">
        <ele>548.539</ele>
        <time>2013-07-17T08:12:56Z</time>
      </trkpt>
      <trkpt lat="45.89794" lon="6.22107">
        <ele>548.756</ele>
        <time>2013-07-17T08:12:59Z</time>
      </trkpt>
      <trkpt lat="45.8979" lon="6.22129">
        <ele>548.972</ele>
        <time>2013-07-17T08:13:01Z</time>
      </trkpt>
      <trkpt lat="45.89773" lon="6.22177">
        <ele>549.454</ele>
        <time>2013-07-17T08:13:06Z</time>
      </trkpt>
      <trkpt lat="45.89752" lon="6.22289">
        <ele>549.515</ele>
        <time>2013-07-17T08:13:16Z</time>
      </trkpt>
      <trkpt lat="45.89735" lon="6.22388">
        <ele>550.359</ele>
        <time>2013-07-17T08:13:25Z</time>
      </trkpt>
      <trkpt lat="45.89718" lon="6.22481">
        <ele>551.352</ele>
        <time>2013-07-17T08:13:34Z</time>
      </trkpt>
      <trkpt lat="45.89704" lon="6.22555">
        <ele>551.204</ele>
        <time>2013-07-17T08:13:41Z</time>
      </trkpt>
      <trkpt lat="45.89685" lon="6.22656">
        <ele>552.608</ele>
        <time>2013-07-17T08:13:50Z</time>
      </trkpt>
      <trkpt lat="45.89669" lon="6.22742">
        <ele>553.13</ele>
        <time>2013-07-17T08:13:58Z</time>
      </trkpt>
      <trkpt lat="45.89655" lon="6.22817">
        <ele>553.726</ele>
        <time>2013-07-17T08:14:05Z</time>
      </trkpt>
      <trkpt lat="45.89649" lon="6.22838">
        <ele>553.967</ele>
        <time>2013-07-17T08:14:07Z</time>
      </trkpt>
      <trkpt lat="45.89633" lon="6.22916">
        <ele>554.343</ele>
        <time>2013-07-17T08:14:14Z</time>
      </trkpt>
      <trkpt lat="45.89617" lon="6.23003">
        <ele>554.614</ele>
        <time>2013-07-17T08:14:22Z</time>
      </trkpt>
      <trkpt lat="45.89596" lon="6.23123">
        <ele>555.264</ele>
        <time>2013-07-17T08:14:33Z</time>
      </trkpt>
      <trkpt lat="45.89574" lon="6.23244">
        <ele>556.627</ele>
        <time>2013-07-17T08:14:44Z</time>
      </trkpt>
      <trkpt lat="45.89557" lon="6.2334">
        <ele>557.542</ele>
        <time>2013-07-17T08:14:53Z</time>
      </trkpt>
      <trkpt lat="45.89537" lon="6.23455">
        <ele>557.809</ele>
        <time>2013-07-17T08:15:04Z</time>
      </trkpt>
      <trkpt lat="45.8951" lon="6.23602">
        <ele>559.342</ele>
        <time>2013-07-17T08:15:18Z</time>
      </trkpt>
      <trkpt lat="45.89488" lon="6.23722">
        <ele>559.872</ele>
        <time>2013-07-17T08:15:30Z</time>
      </trkpt>
      <trkpt lat="45.89474" lon="6.23801">
        <ele>561.454</ele>
        <time>2013-07-17T08:15:38Z</time>
      </trkpt>
      <trkpt lat="45.89465" lon="6.23873">
        <ele>562.911</ele>
        <time>2013-07-17T08:15:45Z</time>
      </trkpt>
      <trkpt lat="45.89462" lon="6.23932">
        <ele>564.696</ele>
        <time>2013-07-17T08:15:51Z</time>
      </trkpt>
      <trkpt lat="45.89461" lon="6.24002">
        <ele>565.323</ele>
        <time>2013-07-17T08:15:58Z</time>
      </trkpt>
      <trkpt lat="45.89457" lon="6.24107">
        <ele>566.142</ele>
        <time>2013-07-17T08:16:08Z</time>
      </trkpt>
      <trkpt lat="45.89448" lon="6.24195">
        <ele>565.414</ele>
        <time>2013-07-17T08:16:16Z</time>
      </trkpt>
      <trkpt lat="45.8943" lon="6.24297">
        <ele>564.711</ele>
        <time>2013-07-17T08:16:25Z</time>
      </trkpt>
      <trkpt lat="45.89409" lon="6.24372">
        <ele>564.431</ele>
        <time>2013-07-17T08:16:32Z</time>
      </trkpt>
      <trkpt lat="45.89386" lon="6.24442">
        <ele>564.723</ele>
        <time>2013-07-17T08:16:39Z</time>
      </trkpt>
      <trkpt lat="45.89355" lon="6.2453">
        <ele>564.973</ele>
        <time>2013-07-17T08:16:48Z</time>
      </trkpt>
      <trkpt lat="45.89342" lon="6.2457">
        <ele>565.045</ele>
        <time>2013-07-17T08:16:52Z</time>
      </trkpt>
      <trkpt lat="45.89334" lon="6.24623">
        <ele>565.334</ele>
        <time>2013-07-17T08:16:57Z</time>
      </trkpt>
      <trkpt lat="45.89322" lon="6.24665">
        <ele>565.12</ele>
        <time>2013-07-17T08:17:01Z</time>
      </trkpt>
      <trkpt lat="45.89317" lon="6.24674">
        <ele>565.074</ele>
        <time>2013-07-17T08:17:02Z</time>
      </trkpt>
      <trkpt lat="45.89288" lon="6.24726">
        <ele>566.208</ele>
        <time>2013-07-17T08:17:08Z</time>
      </trkpt>
      <trkpt lat="45.89262" lon="6.24801">
        <ele>567.051</ele>
        <time>2013-07-17T08:17:16Z</time>
      </trkpt>
      <trkpt lat="45.8923" lon="6.24892">
        <ele>567.751</ele>
        <time>2013-07-17T08:17:26Z</time>
      </trkpt>
      <trkpt lat="45.89211" lon="6.24961">
        <ele>569.085</ele>
        <time>2013-07-17T08:17:33Z</time>
      </trkpt>
      <trkpt lat="45.89198" lon="6.25022">
        <ele>569.922</ele>
        <time>2013-07-17T08:17:39Z</time>
      </trkpt>
      <trkpt lat="45.8919" lon="6.25074">
        <ele>569.406</ele>
        <time>2013-07-17T08:17:45Z</time>
      </trkpt>
      <trkpt lat="45.89189" lon="6.25081">
        <ele>569.457</ele>
        <time>2013-07-17T08:17:46Z</time>
      </trkpt>
      <trkpt lat="45.8918" lon="6.25089">
        <ele>569.717</ele>
        <time>2013-07-17T08:17:49Z</time>
      </trkpt>
      <trkpt lat="45.89172" lon="6.25091">
        <ele>569.732</ele>
        <time>2013-07-17T08:17:51Z</time>
      </trkpt>
      <trkpt lat="45.89164" lon="6.25099">
        <ele>570.037</ele>
        <time>2013-07-17T08:17:53Z</time>
      </trkpt>
      <trkpt lat="45.89147" lon="6.2513">
        <ele>570.467</ele>
        <time>2013-07-17T08:17:58Z</time>
      </trkpt>
      <trkpt lat="45.89152" lon="6.25156">
        <ele>570.901</ele>
        <time>2013-07-17T08:18:01Z</time>
      </trkpt>
      <trkpt lat="45.89158" lon="6.25209">
        <ele>570.122</ele>
        <time>2013-07-17T08:18:06Z</time>
      </trkpt>
      <trkpt lat="45.89158" lon="6.25326">
        <ele>570.453</ele>
        <time>2013-07-17T08:18:16Z</time>
      </trkpt>
      <trkpt lat="45.89161" lon="6.25418">
        <ele>570.627</ele>
        <time>2013-07-17T08:18:24Z</time>
      </trkpt>
      <trkpt lat="45.89166" lon="6.25504">
        <ele>571.29</ele>
        <time>2013-07-17T08:18:32Z</time>
      </trkpt>
      <trkpt lat="45.89178" lon="6.25596">
        <ele>571.491</ele>
        <time>2013-07-17T08:18:41Z</time>
      </trkpt>
      <trkpt lat="45.89196" lon="6.25694">
        <ele>572.109</ele>
        <time>2013-07-17T08:18:50Z</time>
      </trkpt>
      <trkpt lat="45.8922" lon="6.25785">
        <ele>573.091</ele>
        <time>2013-07-17T08:18:59Z</time>
      </trkpt>
      <trkpt lat="45.89254" lon="6.2588">
        <ele>573.497</ele>
        <time>2013-07-17T08:19:09Z</time>
      </trkpt>
      <trkpt lat="45.89289" lon="6.25966">
        <ele>573.317</ele>
        <time>2013-07-17T08:19:18Z</time>
      </trkpt>
      <trkpt lat="45.8933" lon="6.26067">
        <ele>573.802</ele>
        <time>2013-07-17T08:19:28Z</time>
      </trkpt>
      <trkpt lat="45.89352" lon="6.26138">
        <ele>574.644</ele>
        <time>2013-07-17T08:19:35Z</time>
      </trkpt>
      <trkpt lat="45.89365" lon="6.26197">
        <ele>576.154</ele>
        <time>2013-07-17T08:19:41Z</time>
      </trkpt>
      <trkpt lat="45.89372" lon="6.26243">
        <ele>577.83</ele>
        <time>2013-07-17T08:19:46Z</time>
      </trkpt>
      <trkpt lat="45.89376" lon="6.2628">
        <ele>578.857</ele>
        <time>2013-07-17T08:19:50Z</time>
      </trkpt>
      <trkpt lat="45.89379" lon="6.26331">
        <ele>580.145</ele>
        <time>2013-07-17T08:19:55Z</time>
      </trkpt>
      <trkpt lat="45.89376" lon="6.26396">
        <ele>580.606</ele>
        <time>2013-07-17T08:20:01Z</time>
      </trkpt>
      <trkpt lat="45.89371" lon="6.26482">
        <ele>579.334</ele>
        <time>2013-07-17T08:20:08Z</time>
      </trkpt>
      <trkpt lat="45.89369" lon="6.26585">
        <ele>579.356</ele>
        <time>2013-07-17T08:20:16Z</time>
      </trkpt>
      <trkpt lat="45.89377" lon="6.26656">
        <ele>579.097</ele>
        <time>2013-07-17T08:20:22Z</time>
      </trkpt>
      <trkpt lat="45.89396" lon="6.26765">
        <ele>579.81</ele>
        <time>2013-07-17T08:20:32Z</time>
      </trkpt>
      <trkpt lat="45.8941" lon="6.26836">
        <ele>580.214</ele>
        <time>2013-07-17T08:20:39Z</time>
      </trkpt>
      <trkpt lat="45.89433" lon="6.26916">
        <ele>580.853</ele>
        <time>2013-07-17T08:20:47Z</time>
      </trkpt>
      <trkpt lat="45.89458" lon="6.26996">
        <ele>581.319</ele>
        <time>2013-07-17T08:20:55Z</time>
      </trkpt>
      <trkpt lat="45.89499" lon="6.27117">
        <ele>582.445</ele>
        <time>2013-07-17T08:21:07Z</time>
      </trkpt>
      <trkpt lat="45.8952" lon="6.27186">
        <ele>582.867</ele>
        <time>2013-07-17T08:21:14Z</time>
      </trkpt>
      <trkpt lat="45.89541" lon="6.27254">
        <ele>583.066</ele>
        <time>2013-07-17T08:21:21Z</time>
      </trkpt>
      <trkpt lat="45.89559" lon="6.27321">
        <ele>583.901</ele>
        <time>2013-07-17T08:21:28Z</time>
      </trkpt>
      <trkpt lat="45.89582" lon="6.27407">
        <ele>584.4</ele>
        <time>2013-07-17T08:21:37Z</time>
      </trkpt>
      <trkpt lat="45.89603" lon="6.27485">
        <ele>584.661</ele>
        <time>2013-07-17T08:21:45Z</time>
      </trkpt>
      <trkpt lat="45.89628" lon="6.27576">
        <ele>584.844</ele>
        <time>2013-07-17T08:21:54Z</time>
      </trkpt>
      <trkpt lat="45.89657" lon="6.27676">
        <ele>586.639</ele>
        <time>2013-07-17T08:22:04Z</time>
      </trkpt>
      <trkpt lat="45.89684" lon="6.27773">
        <ele>588.335</ele>
        <time>2013-07-17T08:22:14Z</time>
      </trkpt>
      <trkpt lat="45.89703" lon="6.27819">
        <ele>589.376</ele>
        <time>2013-07-17T08:22:19Z</time>
      </trkpt>
      <trkpt lat="45.89721" lon="6.27865">
        <ele>590.504</ele>
        <time>2013-07-17T08:22:24Z</time>
      </trkpt>
      <trkpt lat="45.89731" lon="6.27922">
        <ele>591.849</ele>
        <time>2013-07-17T08:22:30Z</time>
      </trkpt>
      <trkpt lat="45.89751" lon="6.27995">
        <ele>592.654</ele>
        <time>2013-07-17T08:22:38Z</time>
      </trkpt>
      <trkpt lat="45.89775" lon="6.28063">
        <ele>593.277</ele>
        <time>2013-07-17T08:22:45Z</time>
      </trkpt>
      <trkpt lat="45.89803" lon="6.28147">
        <ele>594.069</ele>
        <time>2013-07-17T08:22:53Z</time>
      </trkpt>
      <trkpt lat="45.89839" lon="6.28217">
        <ele>594.109</ele>
        <time>2013-07-17T08:23:00Z</time>
      </trkpt>
      <trkpt lat="45.89849" lon="6.28268">
        <ele>593.62</ele>
        <time>2013-07-17T08:23:04Z</time>
      </trkpt>
      <trkpt lat="45.89854" lon="6.28383">
        <ele>592.917</ele>
        <time>2013-07-17T08:23:13Z</time>
      </trkpt>
      <trkpt lat="45.89859" lon="6.28472">
        <ele>592.787</ele>
        <time>2013-07-17T08:23:20Z</time>
      </trkpt>
      <trkpt lat="45.89864" lon="6.28562">
        <ele>592.687</ele>
        <time>2013-07-17T08:23:27Z</time>
      </trkpt>
      <trkpt lat="45.89872" lon="6.28671">
        <ele>593.119</ele>
        <time>2013-07-17T08:23:36Z</time>
      </trkpt>
      <trkpt lat="45.89882" lon="6.28797">
        <ele>594.699</ele>
        <time>2013-07-17T08:23:47Z</time>
      </trkpt>
      <trkpt lat="45.89888" lon="6.28894">
        <ele>594.411</ele>
        <time>2013-07-17T08:23:56Z</time>
      </trkpt>
      <trkpt lat="45.89898" lon="6.28956">
        <ele>594.771</ele>
        <time>2013-07-17T08:24:02Z</time>
      </trkpt>
      <trkpt lat="45.89908" lon="6.29011">
        <ele>595.735</ele>
        <time>2013-07-17T08:24:07Z</time>
      </trkpt>
      <trkpt lat="45.89924" lon="6.29083">
        <ele>596.858</ele>
        <time>2013-07-17T08:24:14Z</time>
      </trkpt>
      <trkpt lat="45.89937" lon="6.29155">
        <ele>597.894</ele>
        <time>2013-07-17T08:24:21Z</time>
      </trkpt>
      <trkpt lat="45.89939" lon="6.2922">
        <ele>598.424</ele>
        <time>2013-07-17T08:24:27Z</time>
      </trkpt>
      <trkpt lat="45.8993" lon="6.29296">
        <ele>598.188</ele>
        <time>2013-07-17T08:24:34Z</time>
      </trkpt>
      <trkpt lat="45.89912" lon="6.29368">
        <ele>598.413</ele>
        <time>2013-07-17T08:24:41Z</time>
      </trkpt>
      <trkpt lat="45.8989" lon="6.29421">
        <ele>598.589</ele>
        <time>2013-07-17T08:24:47Z</time>
      </trkpt>
      <trkpt lat="45.89883" lon="6.29433">
        <ele>598.476</ele>
        <time>2013-07-17T08:24:49Z</time>
      </trkpt>
      <trkpt lat="45.89885" lon="6.2945">
        <ele>598.619</ele>
        <time>2013-07-17T08:24:52Z</time>
      </trkpt>
      <trkpt lat="45.899" lon="6.29454">
        <ele>598.464</ele>
        <time>2013-07-17T08:24:55Z</time>
      </trkpt>
      <trkpt lat="45.89915" lon="6.29442">
        <ele>598.378</ele>
        <time>2013-07-17T08:24:58Z</time>
      </trkpt>
      <trkpt lat="45.89918" lon="6.29433">
        <ele>598.706</ele>
        <time>2013-07-17T08:24:59Z</time>
      </trkpt>
      <trkpt lat="45.89935" lon="6.29331">
        <ele>599.788</ele>
        <time>2013-07-17T08:25:10Z</time>
      </trkpt>
      <trkpt lat="45.89946" lon="6.29262">
        <ele>598.21</ele>
        <time>2013-07-17T08:25:17Z</time>
      </trkpt>
      <trkpt lat="45.8995" lon="6.29232">
        <ele>597.187</ele>
        <time>2013-07-17T08:25:20Z</time>
      </trkpt>
      <trkpt lat="45.89956" lon="6.29215">
        <ele>597.104</ele>
        <time>2013-07-17T08:25:22Z</time>
      </trkpt>
      <trkpt lat="45.89969" lon="6.29202">
        <ele>597.136</ele>
        <time>2013-07-17T08:25:25Z</time>
      </trkpt>
      <trkpt lat="45.89973" lon="6.29213">
        <ele>597.335</ele>
        <time>2013-07-17T08:25:27Z</time>
      </trkpt>
      <trkpt lat="45.89972" lon="6.29218">
        <ele>597.593</ele>
        <time>2013-07-17T08:25:28Z</time>
      </trkpt>
      <trkpt lat="45.89964" lon="6.29255">
        <ele>599.755</ele>
        <time>2013-07-17T08:25:35Z</time>
      </trkpt>
      <trkpt lat="45.89961" lon="6.29284">
        <ele>602.441</ele>
        <time>2013-07-17T08:25:42Z</time>
      </trkpt>
      <trkpt lat="45.89967" lon="6.29316">
        <ele>604.468</ele>
        <time>2013-07-17T08:25:48Z</time>
      </trkpt>
      <trkpt lat="45.89973" lon="6.29338">
        <ele>606.969</ele>
        <time>2013-07-17T08:25:54Z</time>
      </trkpt>
      <trkpt lat="45.89981" lon="6.29359">
        <ele>609.324</ele>
        <time>2013-07-17T08:26:01Z</time>
      </trkpt>
      <trkpt lat="45.89987" lon="6.29387">
        <ele>611.699</ele>
        <time>2013-07-17T08:26:09Z</time>
      </trkpt>
      <trkpt lat="45.89987" lon="6.29411">
        <ele>612.922</ele>
        <time>2013-07-17T08:26:15Z</time>
      </trkpt>
      <trkpt lat="45.89984" lon="6.29445">
        <ele>613.783</ele>
        <time>2013-07-17T08:26:22Z</time>
      </trkpt>
      <trkpt lat="45.89973" lon="6.29484">
        <ele>615.329</ele>
        <time>2013-07-17T08:26:30Z</time>
      </trkpt>
      <trkpt lat="45.89961" lon="6.2953">
        <ele>616.591</ele>
        <time>2013-07-17T08:26:39Z</time>
      </trkpt>
      <trkpt lat="45.89957" lon="6.2957">
        <ele>619.053</ele>
        <time>2013-07-17T08:26:47Z</time>
      </trkpt>
      <trkpt lat="45.89955" lon="6.29597">
        <ele>620.473</ele>
        <time>2013-07-17T08:26:52Z</time>
      </trkpt>
      <trkpt lat="45.89955" lon="6.29623">
        <ele>621.125</ele>
        <time>2013-07-17T08:26:56Z</time>
      </trkpt>
      <trkpt lat="45.89945" lon="6.29676">
        <ele>619.976</ele>
        <time>2013-07-17T08:27:02Z</time>
      </trkpt>
      <trkpt lat="45.89927" lon="6.29726">
        <ele>620.488</ele>
        <time>2013-07-17T08:27:08Z</time>
      </trkpt>
      <trkpt lat="45.8992" lon="6.29741">
        <ele>620.736</ele>
        <time>2013-07-17T08:27:10Z</time>
      </trkpt>
      <trkpt lat="45.89895" lon="6.2981">
        <ele>621.647</ele>
        <time>2013-07-17T08:27:19Z</time>
      </trkpt>
      <trkpt lat="45.89865" lon="6.29859">
        <ele>622.764</ele>
        <time>2013-07-17T08:27:27Z</time>
      </trkpt>
      <trkpt lat="45.89834" lon="6.29897">
        <ele>623.619</ele>
        <time>2013-07-17T08:27:34Z</time>
      </trkpt>
      <trkpt lat="45.89809" lon="6.29935">
        <ele>624.137</ele>
        <time>2013-07-17T08:27:40Z</time>
      </trkpt>
      <trkpt lat="45.89777" lon="6.29998">
        <ele>624.55</ele>
        <time>2013-07-17T08:27:48Z</time>
      </trkpt>
      <trkpt lat="45.89773" lon="6.30034">
        <ele>625.38</ele>
        <time>2013-07-17T08:27:52Z</time>
      </trkpt>
      <trkpt lat="45.89776" lon="6.30053">
        <ele>626.233</ele>
        <time>2013-07-17T08:27:54Z</time>
      </trkpt>
      <trkpt lat="45.89782" lon="6.3008">
        <ele>627.593</ele>
        <time>2013-07-17T08:27:57Z</time>
      </trkpt>
      <trkpt lat="45.89784" lon="6.30116">
        <ele>628.572</ele>
        <time>2013-07-17T08:28:01Z</time>
      </trkpt>
      <trkpt lat="45.89783" lon="6.30136">
        <ele>628.719</ele>
        <time>2013-07-17T08:28:03Z</time>
      </trkpt>
      <trkpt lat="45.89784" lon="6.30229">
        <ele>628.159</ele>
        <time>2013-07-17T08:28:11Z</time>
      </trkpt>
      <trkpt lat="45.89784" lon="6.30241">
        <ele>628.009</ele>
        <time>2013-07-17T08:28:12Z</time>
      </trkpt>
      <trkpt lat="45.89792" lon="6.3028">
        <ele>627.044</ele>
        <time>2013-07-17T08:28:16Z</time>
      </trkpt>
      <trkpt lat="45.89804" lon="6.30276">
        <ele>626.792</ele>
        <time>2013-07-17T08:28:18Z</time>
      </trkpt>
      <trkpt lat="45.8981" lon="6.30259">
        <ele>627.393</ele>
        <time>2013-07-17T08:28:21Z</time>
      </trkpt>
    </trkseg>
  </trk>
</gpx>